Wetterdaten: Samstag, 14.05.2016
Datum Zeit Temp. A. Feuchte A. Luftdruck Regen Wind Richtung Richtung Sonnenschein ET UV Solar Taupunkt Windchill Windben Empfang
14.05.2016 00:00 11,3 C 97 % 999,4 hPa 0,0 l/m 9,0 km/h (2 Bft) SW 228 0 min 0,000 mm 0,0 UV-I 0 W/m 10,8 C 9,6 C 12,9 km/h (3 Bft) 91,30 %
14.05.2016 00:02 11,3 C 97 % 999,4 hPa 0,0 l/m 8,9 km/h (2 Bft) W-SW 238 0 min 0,000 mm 0,0 UV-I 0 W/m 10,8 C 9,7 C 12,9 km/h (3 Bft) 97,06 %
14.05.2016 00:03 11,3 C 97 % 999,4 hPa 0,0 l/m 9,0 km/h (2 Bft) SW 221 0 min 0,000 mm 0,0 UV-I 0 W/m 10,8 C 9,6 C 14,5 km/h (3 Bft) 100,00 %
14.05.2016 00:04 11,3 C 97 % 999,4 hPa 0,0 l/m 11,2 km/h (2 Bft) SW 229 0 min 0,000 mm 0,0 UV-I 0 W/m 10,8 C 8,4 C 14,5 km/h (3 Bft) 100,00 %
14.05.2016 00:05 11,3 C 97 % 999,4 hPa 0,0 l/m 11,0 km/h (2 Bft) S-SW 205 0 min 0,000 mm 0,0 UV-I 0 W/m 10,8 C 8,5 C 14,5 km/h (3 Bft) 100,00 %
14.05.2016 00:06 11,3 C 97 % 999,4 hPa 0,0 l/m 11,4 km/h (2 Bft) SW 235 0 min 0,000 mm 0,0 UV-I 0 W/m 10,8 C 8,3 C 14,5 km/h (3 Bft) 100,00 %
14.05.2016 00:07 11,3 C 97 % 999,5 hPa 0,0 l/m 12,4 km/h (3 Bft) W-SW 244 0 min 0,000 mm 0,0 UV-I 0 W/m 10,8 C 7,8 C 14,5 km/h (3 Bft) 100,00 %
14.05.2016 00:08 11,3 C 97 % 999,5 hPa 0,0 l/m 10,6 km/h (2 Bft) SW 232 0 min 0,000 mm 0,0 UV-I 0 W/m 10,8 C 8,7 C 12,9 km/h (3 Bft) 100,00 %
14.05.2016 00:09 11,3 C 97 % 999,4 hPa 0,0 l/m 10,7 km/h (2 Bft) SW 233 0 min 0,000 mm 0,0 UV-I 0 W/m 10,8 C 8,7 C 14,5 km/h (3 Bft) 100,00 %
14.05.2016 00:10 11,3 C 97 % 999,4 hPa 0,0 l/m 9,4 km/h (2 Bft) W-SW 238 0 min 0,000 mm 0,0 UV-I 0 W/m 10,8 C 9,4 C 12,9 km/h (3 Bft) 100,00 %
14.05.2016 00:11 11,3 C 97 % 999,5 hPa 0,0 l/m 8,5 km/h (2 Bft) SW 217 0 min 0,000 mm 0,0 UV-I 0 W/m 10,8 C 9,9 C 11,3 km/h (2 Bft) 100,00 %
14.05.2016 00:12 11,3 C 97 % 999,5 hPa 0,0 l/m 7,7 km/h (2 Bft) W-SW 257 0 min 0,000 mm 0,0 UV-I 0 W/m 10,8 C 10,4 C 9,7 km/h (2 Bft) 95,56 %
14.05.2016 00:13 11,3 C 97 % 999,5 hPa 0,2 l/m 8,0 km/h (2 Bft) SW 224 0 min 0,000 mm 0,0 UV-I 0 W/m 10,8 C 10,2 C 11,3 km/h (2 Bft) 90,91 %
14.05.2016 00:14 11,3 C 97 % 999,5 hPa 0,0 l/m 9,9 km/h (2 Bft) SW 234 0 min 0,000 mm 0,0 UV-I 0 W/m 10,8 C 9,1 C 16,1 km/h (3 Bft) 100,00 %
14.05.2016 00:15 11,3 C 97 % 999,5 hPa 0,0 l/m 12,4 km/h (3 Bft) W-SW 240 0 min 0,000 mm 0,0 UV-I 0 W/m 10,8 C 7,8 C 14,5 km/h (3 Bft) 96,55 %
14.05.2016 00:16 11,3 C 97 % 999,5 hPa 0,0 l/m 9,4 km/h (2 Bft) W-SW 242 0 min 0,000 mm 0,0 UV-I 0 W/m 10,8 C 9,4 C 12,9 km/h (3 Bft) 100,00 %
14.05.2016 00:17 11,3 C 97 % 999,5 hPa 0,0 l/m 7,9 km/h (2 Bft) SW 230 0 min 0,000 mm 0,0 UV-I 0 W/m 10,8 C 10,3 C 9,7 km/h (2 Bft) 100,00 %
14.05.2016 00:18 11,3 C 97 % 999,5 hPa 0,0 l/m 10,4 km/h (2 Bft) W-SW 238 0 min 0,000 mm 0,0 UV-I 0 W/m 10,8 C 8,8 C 14,5 km/h (3 Bft) 100,00 %
14.05.2016 00:19 11,3 C 97 % 999,5 hPa 0,0 l/m 11,3 km/h (2 Bft) SW 231 0 min 0,000 mm 0,0 UV-I 0 W/m 10,8 C 8,4 C 14,5 km/h (3 Bft) 100,00 %
14.05.2016 00:20 11,3 C 97 % 999,5 hPa 0,0 l/m 8,6 km/h (2 Bft) SW 229 0 min 0,000 mm 0,0 UV-I 0 W/m 10,8 C 9,8 C 11,3 km/h (2 Bft) 100,00 %
14.05.2016 00:21 11,3 C 97 % 999,5 hPa 0,0 l/m 8,9 km/h (2 Bft) W-SW 242 0 min 0,000 mm 0,0 UV-I 0 W/m 10,8 C 9,7 C 12,9 km/h (3 Bft) 96,15 %
14.05.2016 00:22 11,3 C 97 % 999,5 hPa 0,0 l/m 8,2 km/h (2 Bft) SW 231 0 min 0,000 mm 0,0 UV-I 0 W/m 10,8 C 10,1 C 11,3 km/h (2 Bft) 100,00 %
14.05.2016 00:23 11,3 C 97 % 999,6 hPa 0,0 l/m 8,7 km/h (2 Bft) SW 235 0 min 0,000 mm 0,0 UV-I 0 W/m 10,8 C 9,8 C 11,3 km/h (2 Bft) 100,00 %
14.05.2016 00:24 11,3 C 97 % 999,5 hPa 0,0 l/m 8,9 km/h (2 Bft) SW 231 0 min 0,000 mm 0,0 UV-I 0 W/m 10,8 C 9,7 C 11,3 km/h (2 Bft) 100,00 %
14.05.2016 00:25 11,3 C 97 % 999,6 hPa 0,0 l/m 8,9 km/h (2 Bft) W-SW 244 0 min 0,000 mm 0,0 UV-I 0 W/m 10,8 C 9,7 C 12,9 km/h (3 Bft) 96,55 %
14.05.2016 00:26 11,3 C 97 % 999,6 hPa 0,0 l/m 10,7 km/h (2 Bft) W-SW 255 0 min 0,000 mm 0,0 UV-I 0 W/m 10,8 C 8,7 C 16,1 km/h (3 Bft) 100,00 %
14.05.2016 00:27 11,3 C 97 % 999,6 hPa 0,0 l/m 9,2 km/h (2 Bft) W-SW 250 0 min 0,000 mm 0,0 UV-I 0 W/m 10,8 C 9,5 C 12,9 km/h (3 Bft) 100,00 %
14.05.2016 00:28 11,3 C 97 % 999,6 hPa 0,0 l/m 9,5 km/h (2 Bft) SW 234 0 min 0,000 mm 0,0 UV-I 0 W/m 10,8 C 9,3 C 12,9 km/h (3 Bft) 100,00 %
14.05.2016 00:29 11,3 C 97 % 999,6 hPa 0,0 l/m 9,7 km/h (2 Bft) S-SW 213 0 min 0,000 mm 0,0 UV-I 0 W/m 10,8 C 9,2 C 16,1 km/h (3 Bft) 100,00 %
14.05.2016 00:30 11,3 C 97 % 999,6 hPa 0,0 l/m 9,3 km/h (2 Bft) W-SW 241 0 min 0,000 mm 0,0 UV-I 0 W/m 10,8 C 9,4 C 12,9 km/h (3 Bft) 100,00 %
14.05.2016 00:31 11,3 C 97 % 999,6 hPa 0,0 l/m 10,9 km/h (2 Bft) SW 227 0 min 0,000 mm 0,0 UV-I 0 W/m 10,8 C 8,6 C 14,5 km/h (3 Bft) 100,00 %
14.05.2016 00:32 11,3 C 97 % 999,6 hPa 0,0 l/m 8,0 km/h (2 Bft) S-SW 210 0 min 0,000 mm 0,0 UV-I 0 W/m 10,8 C 10,2 C 12,9 km/h (3 Bft) 96,55 %
14.05.2016 00:33 11,3 C 97 % 999,5 hPa 0,0 l/m 12,7 km/h (3 Bft) SW 225 0 min 0,000 mm 0,0 UV-I 0 W/m 10,8 C 7,7 C 16,1 km/h (3 Bft) 100,00 %
14.05.2016 00:34 11,3 C 97 % 999,6 hPa 0,0 l/m 11,5 km/h (2 Bft) W-SW 240 0 min 0,000 mm 0,0 UV-I 0 W/m 10,8 C 8,3 C 14,5 km/h (3 Bft) 100,00 %
14.05.2016 00:35 11,3 C 97 % 999,6 hPa 0,0 l/m 10,5 km/h (2 Bft) SW 221 0 min 0,000 mm 0,0 UV-I 0 W/m 10,8 C 8,8 C 17,7 km/h (3 Bft) 100,00 %
14.05.2016 00:36 11,3 C 97 % 999,6 hPa 0,0 l/m 8,9 km/h (2 Bft) SW 231 0 min 0,000 mm 0,0 UV-I 0 W/m 10,8 C 9,7 C 14,5 km/h (3 Bft) 100,00 %
14.05.2016 00:37 11,3 C 97 % 999,6 hPa 0,0 l/m 10,1 km/h (2 Bft) W-SW 240 0 min 0,000 mm 0,0 UV-I 0 W/m 10,8 C 9,0 C 14,5 km/h (3 Bft) 100,00 %
14.05.2016 00:38 11,3 C 97 % 999,6 hPa 0,0 l/m 9,7 km/h (2 Bft) SW 229 0 min 0,000 mm 0,0 UV-I 0 W/m 10,8 C 9,2 C 14,5 km/h (3 Bft) 100,00 %
14.05.2016 00:39 11,3 C 97 % 999,6 hPa 0,0 l/m 9,2 km/h (2 Bft) SW 219 0 min 0,000 mm 0,0 UV-I 0 W/m 10,8 C 9,5 C 11,3 km/h (2 Bft) 100,00 %
14.05.2016 00:40 11,3 C 97 % 999,6 hPa 0,0 l/m 7,1 km/h (2 Bft) SW 225 0 min 0,000 mm 0,0 UV-I 0 W/m 10,8 C 10,8 C 11,3 km/h (2 Bft) 100,00 %
14.05.2016 00:41 11,3 C 97 % 999,6 hPa 0,0 l/m 8,4 km/h (2 Bft) S-SW 213 0 min 0,000 mm 0,0 UV-I 0 W/m 10,8 C 10,0 C 12,9 km/h (3 Bft) 100,00 %
14.05.2016 00:42 11,3 C 97 % 999,6 hPa 0,0 l/m 9,9 km/h (2 Bft) SW 226 0 min 0,000 mm 0,0 UV-I 0 W/m 10,8 C 9,1 C 14,5 km/h (3 Bft) 100,00 %
14.05.2016 00:43 11,3 C 97 % 999,6 hPa 0,0 l/m 9,9 km/h (2 Bft) SW 222 0 min 0,000 mm 0,0 UV-I 0 W/m 10,8 C 9,1 C 12,9 km/h (3 Bft) 100,00 %
14.05.2016 00:44 11,3 C 97 % 999,6 hPa 0,0 l/m 9,1 km/h (2 Bft) W-SW 252 0 min 0,000 mm 0,0 UV-I 0 W/m 10,8 C 9,5 C 11,3 km/h (2 Bft) 100,00 %
14.05.2016 00:45 11,3 C 97 % 999,5 hPa 0,0 l/m 7,6 km/h (2 Bft) SW 232 0 min 0,000 mm 0,0 UV-I 0 W/m 10,8 C 10,5 C 12,9 km/h (3 Bft) 100,00 %
14.05.2016 00:46 11,3 C 97 % 999,5 hPa 0,0 l/m 9,2 km/h (2 Bft) W-SW 240 0 min 0,000 mm 0,0 UV-I 0 W/m 10,8 C 9,5 C 12,9 km/h (3 Bft) 100,00 %
14.05.2016 00:47 11,3 C 97 % 999,6 hPa 0,0 l/m 10,4 km/h (2 Bft) SW 220 0 min 0,000 mm 0,0 UV-I 0 W/m 10,8 C 8,8 C 16,1 km/h (3 Bft) 100,00 %
14.05.2016 00:48 11,3 C 97 % 999,6 hPa 0,0 l/m 7,8 km/h (2 Bft) SW 232 0 min 0,000 mm 0,0 UV-I 0 W/m 10,8 C 10,3 C 11,3 km/h (2 Bft) 100,00 %
14.05.2016 00:49 11,3 C 97 % 999,5 hPa 0,0 l/m 8,5 km/h (2 Bft) SW 231 0 min 0,000 mm 0,0 UV-I 0 W/m 10,8 C 9,9 C 12,9 km/h (3 Bft) 100,00 %
14.05.2016 00:50 11,3 C 97 % 999,5 hPa 0,0 l/m 9,4 km/h (2 Bft) W-SW 244 0 min 0,000 mm 0,0 UV-I 0 W/m 10,8 C 9,4 C 14,5 km/h (3 Bft) 100,00 %
14.05.2016 00:51 11,3 C 97 % 999,5 hPa 0,0 l/m 11,1 km/h (2 Bft) SW 233 0 min 0,000 mm 0,0 UV-I 0 W/m 10,8 C 8,5 C 14,5 km/h (3 Bft) 100,00 %
14.05.2016 00:52 11,3 C 97 % 999,5 hPa 0,0 l/m 9,7 km/h (2 Bft) SW 231 0 min 0,000 mm 0,0 UV-I 0 W/m 10,8 C 9,2 C 11,3 km/h (2 Bft) 100,00 %
14.05.2016 00:53 11,3 C 97 % 999,5 hPa 0,0 l/m 9,3 km/h (2 Bft) SW 222 0 min 0,000 mm 0,0 UV-I 0 W/m 10,8 C 9,4 C 14,5 km/h (3 Bft) 100,00 %
14.05.2016 00:54 11,3 C 97 % 999,5 hPa 0,0 l/m 9,4 km/h (2 Bft) W-SW 241 0 min 0,000 mm 0,0 UV-I 0 W/m 10,8 C 9,4 C 11,3 km/h (2 Bft) 100,00 %
14.05.2016 00:55 11,3 C 97 % 999,5 hPa 0,0 l/m 7,1 km/h (2 Bft) S-SW 213 0 min 0,000 mm 0,0 UV-I 0 W/m 10,8 C 10,8 C 9,7 km/h (2 Bft) 100,00 %
14.05.2016 00:56 11,3 C 97 % 999,5 hPa 0,0 l/m 10,5 km/h (2 Bft) W-SW 242 0 min 0,000 mm 0,0 UV-I 0 W/m 10,8 C 8,8 C 17,7 km/h (3 Bft) 100,00 %
14.05.2016 00:57 11,3 C 97 % 999,5 hPa 0,0 l/m 10,6 km/h (2 Bft) W-SW 255 0 min 0,000 mm 0,0 UV-I 0 W/m 10,8 C 8,7 C 12,9 km/h (3 Bft) 100,00 %
14.05.2016 00:58 11,3 C 97 % 999,5 hPa 0,0 l/m 8,7 km/h (2 Bft) SW 229 0 min 0,000 mm 0,0 UV-I 0 W/m 10,8 C 9,8 C 12,9 km/h (3 Bft) 100,00 %
14.05.2016 00:59 11,3 C 97 % 999,5 hPa 0,0 l/m 10,1 km/h (2 Bft) SW 232 0 min 0,000 mm 0,0 UV-I 0 W/m 10,8 C 9,0 C 14,5 km/h (3 Bft) 100,00 %
14.05.2016 01:00 11,3 C 97 % 999,5 hPa 0,0 l/m 7,9 km/h (2 Bft) SW 234 0 min 0,000 mm 0,0 UV-I 0 W/m 10,8 C 10,3 C 11,3 km/h (2 Bft) 96,30 %
14.05.2016 01:01 11,3 C 97 % 999,5 hPa 0,0 l/m 9,3 km/h (2 Bft) W-SW 246 0 min 0,000 mm 0,0 UV-I 0 W/m 10,8 C 9,4 C 12,9 km/h (3 Bft) 100,00 %
14.05.2016 01:02 11,3 C 97 % 999,5 hPa 0,2 l/m 7,2 km/h (2 Bft) W-SW 242 0 min 0,000 mm 0,0 UV-I 0 W/m 10,8 C 10,8 C 11,3 km/h (2 Bft) 95,83 %
14.05.2016 01:03 11,3 C 97 % 999,5 hPa 0,0 l/m 7,7 km/h (2 Bft) W-SW 238 0 min 0,000 mm 0,0 UV-I 0 W/m 10,8 C 10,4 C 11,3 km/h (2 Bft) 100,00 %
14.05.2016 01:04 11,2 C 97 % 999,5 hPa 0,0 l/m 9,3 km/h (2 Bft) W 277 0 min 0,000 mm 0,0 UV-I 0 W/m 10,7 C 9,3 C 12,9 km/h (3 Bft) 96,55 %
14.05.2016 01:05 11,3 C 97 % 999,5 hPa 0,0 l/m 7,7 km/h (2 Bft) W 271 0 min 0,000 mm 0,0 UV-I 0 W/m 10,8 C 10,4 C 11,3 km/h (2 Bft) 96,15 %
14.05.2016 01:06 11,3 C 97 % 999,5 hPa 0,0 l/m 9,1 km/h (2 Bft) SW 225 0 min 0,000 mm 0,0 UV-I 0 W/m 10,8 C 9,5 C 16,1 km/h (3 Bft) 100,00 %
14.05.2016 01:07 11,3 C 97 % 999,5 hPa 0,0 l/m 8,2 km/h (2 Bft) S-SW 211 0 min 0,000 mm 0,0 UV-I 0 W/m 10,8 C 10,1 C 11,3 km/h (2 Bft) 100,00 %
14.05.2016 01:08 11,2 C 97 % 999,4 hPa 0,0 l/m 12,5 km/h (3 Bft) W-SW 239 0 min 0,000 mm 0,0 UV-I 0 W/m 10,7 C 7,7 C 17,7 km/h (3 Bft) 96,55 %
14.05.2016 01:09 11,2 C 97 % 999,4 hPa 0,0 l/m 11,1 km/h (2 Bft) SW 223 0 min 0,000 mm 0,0 UV-I 0 W/m 10,7 C 8,3 C 16,1 km/h (3 Bft) 96,30 %
14.05.2016 01:10 11,3 C 97 % 999,4 hPa 0,0 l/m 13,8 km/h (3 Bft) W-SW 247 0 min 0,000 mm 0,0 UV-I 0 W/m 10,8 C 7,2 C 17,7 km/h (3 Bft) 96,15 %
14.05.2016 01:11 11,3 C 97 % 999,3 hPa 0,0 l/m 15,2 km/h (3 Bft) SW 227 0 min 0,000 mm 0,0 UV-I 0 W/m 10,8 C 6,6 C 19,3 km/h (3 Bft) 91,67 %
14.05.2016 01:12 11,3 C 97 % 999,3 hPa 0,0 l/m 10,9 km/h (2 Bft) W-SW 242 0 min 0,000 mm 0,0 UV-I 0 W/m 10,8 C 8,6 C 17,7 km/h (3 Bft) 100,00 %
14.05.2016 01:13 11,2 C 97 % 999,3 hPa 0,0 l/m 11,7 km/h (2 Bft) SW 230 0 min 0,000 mm 0,0 UV-I 0 W/m 10,7 C 8,0 C 17,7 km/h (3 Bft) 95,83 %
14.05.2016 01:14 11,2 C 97 % 999,2 hPa 0,0 l/m 12,8 km/h (3 Bft) S-SW 199 0 min 0,000 mm 0,0 UV-I 0 W/m 10,7 C 7,5 C 20,9 km/h (4 Bft) 100,00 %
14.05.2016 01:15 11,3 C 97 % 999,3 hPa 0,0 l/m 11,5 km/h (2 Bft) SW 217 0 min 0,000 mm 0,0 UV-I 0 W/m 10,8 C 8,3 C 19,3 km/h (3 Bft) 91,67 %
14.05.2016 01:16 11,3 C 97 % 999,3 hPa 0,0 l/m 8,9 km/h (2 Bft) W-SW 237 0 min 0,000 mm 0,0 UV-I 0 W/m 10,8 C 9,7 C 12,9 km/h (3 Bft) 96,15 %
14.05.2016 01:17 11,3 C 97 % 999,5 hPa 0,0 l/m 9,5 km/h (2 Bft) W-SW 252 0 min 0,000 mm 0,0 UV-I 0 W/m 10,8 C 9,3 C 14,5 km/h (3 Bft) 98,87 %
14.05.2016 01:18 11,3 C 97 % 999,5 hPa 0,0 l/m 9,2 km/h (2 Bft) W-SW 237 0 min 0,000 mm 0,0 UV-I 0 W/m 10,8 C 9,5 C 14,5 km/h (3 Bft) 94,74 %
14.05.2016 01:19 11,3 C 97 % 999,5 hPa 0,0 l/m 9,0 km/h (2 Bft) W-SW 253 0 min 0,000 mm 0,0 UV-I 0 W/m 10,8 C 9,6 C 12,9 km/h (3 Bft) 100,00 %
14.05.2016 01:20 11,3 C 97 % 999,5 hPa 0,0 l/m 11,0 km/h (2 Bft) W-SW 252 0 min 0,000 mm 0,0 UV-I 0 W/m 10,8 C 8,5 C 16,1 km/h (3 Bft) 93,10 %
14.05.2016 01:21 11,3 C 97 % 999,5 hPa 0,0 l/m 7,6 km/h (2 Bft) W 267 0 min 0,000 mm 0,0 UV-I 0 W/m 10,8 C 10,5 C 11,3 km/h (2 Bft) 100,00 %
14.05.2016 01:22 11,3 C 97 % 999,5 hPa 0,0 l/m 6,1 km/h (2 Bft) W-SW 248 0 min 0,000 mm 0,0 UV-I 0 W/m 10,8 C 11,3 C 9,7 km/h (2 Bft) 96,15 %
14.05.2016 01:23 11,3 C 97 % 999,5 hPa 0,0 l/m 8,1 km/h (2 Bft) W-SW 242 0 min 0,000 mm 0,0 UV-I 0 W/m 10,8 C 10,2 C 14,5 km/h (3 Bft) 96,30 %
14.05.2016 01:24 11,3 C 97 % 999,6 hPa 0,0 l/m 8,7 km/h (2 Bft) W-SW 250 0 min 0,000 mm 0,0 UV-I 0 W/m 10,8 C 9,8 C 14,5 km/h (3 Bft) 96,15 %
14.05.2016 01:25 11,3 C 97 % 999,5 hPa 0,0 l/m 8,7 km/h (2 Bft) W-SW 245 0 min 0,000 mm 0,0 UV-I 0 W/m 10,8 C 9,8 C 12,9 km/h (3 Bft) 95,83 %
14.05.2016 01:26 11,3 C 97 % 999,6 hPa 0,0 l/m 7,0 km/h (2 Bft) SW 236 0 min 0,000 mm 0,0 UV-I 0 W/m 10,8 C 10,9 C 9,7 km/h (2 Bft) 100,00 %
14.05.2016 01:27 11,3 C 97 % 999,5 hPa 0,0 l/m 9,2 km/h (2 Bft) W-SW 251 0 min 0,000 mm 0,0 UV-I 0 W/m 10,8 C 9,5 C 14,5 km/h (3 Bft) 96,55 %
14.05.2016 01:28 11,3 C 97 % 999,5 hPa 0,0 l/m 10,1 km/h (2 Bft) W-SW 248 0 min 0,000 mm 0,0 UV-I 0 W/m 10,8 C 9,0 C 12,9 km/h (3 Bft) 100,00 %
14.05.2016 01:29 11,3 C 97 % 999,5 hPa 0,0 l/m 7,5 km/h (2 Bft) W-SW 246 0 min 0,000 mm 0,0 UV-I 0 W/m 10,8 C 10,5 C 9,7 km/h (2 Bft) 92,31 %
14.05.2016 01:30 11,3 C 97 % 999,5 hPa 0,0 l/m 8,1 km/h (2 Bft) W 261 0 min 0,000 mm 0,0 UV-I 0 W/m 10,8 C 10,2 C 12,9 km/h (3 Bft) 100,00 %
14.05.2016 01:31 11,3 C 97 % 999,5 hPa 0,0 l/m 10,7 km/h (2 Bft) S-SW 211 0 min 0,000 mm 0,0 UV-I 0 W/m 10,8 C 8,7 C 14,5 km/h (3 Bft) 96,15 %
14.05.2016 01:32 11,3 C 97 % 999,5 hPa 0,0 l/m 12,6 km/h (3 Bft) W-SW 237 0 min 0,000 mm 0,0 UV-I 0 W/m 10,8 C 7,7 C 16,1 km/h (3 Bft) 100,00 %
14.05.2016 01:33 11,3 C 97 % 999,5 hPa 0,0 l/m 9,5 km/h (2 Bft) SW 214 0 min 0,000 mm 0,0 UV-I 0 W/m 10,8 C 9,3 C 12,9 km/h (3 Bft) 100,00 %
14.05.2016 01:34 11,3 C 97 % 999,5 hPa 0,0 l/m 8,1 km/h (2 Bft) W 260 0 min 0,000 mm 0,0 UV-I 0 W/m 10,8 C 10,2 C 11,3 km/h (2 Bft) 100,00 %
14.05.2016 01:35 11,3 C 97 % 999,4 hPa 0,0 l/m 11,2 km/h (2 Bft) SW 222 0 min 0,000 mm 0,0 UV-I 0 W/m 10,8 C 8,4 C 14,5 km/h (3 Bft) 100,00 %
14.05.2016 01:36 11,3 C 97 % 999,4 hPa 0,0 l/m 12,6 km/h (3 Bft) W-SW 242 0 min 0,000 mm 0,0 UV-I 0 W/m 10,8 C 7,7 C 16,1 km/h (3 Bft) 100,00 %
14.05.2016 01:37 11,3 C 97 % 999,4 hPa 0,0 l/m 11,8 km/h (2 Bft) W-SW 243 0 min 0,000 mm 0,0 UV-I 0 W/m 10,8 C 8,1 C 17,7 km/h (3 Bft) 100,00 %
14.05.2016 01:38 11,3 C 97 % 999,4 hPa 0,0 l/m 12,3 km/h (3 Bft) SW 221 0 min 0,000 mm 0,0 UV-I 0 W/m 10,8 C 7,9 C 17,7 km/h (3 Bft) 88,89 %
14.05.2016 01:39 11,3 C 97 % 999,4 hPa 0,0 l/m 10,7 km/h (2 Bft) S-SW 213 0 min 0,000 mm 0,0 UV-I 0 W/m 10,8 C 8,7 C 14,5 km/h (3 Bft) 100,00 %
14.05.2016 01:40 11,3 C 97 % 999,4 hPa 0,0 l/m 8,3 km/h (2 Bft) W-SW 238 0 min 0,000 mm 0,0 UV-I 0 W/m 10,8 C 10,0 C 9,7 km/h (2 Bft) 96,55 %
14.05.2016 01:41 11,3 C 97 % 999,5 hPa 0,0 l/m 6,1 km/h (2 Bft) SW 223 0 min 0,000 mm 0,0 UV-I 0 W/m 10,8 C 11,3 C 9,7 km/h (2 Bft) 100,00 %
14.05.2016 01:42 11,3 C 97 % 999,5 hPa 0,0 l/m 8,0 km/h (2 Bft) W-SW 250 0 min 0,000 mm 0,0 UV-I 0 W/m 10,8 C 10,2 C 11,3 km/h (2 Bft) 100,00 %
14.05.2016 01:43 11,3 C 97 % 999,5 hPa 0,0 l/m 9,3 km/h (2 Bft) SW 222 0 min 0,000 mm 0,0 UV-I 0 W/m 10,8 C 9,4 C 14,5 km/h (3 Bft) 100,00 %
14.05.2016 01:44 11,3 C 97 % 999,4 hPa 0,0 l/m 8,2 km/h (2 Bft) S-SW 200 0 min 0,000 mm 0,0 UV-I 0 W/m 10,8 C 10,1 C 11,3 km/h (2 Bft) 100,00 %
14.05.2016 01:45 11,3 C 97 % 999,4 hPa 0,0 l/m 8,0 km/h (2 Bft) W-SW 246 0 min 0,000 mm 0,0 UV-I 0 W/m 10,8 C 10,2 C 9,7 km/h (2 Bft) 100,00 %
14.05.2016 01:46 11,3 C 97 % 999,4 hPa 0,0 l/m 8,7 km/h (2 Bft) SW 230 0 min 0,000 mm 0,0 UV-I 0 W/m 10,8 C 9,8 C 12,9 km/h (3 Bft) 93,10 %
14.05.2016 01:47 11,3 C 97 % 999,4 hPa 0,0 l/m 8,8 km/h (2 Bft) SW 224 0 min 0,000 mm 0,0 UV-I 0 W/m 10,8 C 9,7 C 11,3 km/h (2 Bft) 98,47 %
14.05.2016 01:48 11,3 C 97 % 999,4 hPa 0,0 l/m 8,9 km/h (2 Bft) SW 225 0 min 0,000 mm 0,0 UV-I 0 W/m 10,8 C 9,7 C 11,3 km/h (2 Bft) 100,00 %
14.05.2016 01:49 11,3 C 97 % 999,4 hPa 0,0 l/m 9,1 km/h (2 Bft) W-SW 239 0 min 0,000 mm 0,0 UV-I 0 W/m 10,8 C 9,5 C 11,3 km/h (2 Bft) 100,00 %
14.05.2016 01:50 11,3 C 97 % 999,4 hPa 0,0 l/m 8,6 km/h (2 Bft) SW 232 0 min 0,000 mm 0,0 UV-I 0 W/m 10,8 C 9,8 C 11,3 km/h (2 Bft) 100,00 %
14.05.2016 01:51 11,3 C 97 % 999,4 hPa 0,0 l/m 8,9 km/h (2 Bft) SW 229 0 min 0,000 mm 0,0 UV-I 0 W/m 10,8 C 9,7 C 11,3 km/h (2 Bft) 100,00 %
14.05.2016 01:52 11,3 C 97 % 999,4 hPa 0,2 l/m 10,6 km/h (2 Bft) W-SW 246 0 min 0,000 mm 0,0 UV-I 0 W/m 10,8 C 8,7 C 16,1 km/h (3 Bft) 100,00 %
14.05.2016 01:53 11,3 C 97 % 999,3 hPa 0,0 l/m 9,4 km/h (2 Bft) SW 217 0 min 0,000 mm 0,0 UV-I 0 W/m 10,8 C 9,4 C 12,9 km/h (3 Bft) 100,00 %
14.05.2016 01:54 11,3 C 97 % 999,3 hPa 0,0 l/m 8,5 km/h (2 Bft) SW 225 0 min 0,000 mm 0,0 UV-I 0 W/m 10,8 C 9,9 C 12,9 km/h (3 Bft) 91,30 %
14.05.2016 01:55 11,3 C 97 % 999,3 hPa 0,0 l/m 10,2 km/h (2 Bft) SW 234 0 min 0,000 mm 0,0 UV-I 0 W/m 10,8 C 8,9 C 14,5 km/h (3 Bft) 100,00 %
14.05.2016 01:56 11,3 C 97 % 999,3 hPa 0,0 l/m 10,9 km/h (2 Bft) SW 234 0 min 0,000 mm 0,0 UV-I 0 W/m 10,8 C 8,6 C 14,5 km/h (3 Bft) 100,00 %
14.05.2016 01:57 11,3 C 97 % 999,3 hPa 0,0 l/m 11,0 km/h (2 Bft) SW 227 0 min 0,000 mm 0,0 UV-I 0 W/m 10,8 C 8,5 C 14,5 km/h (3 Bft) 100,00 %
14.05.2016 01:58 11,3 C 97 % 999,4 hPa 0,0 l/m 9,1 km/h (2 Bft) SW 234 0 min 0,000 mm 0,0 UV-I 0 W/m 10,8 C 9,5 C 11,3 km/h (2 Bft) 100,00 %
14.05.2016 01:59 11,3 C 97 % 999,4 hPa 0,0 l/m 7,2 km/h (2 Bft) SW 228 0 min 0,000 mm 0,0 UV-I 0 W/m 10,8 C 10,8 C 9,7 km/h (2 Bft) 100,00 %
14.05.2016 02:00 11,3 C 97 % 999,4 hPa 0,0 l/m 9,3 km/h (2 Bft) SW 223 0 min 0,000 mm 0,0 UV-I 0 W/m 10,8 C 9,4 C 14,5 km/h (3 Bft) 91,30 %
14.05.2016 02:01 11,3 C 97 % 999,4 hPa 0,0 l/m 7,2 km/h (2 Bft) W-SW 245 0 min 0,000 mm 0,0 UV-I 0 W/m 10,8 C 10,8 C 9,7 km/h (2 Bft) 100,00 %
14.05.2016 02:02 11,3 C 97 % 999,4 hPa 0,0 l/m 8,8 km/h (2 Bft) W 260 0 min 0,000 mm 0,0 UV-I 0 W/m 10,8 C 9,7 C 12,9 km/h (3 Bft) 100,00 %
14.05.2016 02:03 11,3 C 97 % 999,4 hPa 0,0 l/m 6,4 km/h (2 Bft) W-SW 246 0 min 0,000 mm 0,0 UV-I 0 W/m 10,8 C 11,3 C 9,7 km/h (2 Bft) 100,00 %
14.05.2016 02:04 11,3 C 97 % 999,4 hPa 0,0 l/m 6,8 km/h (2 Bft) W-SW 252 0 min 0,000 mm 0,0 UV-I 0 W/m 10,8 C 11,0 C 11,3 km/h (2 Bft) 100,00 %
14.05.2016 02:05 11,3 C 97 % 999,4 hPa 0,0 l/m 9,8 km/h (2 Bft) SW 218 0 min 0,000 mm 0,0 UV-I 0 W/m 10,8 C 9,1 C 12,9 km/h (3 Bft) 100,00 %
14.05.2016 02:06 11,4 C 97 % 999,4 hPa 0,0 l/m 6,0 km/h (2 Bft) W-SW 244 0 min 0,000 mm 0,0 UV-I 0 W/m 10,9 C 11,4 C 11,3 km/h (2 Bft) 100,00 %
14.05.2016 02:07 11,4 C 97 % 999,4 hPa 0,0 l/m 7,3 km/h (2 Bft) SW 229 0 min 0,000 mm 0,0 UV-I 0 W/m 10,9 C 10,8 C 9,7 km/h (2 Bft) 100,00 %
14.05.2016 02:08 11,4 C 97 % 999,4 hPa 0,0 l/m 7,8 km/h (2 Bft) SW 222 0 min 0,000 mm 0,0 UV-I 0 W/m 10,9 C 10,5 C 11,3 km/h (2 Bft) 100,00 %
14.05.2016 02:09 11,4 C 97 % 999,4 hPa 0,0 l/m 6,9 km/h (2 Bft) SW 218 0 min 0,000 mm 0,0 UV-I 0 W/m 10,9 C 11,1 C 9,7 km/h (2 Bft) 100,00 %
14.05.2016 02:10 11,4 C 97 % 999,4 hPa 0,0 l/m 8,4 km/h (2 Bft) W-SW 238 0 min 0,000 mm 0,0 UV-I 0 W/m 10,9 C 10,1 C 14,5 km/h (3 Bft) 100,00 %
14.05.2016 02:11 11,4 C 97 % 999,4 hPa 0,0 l/m 9,1 km/h (2 Bft) W 259 0 min 0,000 mm 0,0 UV-I 0 W/m 10,9 C 9,6 C 11,3 km/h (2 Bft) 100,00 %
14.05.2016 02:12 11,4 C 97 % 999,4 hPa 0,0 l/m 7,4 km/h (2 Bft) SW 223 0 min 0,000 mm 0,0 UV-I 0 W/m 10,9 C 10,7 C 9,7 km/h (2 Bft) 100,00 %
14.05.2016 02:13 11,4 C 97 % 999,4 hPa 0,0 l/m 7,9 km/h (2 Bft) SW 227 0 min 0,000 mm 0,0 UV-I 0 W/m 10,9 C 10,4 C 11,3 km/h (2 Bft) 100,00 %
14.05.2016 02:14 11,4 C 97 % 999,4 hPa 0,0 l/m 8,1 km/h (2 Bft) SW 224 0 min 0,000 mm 0,0 UV-I 0 W/m 10,9 C 10,3 C 12,9 km/h (3 Bft) 100,00 %
14.05.2016 02:15 11,4 C 97 % 999,4 hPa 0,0 l/m 8,4 km/h (2 Bft) SW 236 0 min 0,000 mm 0,0 UV-I 0 W/m 10,9 C 10,1 C 11,3 km/h (2 Bft) 95,65 %
14.05.2016 02:16 11,4 C 97 % 999,4 hPa 0,0 l/m 8,0 km/h (2 Bft) W-SW 241 0 min 0,000 mm 0,0 UV-I 0 W/m 10,9 C 10,3 C 9,7 km/h (2 Bft) 100,00 %
14.05.2016 02:17 11,4 C 97 % 999,4 hPa 0,0 l/m 8,8 km/h (2 Bft) SW 236 0 min 0,000 mm 0,0 UV-I 0 W/m 10,9 C 9,8 C 12,9 km/h (3 Bft) 100,00 %
14.05.2016 02:18 11,4 C 97 % 999,4 hPa 0,0 l/m 10,1 km/h (2 Bft) SW 220 0 min 0,000 mm 0,0 UV-I 0 W/m 10,9 C 9,1 C 14,5 km/h (3 Bft) 100,00 %
14.05.2016 02:19 11,4 C 97 % 999,4 hPa 0,0 l/m 9,5 km/h (2 Bft) SW 223 0 min 0,000 mm 0,0 UV-I 0 W/m 10,9 C 9,4 C 12,9 km/h (3 Bft) 100,00 %
14.05.2016 02:20 11,4 C 97 % 999,4 hPa 0,0 l/m 10,6 km/h (2 Bft) W-SW 241 0 min 0,000 mm 0,0 UV-I 0 W/m 10,9 C 8,8 C 12,9 km/h (3 Bft) 100,00 %
14.05.2016 02:21 11,4 C 97 % 999,5 hPa 0,0 l/m 11,6 km/h (2 Bft) SW 230 0 min 0,000 mm 0,0 UV-I 0 W/m 10,9 C 8,3 C 14,5 km/h (3 Bft) 96,15 %
14.05.2016 02:22 11,4 C 97 % 999,4 hPa 0,0 l/m 11,3 km/h (2 Bft) SW 233 0 min 0,000 mm 0,0 UV-I 0 W/m 10,9 C 8,5 C 12,9 km/h (3 Bft) 100,00 %
14.05.2016 02:23 11,4 C 97 % 999,4 hPa 0,0 l/m 7,9 km/h (2 Bft) SW 235 0 min 0,000 mm 0,0 UV-I 0 W/m 10,9 C 10,4 C 9,7 km/h (2 Bft) 100,00 %
14.05.2016 02:24 11,4 C 97 % 999,4 hPa 0,0 l/m 10,5 km/h (2 Bft) SW 215 0 min 0,000 mm 0,0 UV-I 0 W/m 10,9 C 8,9 C 14,5 km/h (3 Bft) 100,00 %
14.05.2016 02:25 11,4 C 97 % 999,4 hPa 0,0 l/m 10,4 km/h (2 Bft) W-SW 246 0 min 0,000 mm 0,0 UV-I 0 W/m 10,9 C 8,9 C 14,5 km/h (3 Bft) 100,00 %
14.05.2016 02:26 11,5 C 97 % 999,4 hPa 0,0 l/m 10,9 km/h (2 Bft) SW 234 0 min 0,000 mm 0,0 UV-I 0 W/m 11,0 C 8,8 C 16,1 km/h (3 Bft) 100,00 %
14.05.2016 02:27 11,5 C 97 % 999,4 hPa 0,0 l/m 7,9 km/h (2 Bft) SW 223 0 min 0,000 mm 0,0 UV-I 0 W/m 11,0 C 10,5 C 9,7 km/h (2 Bft) 100,00 %
14.05.2016 02:28 11,5 C 97 % 999,4 hPa 0,0 l/m 10,8 km/h (2 Bft) SW 232 0 min 0,000 mm 0,0 UV-I 0 W/m 11,0 C 8,8 C 17,7 km/h (3 Bft) 100,00 %
14.05.2016 02:29 11,5 C 97 % 999,4 hPa 0,0 l/m 10,9 km/h (2 Bft) W-SW 240 0 min 0,000 mm 0,0 UV-I 0 W/m 11,0 C 8,8 C 16,1 km/h (3 Bft) 100,00 %
14.05.2016 02:30 11,5 C 97 % 999,4 hPa 0,0 l/m 9,6 km/h (2 Bft) W-SW 248 0 min 0,000 mm 0,0 UV-I 0 W/m 11,0 C 9,5 C 12,9 km/h (3 Bft) 95,65 %
14.05.2016 02:31 11,5 C 97 % 999,4 hPa 0,0 l/m 12,6 km/h (3 Bft) W-SW 250 0 min 0,000 mm 0,0 UV-I 0 W/m 11,0 C 8,0 C 16,1 km/h (3 Bft) 94,44 %
14.05.2016 02:32 11,5 C 97 % 999,4 hPa 0,0 l/m 11,3 km/h (2 Bft) SW 217 0 min 0,000 mm 0,0 UV-I 0 W/m 11,0 C 8,6 C 16,1 km/h (3 Bft) 96,15 %
14.05.2016 02:33 11,5 C 97 % 999,5 hPa 0,0 l/m 12,3 km/h (3 Bft) W-SW 254 0 min 0,000 mm 0,0 UV-I 0 W/m 11,0 C 8,1 C 14,5 km/h (3 Bft) 100,00 %
14.05.2016 02:34 11,5 C 97 % 999,5 hPa 0,0 l/m 11,3 km/h (2 Bft) W-SW 248 0 min 0,000 mm 0,0 UV-I 0 W/m 11,0 C 8,6 C 14,5 km/h (3 Bft) 96,15 %
14.05.2016 02:35 11,5 C 97 % 999,4 hPa 0,0 l/m 10,6 km/h (2 Bft) W-SW 246 0 min 0,000 mm 0,0 UV-I 0 W/m 11,0 C 8,9 C 12,9 km/h (3 Bft) 100,00 %
14.05.2016 02:36 11,5 C 97 % 999,5 hPa 0,0 l/m 9,7 km/h (2 Bft) SW 221 0 min 0,000 mm 0,0 UV-I 0 W/m 11,0 C 9,4 C 16,1 km/h (3 Bft) 100,00 %
14.05.2016 02:37 11,6 C 97 % 999,4 hPa 0,0 l/m 9,2 km/h (2 Bft) W-SW 246 0 min 0,000 mm 0,0 UV-I 0 W/m 11,1 C 9,8 C 14,5 km/h (3 Bft) 100,00 %
14.05.2016 02:38 11,6 C 97 % 999,5 hPa 0,0 l/m 9,7 km/h (2 Bft) SW 219 0 min 0,000 mm 0,0 UV-I 0 W/m 11,1 C 9,5 C 12,9 km/h (3 Bft) 100,00 %
14.05.2016 02:39 11,6 C 97 % 999,4 hPa 0,0 l/m 8,8 km/h (2 Bft) W-SW 246 0 min 0,000 mm 0,0 UV-I 0 W/m 11,1 C 10,0 C 14,5 km/h (3 Bft) 100,00 %
14.05.2016 02:40 11,6 C 97 % 999,4 hPa 0,0 l/m 9,2 km/h (2 Bft) SW 231 0 min 0,000 mm 0,0 UV-I 0 W/m 11,1 C 9,8 C 12,9 km/h (3 Bft) 96,55 %
14.05.2016 02:41 11,6 C 97 % 999,4 hPa 0,0 l/m 9,9 km/h (2 Bft) SW 232 0 min 0,000 mm 0,0 UV-I 0 W/m 11,1 C 9,4 C 14,5 km/h (3 Bft) 95,83 %
14.05.2016 02:42 11,6 C 97 % 999,5 hPa 0,0 l/m 9,9 km/h (2 Bft) SW 229 0 min 0,000 mm 0,0 UV-I 0 W/m 11,1 C 9,4 C 14,5 km/h (3 Bft) 100,00 %
14.05.2016 02:43 11,6 C 97 % 999,5 hPa 0,0 l/m 7,1 km/h (2 Bft) W-SW 249 0 min 0,000 mm 0,0 UV-I 0 W/m 11,1 C 11,1 C 9,7 km/h (2 Bft) 100,00 %
14.05.2016 02:44 11,6 C 97 % 999,5 hPa 0,0 l/m 11,5 km/h (2 Bft) SW 229 0 min 0,000 mm 0,0 UV-I 0 W/m 11,1 C 8,6 C 16,1 km/h (3 Bft) 100,00 %
14.05.2016 02:45 11,6 C 97 % 999,4 hPa 0,0 l/m 6,4 km/h (2 Bft) SW 232 0 min 0,000 mm 0,0 UV-I 0 W/m 11,1 C 11,6 C 9,7 km/h (2 Bft) 100,00 %
14.05.2016 02:46 11,6 C 97 % 999,5 hPa 0,0 l/m 8,7 km/h (2 Bft) W-SW 250 0 min 0,000 mm 0,0 UV-I 0 W/m 11,1 C 10,1 C 11,3 km/h (2 Bft) 91,67 %
14.05.2016 02:47 11,6 C 97 % 999,5 hPa 0,2 l/m 9,0 km/h (2 Bft) W-SW 254 0 min 0,000 mm 0,0 UV-I 0 W/m 11,1 C 9,9 C 14,5 km/h (3 Bft) 96,55 %
14.05.2016 02:48 11,6 C 97 % 999,4 hPa 0,0 l/m 11,6 km/h (2 Bft) W-SW 242 0 min 0,000 mm 0,0 UV-I 0 W/m 11,1 C 8,5 C 19,3 km/h (3 Bft) 100,00 %
14.05.2016 02:49 11,6 C 97 % 999,5 hPa 0,0 l/m 11,7 km/h (2 Bft) W-SW 240 0 min 0,000 mm 0,0 UV-I 0 W/m 11,1 C 8,5 C 16,1 km/h (3 Bft) 100,00 %
14.05.2016 02:50 11,6 C 97 % 999,5 hPa 0,0 l/m 10,7 km/h (2 Bft) W-SW 255 0 min 0,000 mm 0,0 UV-I 0 W/m 11,1 C 9,0 C 16,1 km/h (3 Bft) 93,33 %
14.05.2016 02:51 11,6 C 97 % 999,5 hPa 0,0 l/m 10,5 km/h (2 Bft) W-SW 242 0 min 0,000 mm 0,0 UV-I 0 W/m 11,1 C 9,1 C 14,5 km/h (3 Bft) 100,00 %
14.05.2016 02:52 11,6 C 97 % 999,5 hPa 0,0 l/m 10,9 km/h (2 Bft) W 264 0 min 0,000 mm 0,0 UV-I 0 W/m 11,1 C 8,9 C 16,1 km/h (3 Bft) 100,00 %
14.05.2016 02:53 11,6 C 97 % 999,5 hPa 0,0 l/m 11,3 km/h (2 Bft) S-SW 204 0 min 0,000 mm 0,0 UV-I 0 W/m 11,1 C 8,7 C 16,1 km/h (3 Bft) 100,00 %
14.05.2016 02:54 11,6 C 97 % 999,5 hPa 0,0 l/m 8,9 km/h (2 Bft) W-SW 251 0 min 0,000 mm 0,0 UV-I 0 W/m 11,1 C 10,0 C 14,5 km/h (3 Bft) 100,00 %
14.05.2016 02:55 11,6 C 97 % 999,5 hPa 0,0 l/m 10,1 km/h (2 Bft) SW 228 0 min 0,000 mm 0,0 UV-I 0 W/m 11,1 C 9,3 C 12,9 km/h (3 Bft) 100,00 %
14.05.2016 02:56 11,6 C 97 % 999,5 hPa 0,0 l/m 8,3 km/h (2 Bft) W-SW 238 0 min 0,000 mm 0,0 UV-I 0 W/m 11,1 C 10,3 C 12,9 km/h (3 Bft) 100,00 %
14.05.2016 02:57 11,6 C 97 % 999,5 hPa 0,0 l/m 8,6 km/h (2 Bft) W-SW 250 0 min 0,000 mm 0,0 UV-I 0 W/m 11,1 C 10,2 C 11,3 km/h (2 Bft) 100,00 %
14.05.2016 02:58 11,6 C 97 % 999,5 hPa 0,0 l/m 7,4 km/h (2 Bft) W-NW 286 0 min 0,000 mm 0,0 UV-I 0 W/m 11,1 C 10,9 C 11,3 km/h (2 Bft) 100,00 %
14.05.2016 02:59 11,6 C 97 % 999,5 hPa 0,0 l/m 8,0 km/h (2 Bft) W-SW 250 0 min 0,000 mm 0,0 UV-I 0 W/m 11,1 C 10,5 C 14,5 km/h (3 Bft) 95,65 %
14.05.2016 03:00 11,6 C 97 % 999,5 hPa 0,0 l/m 11,3 km/h (2 Bft) W-SW 240 0 min 0,000 mm 0,0 UV-I 0 W/m 11,1 C 8,7 C 16,1 km/h (3 Bft) 96,30 %
14.05.2016 03:01 11,6 C 97 % 999,5 hPa 0,0 l/m 9,6 km/h (2 Bft) W-SW 256 0 min 0,000 mm 0,0 UV-I 0 W/m 11,1 C 9,6 C 11,3 km/h (2 Bft) 100,00 %
14.05.2016 03:02 11,6 C 97 % 999,5 hPa 0,0 l/m 8,4 km/h (2 Bft) W-SW 250 0 min 0,000 mm 0,0 UV-I 0 W/m 11,1 C 10,3 C 11,3 km/h (2 Bft) 96,15 %
14.05.2016 03:03 11,6 C 97 % 999,6 hPa 0,0 l/m 7,1 km/h (2 Bft) W 262 0 min 0,000 mm 0,0 UV-I 0 W/m 11,1 C 11,1 C 11,3 km/h (2 Bft) 100,00 %
14.05.2016 03:04 11,6 C 97 % 999,5 hPa 0,0 l/m 6,1 km/h (2 Bft) W-SW 250 0 min 0,000 mm 0,0 UV-I 0 W/m 11,1 C 11,6 C 11,3 km/h (2 Bft) 96,15 %
14.05.2016 03:05 11,6 C 97 % 999,5 hPa 0,0 l/m 9,9 km/h (2 Bft) SW 219 0 min 0,000 mm 0,0 UV-I 0 W/m 11,1 C 9,4 C 14,5 km/h (3 Bft) 100,00 %
14.05.2016 03:06 11,6 C 97 % 999,5 hPa 0,0 l/m 9,1 km/h (2 Bft) W-SW 254 0 min 0,000 mm 0,0 UV-I 0 W/m 11,1 C 9,9 C 12,9 km/h (3 Bft) 96,15 %
14.05.2016 03:07 11,6 C 97 % 999,5 hPa 0,0 l/m 6,4 km/h (2 Bft) W-SW 255 0 min 0,000 mm 0,0 UV-I 0 W/m 11,1 C 11,6 C 11,3 km/h (2 Bft) 100,00 %
14.05.2016 03:08 11,6 C 97 % 999,5 hPa 0,0 l/m 9,1 km/h (2 Bft) W-SW 247 0 min 0,000 mm 0,0 UV-I 0 W/m 11,1 C 9,9 C 14,5 km/h (3 Bft) 85,71 %
14.05.2016 03:09 11,6 C 97 % 999,5 hPa 0,0 l/m 9,3 km/h (2 Bft) W-SW 238 0 min 0,000 mm 0,0 UV-I 0 W/m 11,1 C 9,8 C 12,9 km/h (3 Bft) 97,44 %
14.05.2016 03:10 11,6 C 97 % 999,5 hPa 0,0 l/m 11,6 km/h (2 Bft) W-SW 238 0 min 0,000 mm 0,0 UV-I 0 W/m 11,1 C 8,5 C 14,5 km/h (3 Bft) 100,00 %
14.05.2016 03:11 11,6 C 97 % 999,5 hPa 0,0 l/m 10,7 km/h (2 Bft) W-SW 258 0 min 0,000 mm 0,0 UV-I 0 W/m 11,1 C 9,0 C 14,5 km/h (3 Bft) 96,30 %
14.05.2016 03:12 11,7 C 97 % 999,5 hPa 0,0 l/m 8,9 km/h (2 Bft) SW 224 0 min 0,000 mm 0,0 UV-I 0 W/m 11,2 C 10,1 C 11,3 km/h (2 Bft) 100,00 %
14.05.2016 03:13 11,7 C 97 % 999,5 hPa 0,0 l/m 10,9 km/h (2 Bft) W 261 0 min 0,000 mm 0,0 UV-I 0 W/m 11,2 C 9,0 C 16,1 km/h (3 Bft) 96,30 %
14.05.2016 03:14 11,7 C 97 % 999,5 hPa 0,0 l/m 13,4 km/h (3 Bft) W-SW 246 0 min 0,000 mm 0,0 UV-I 0 W/m 11,2 C 7,8 C 17,7 km/h (3 Bft) 100,00 %
14.05.2016 03:15 11,7 C 97 % 999,5 hPa 0,0 l/m 9,9 km/h (2 Bft) SW 229 0 min 0,000 mm 0,0 UV-I 0 W/m 11,2 C 9,5 C 12,9 km/h (3 Bft) 96,30 %
14.05.2016 03:16 11,7 C 97 % 999,5 hPa 0,0 l/m 10,1 km/h (2 Bft) W 263 0 min 0,000 mm 0,0 UV-I 0 W/m 11,2 C 9,4 C 14,5 km/h (3 Bft) 95,65 %
14.05.2016 03:17 11,7 C 97 % 999,6 hPa 0,2 l/m 10,8 km/h (2 Bft) SW 225 0 min 0,000 mm 0,0 UV-I 0 W/m 11,2 C 9,1 C 14,5 km/h (3 Bft) 100,00 %
14.05.2016 03:18 11,7 C 97 % 999,6 hPa 0,0 l/m 9,3 km/h (2 Bft) W-SW 248 0 min 0,000 mm 0,0 UV-I 0 W/m 11,2 C 9,9 C 11,3 km/h (2 Bft) 96,15 %
14.05.2016 03:19 11,7 C 97 % 999,6 hPa 0,0 l/m 8,0 km/h (2 Bft) SW 232 0 min 0,000 mm 0,0 UV-I 0 W/m 11,2 C 10,6 C 12,9 km/h (3 Bft) 100,00 %
14.05.2016 03:20 11,7 C 97 % 999,6 hPa 0,0 l/m 11,8 km/h (2 Bft) SW 226 0 min 0,000 mm 0,0 UV-I 0 W/m 11,2 C 8,6 C 16,1 km/h (3 Bft) 96,15 %
14.05.2016 03:21 11,7 C 97 % 999,6 hPa 0,0 l/m 10,2 km/h (2 Bft) SW 227 0 min 0,000 mm 0,0 UV-I 0 W/m 11,2 C 9,4 C 16,1 km/h (3 Bft) 100,00 %
14.05.2016 03:22 11,7 C 97 % 999,6 hPa 0,0 l/m 8,2 km/h (2 Bft) W-SW 244 0 min 0,000 mm 0,0 UV-I 0 W/m 11,2 C 10,5 C 11,3 km/h (2 Bft) 93,33 %
14.05.2016 03:23 11,7 C 97 % 999,6 hPa 0,0 l/m 11,1 km/h (2 Bft) W 268 0 min 0,000 mm 0,0 UV-I 0 W/m 11,2 C 8,9 C 14,5 km/h (3 Bft) 100,00 %
14.05.2016 03:24 11,7 C 97 % 999,6 hPa 0,0 l/m 10,5 km/h (2 Bft) SW 235 0 min 0,000 mm 0,0 UV-I 0 W/m 11,2 C 9,2 C 12,9 km/h (3 Bft) 96,55 %
14.05.2016 03:25 11,7 C 97 % 999,6 hPa 0,0 l/m 6,4 km/h (2 Bft) SW 230 0 min 0,000 mm 0,0 UV-I 0 W/m 11,2 C 11,7 C 9,7 km/h (2 Bft) 100,00 %
14.05.2016 03:26 11,7 C 97 % 999,6 hPa 0,0 l/m 10,5 km/h (2 Bft) SW 222 0 min 0,000 mm 0,0 UV-I 0 W/m 11,2 C 9,2 C 12,9 km/h (3 Bft) 96,43 %
14.05.2016 03:27 11,7 C 97 % 999,6 hPa 0,0 l/m 8,3 km/h (2 Bft) W-SW 244 0 min 0,000 mm 0,0 UV-I 0 W/m 11,2 C 10,5 C 12,9 km/h (3 Bft) 95,65 %
14.05.2016 03:28 11,7 C 97 % 999,6 hPa 0,0 l/m 5,7 km/h (1 Bft) W-SW 258 0 min 0,000 mm 0,0 UV-I 0 W/m 11,2 C 11,7 C 8,0 km/h (2 Bft) 100,00 %
14.05.2016 03:29 11,7 C 97 % 999,6 hPa 0,0 l/m 6,6 km/h (2 Bft) W-SW 254 0 min 0,000 mm 0,0 UV-I 0 W/m 11,2 C 11,6 C 11,3 km/h (2 Bft) 95,65 %
14.05.2016 03:30 11,7 C 97 % 999,6 hPa 0,0 l/m 6,8 km/h (2 Bft) W 281 0 min 0,000 mm 0,0 UV-I 0 W/m 11,2 C 11,4 C 11,3 km/h (2 Bft) 95,83 %
14.05.2016 03:31 11,7 C 97 % 999,7 hPa 0,0 l/m 6,7 km/h (2 Bft) W-SW 240 0 min 0,000 mm 0,0 UV-I 0 W/m 11,2 C 11,5 C 9,7 km/h (2 Bft) 95,65 %
14.05.2016 03:32 11,7 C 97 % 999,7 hPa 0,0 l/m 8,2 km/h (2 Bft) W-SW 240 0 min 0,000 mm 0,0 UV-I 0 W/m 11,2 C 10,5 C 12,9 km/h (3 Bft) 100,00 %
14.05.2016 03:33 11,7 C 97 % 999,6 hPa 0,0 l/m 9,7 km/h (2 Bft) SW 229 0 min 0,000 mm 0,0 UV-I 0 W/m 11,2 C 9,6 C 12,9 km/h (3 Bft) 92,31 %
14.05.2016 03:34 11,7 C 97 % 999,7 hPa 0,0 l/m 6,3 km/h (2 Bft) W-SW 240 0 min 0,000 mm 0,0 UV-I 0 W/m 11,2 C 11,7 C 8,0 km/h (2 Bft) 100,00 %
14.05.2016 03:35 11,7 C 97 % 999,8 hPa 0,2 l/m 7,8 km/h (2 Bft) W-SW 252 0 min 0,000 mm 0,0 UV-I 0 W/m 11,2 C 10,8 C 11,3 km/h (2 Bft) 96,43 %
14.05.2016 03:36 11,7 C 97 % 999,7 hPa 0,0 l/m 6,3 km/h (2 Bft) W-SW 252 0 min 0,000 mm 0,0 UV-I 0 W/m 11,2 C 11,7 C 8,0 km/h (2 Bft) 100,00 %
14.05.2016 03:37 11,7 C 97 % 999,8 hPa 0,0 l/m 8,0 km/h (2 Bft) W-SW 250 0 min 0,000 mm 0,0 UV-I 0 W/m 11,2 C 10,6 C 12,9 km/h (3 Bft) 100,00 %
14.05.2016 03:38 11,7 C 97 % 999,8 hPa 0,0 l/m 5,4 km/h (1 Bft) W-SW 243 0 min 0,000 mm 0,0 UV-I 0 W/m 11,2 C 11,7 C 6,4 km/h (2 Bft) 100,00 %
14.05.2016 03:39 11,7 C 97 % 999,8 hPa 0,0 l/m 6,6 km/h (2 Bft) W-SW 248 0 min 0,000 mm 0,0 UV-I 0 W/m 11,2 C 11,6 C 11,3 km/h (2 Bft) 96,55 %
14.05.2016 03:40 11,7 C 97 % 999,8 hPa 0,0 l/m 5,5 km/h (1 Bft) W 261 0 min 0,000 mm 0,0 UV-I 0 W/m 11,2 C 11,7 C 8,0 km/h (2 Bft) 100,00 %
14.05.2016 03:41 11,7 C 97 % 999,8 hPa 0,0 l/m 6,7 km/h (2 Bft) SW 231 0 min 0,000 mm 0,0 UV-I 0 W/m 11,2 C 11,5 C 12,9 km/h (3 Bft) 100,00 %
14.05.2016 03:42 11,7 C 97 % 999,8 hPa 0,0 l/m 6,0 km/h (2 Bft) SW 234 0 min 0,000 mm 0,0 UV-I 0 W/m 11,2 C 11,7 C 8,0 km/h (2 Bft) 100,00 %
14.05.2016 03:43 11,7 C 97 % 999,8 hPa 0,0 l/m 5,4 km/h (1 Bft) W-SW 252 0 min 0,000 mm 0,0 UV-I 0 W/m 11,2 C 11,7 C 8,0 km/h (2 Bft) 95,65 %
14.05.2016 03:44 11,7 C 97 % 999,8 hPa 0,0 l/m 7,2 km/h (2 Bft) W-SW 254 0 min 0,000 mm 0,0 UV-I 0 W/m 11,2 C 11,2 C 11,3 km/h (2 Bft) 100,00 %
14.05.2016 03:45 11,7 C 97 % 999,9 hPa 0,0 l/m 9,1 km/h (2 Bft) W-SW 249 0 min 0,000 mm 0,0 UV-I 0 W/m 11,2 C 10,0 C 11,3 km/h (2 Bft) 94,74 %
14.05.2016 03:46 11,7 C 97 % 999,9 hPa 0,0 l/m 6,4 km/h (2 Bft) W-SW 247 0 min 0,000 mm 0,0 UV-I 0 W/m 11,2 C 11,7 C 8,0 km/h (2 Bft) 100,00 %
14.05.2016 03:47 11,7 C 97 % 999,9 hPa 0,0 l/m 7,2 km/h (2 Bft) W-SW 249 0 min 0,000 mm 0,0 UV-I 0 W/m 11,2 C 11,2 C 11,3 km/h (2 Bft) 100,00 %
14.05.2016 03:48 11,7 C 97 % 999,9 hPa 0,0 l/m 6,8 km/h (2 Bft) W-SW 247 0 min 0,000 mm 0,0 UV-I 0 W/m 11,2 C 11,4 C 9,7 km/h (2 Bft) 100,00 %
14.05.2016 03:49 11,7 C 97 % 999,9 hPa 0,0 l/m 4,8 km/h (1 Bft) W 271 0 min 0,000 mm 0,0 UV-I 0 W/m 11,2 C 11,7 C 6,4 km/h (2 Bft) 100,00 %
14.05.2016 03:50 11,7 C 97 % 999,9 hPa 0,0 l/m 5,0 km/h (1 Bft) W-SW 244 0 min 0,000 mm 0,0 UV-I 0 W/m 11,2 C 11,7 C 6,4 km/h (2 Bft) 100,00 %
14.05.2016 03:51 11,7 C 97 % 999,9 hPa 0,0 l/m 6,0 km/h (2 Bft) W-SW 240 0 min 0,000 mm 0,0 UV-I 0 W/m 11,2 C 11,7 C 9,7 km/h (2 Bft) 100,00 %
14.05.2016 03:52 11,7 C 97 % 999,9 hPa 0,0 l/m 5,9 km/h (2 Bft) W-SW 255 0 min 0,000 mm 0,0 UV-I 0 W/m 11,2 C 11,7 C 11,3 km/h (2 Bft) 100,00 %
14.05.2016 03:53 11,7 C 97 % 999,9 hPa 0,0 l/m 9,8 km/h (2 Bft) W-SW 240 0 min 0,000 mm 0,0 UV-I 0 W/m 11,2 C 9,6 C 12,9 km/h (3 Bft) 100,00 %
14.05.2016 03:54 11,7 C 97 % 999,9 hPa 0,0 l/m 10,0 km/h (2 Bft) W-SW 254 0 min 0,000 mm 0,0 UV-I 0 W/m 11,2 C 9,5 C 12,9 km/h (3 Bft) 100,00 %
14.05.2016 03:55 11,7 C 97 % 999,9 hPa 0,0 l/m 8,2 km/h (2 Bft) W-SW 251 0 min 0,000 mm 0,0 UV-I 0 W/m 11,2 C 10,5 C 11,3 km/h (2 Bft) 100,00 %
14.05.2016 03:56 11,7 C 97 % 999,9 hPa 0,0 l/m 8,2 km/h (2 Bft) W-SW 256 0 min 0,000 mm 0,0 UV-I 0 W/m 11,2 C 10,5 C 12,9 km/h (3 Bft) 100,00 %
14.05.2016 03:57 11,7 C 97 % 999,9 hPa 0,0 l/m 7,8 km/h (2 Bft) W-SW 245 0 min 0,000 mm 0,0 UV-I 0 W/m 11,2 C 10,8 C 11,3 km/h (2 Bft) 100,00 %
14.05.2016 03:58 11,7 C 97 % 999,9 hPa 0,0 l/m 6,4 km/h (2 Bft) W-SW 240 0 min 0,000 mm 0,0 UV-I 0 W/m 11,2 C 11,7 C 9,7 km/h (2 Bft) 100,00 %
14.05.2016 03:59 11,7 C 97 % 1000,0 hPa 0,0 l/m 6,7 km/h (2 Bft) W-SW 243 0 min 0,000 mm 0,0 UV-I 0 W/m 11,2 C 11,5 C 8,0 km/h (2 Bft) 100,00 %
14.05.2016 04:00 11,7 C 97 % 999,9 hPa 0,0 l/m 10,3 km/h (2 Bft) W-SW 244 0 min 0,000 mm 0,0 UV-I 0 W/m 11,2 C 9,3 C 14,5 km/h (3 Bft) 100,00 %
14.05.2016 04:03 11,7 C 97 % 1000,0 hPa 0,2 l/m 9,5 km/h (2 Bft) W-SW 245 0 min 0,000 mm 0,0 UV-I 0 W/m 11,2 C 9,7 C 14,5 km/h (3 Bft) 100,00 %
14.05.2016 04:04 11,7 C 97 % 1000,0 hPa 0,0 l/m 6,9 km/h (2 Bft) W-SW 241 0 min 0,000 mm 0,0 UV-I 0 W/m 11,2 C 11,4 C 8,0 km/h (2 Bft) 100,00 %
14.05.2016 04:05 11,7 C 97 % 999,9 hPa 0,0 l/m 9,5 km/h (2 Bft) W-SW 242 0 min 0,000 mm 0,0 UV-I 0 W/m 11,2 C 9,7 C 11,3 km/h (2 Bft) 100,00 %
14.05.2016 04:06 11,7 C 97 % 999,9 hPa 0,2 l/m 6,4 km/h (2 Bft) SW 235 0 min 0,000 mm 0,0 UV-I 0 W/m 11,2 C 11,7 C 9,7 km/h (2 Bft) 100,00 %
14.05.2016 04:07 11,7 C 97 % 999,9 hPa 0,0 l/m 6,8 km/h (2 Bft) SW 236 0 min 0,000 mm 0,0 UV-I 0 W/m 11,2 C 11,4 C 11,3 km/h (2 Bft) 95,65 %
14.05.2016 04:08 11,7 C 97 % 999,9 hPa 0,0 l/m 7,7 km/h (2 Bft) SW 231 0 min 0,000 mm 0,0 UV-I 0 W/m 11,2 C 10,8 C 12,9 km/h (3 Bft) 100,00 %
14.05.2016 04:09 11,7 C 97 % 1000,0 hPa 0,0 l/m 8,8 km/h (2 Bft) W-SW 249 0 min 0,000 mm 0,0 UV-I 0 W/m 11,2 C 10,1 C 11,3 km/h (2 Bft) 100,00 %
14.05.2016 04:10 11,7 C 97 % 1000,0 hPa 0,0 l/m 7,4 km/h (2 Bft) W-SW 240 0 min 0,000 mm 0,0 UV-I 0 W/m 11,2 C 11,0 C 12,9 km/h (3 Bft) 100,00 %
14.05.2016 04:11 11,7 C 97 % 1000,0 hPa 0,0 l/m 8,1 km/h (2 Bft) W-SW 252 0 min 0,000 mm 0,0 UV-I 0 W/m 11,2 C 10,6 C 9,7 km/h (2 Bft) 96,15 %
14.05.2016 04:12 11,7 C 97 % 1000,0 hPa 0,0 l/m 6,9 km/h (2 Bft) W-SW 238 0 min 0,000 mm 0,0 UV-I 0 W/m 11,2 C 11,4 C 11,3 km/h (2 Bft) 100,00 %
14.05.2016 04:13 11,7 C 97 % 1000,0 hPa 0,0 l/m 6,8 km/h (2 Bft) W 273 0 min 0,000 mm 0,0 UV-I 0 W/m 11,2 C 11,4 C 8,0 km/h (2 Bft) 100,00 %
14.05.2016 04:14 11,7 C 97 % 1000,0 hPa 0,0 l/m 8,1 km/h (2 Bft) SW 236 0 min 0,000 mm 0,0 UV-I 0 W/m 11,2 C 10,6 C 11,3 km/h (2 Bft) 100,00 %
14.05.2016 04:15 11,7 C 97 % 1000,0 hPa 0,0 l/m 8,8 km/h (2 Bft) W-SW 243 0 min 0,000 mm 0,0 UV-I 0 W/m 11,2 C 10,1 C 11,3 km/h (2 Bft) 100,00 %
14.05.2016 04:16 11,7 C 97 % 1000,0 hPa 0,0 l/m 9,1 km/h (2 Bft) SW 234 0 min 0,000 mm 0,0 UV-I 0 W/m 11,2 C 10,0 C 12,9 km/h (3 Bft) 100,00 %
14.05.2016 04:17 11,7 C 97 % 1000,0 hPa 0,0 l/m 9,7 km/h (2 Bft) W-SW 238 0 min 0,000 mm 0,0 UV-I 0 W/m 11,2 C 9,6 C 14,5 km/h (3 Bft) 100,00 %
14.05.2016 04:18 11,7 C 97 % 1000,0 hPa 0,0 l/m 8,8 km/h (2 Bft) SW 234 0 min 0,000 mm 0,0 UV-I 0 W/m 11,2 C 10,1 C 12,9 km/h (3 Bft) 100,00 %
14.05.2016 04:19 11,7 C 97 % 1000,0 hPa 0,0 l/m 8,0 km/h (2 Bft) W-SW 253 0 min 0,000 mm 0,0 UV-I 0 W/m 11,2 C 10,6 C 11,3 km/h (2 Bft) 99,51 %
14.05.2016 04:20 11,7 C 97 % 1000,0 hPa 0,0 l/m 9,1 km/h (2 Bft) SW 215 0 min 0,000 mm 0,0 UV-I 0 W/m 11,2 C 10,0 C 12,9 km/h (3 Bft) 100,00 %
14.05.2016 04:21 11,7 C 97 % 1000,0 hPa 0,0 l/m 8,5 km/h (2 Bft) W-SW 246 0 min 0,000 mm 0,0 UV-I 0 W/m 11,2 C 10,3 C 12,9 km/h (3 Bft) 100,00 %
14.05.2016 04:22 11,7 C 97 % 1000,0 hPa 0,0 l/m 10,3 km/h (2 Bft) W-SW 238 0 min 0,000 mm 0,0 UV-I 0 W/m 11,2 C 9,3 C 12,9 km/h (3 Bft) 100,00 %
14.05.2016 04:23 11,7 C 97 % 1000,0 hPa 0,0 l/m 7,6 km/h (2 Bft) W 266 0 min 0,000 mm 0,0 UV-I 0 W/m 11,2 C 10,9 C 9,7 km/h (2 Bft) 100,00 %
14.05.2016 04:24 11,7 C 97 % 1000,1 hPa 0,0 l/m 7,8 km/h (2 Bft) W-SW 249 0 min 0,000 mm 0,0 UV-I 0 W/m 11,2 C 10,8 C 11,3 km/h (2 Bft) 100,00 %
14.05.2016 04:25 11,7 C 97 % 1000,0 hPa 0,0 l/m 9,6 km/h (2 Bft) W-SW 238 0 min 0,000 mm 0,0 UV-I 0 W/m 11,2 C 9,7 C 12,9 km/h (3 Bft) 100,00 %
14.05.2016 04:26 11,7 C 97 % 1000,1 hPa 0,0 l/m 7,2 km/h (2 Bft) W-SW 252 0 min 0,000 mm 0,0 UV-I 0 W/m 11,2 C 11,2 C 11,3 km/h (2 Bft) 100,00 %
14.05.2016 04:27 11,7 C 97 % 1000,0 hPa 0,0 l/m 5,6 km/h (1 Bft) W-SW 250 0 min 0,000 mm 0,0 UV-I 0 W/m 11,2 C 11,7 C 8,0 km/h (2 Bft) 100,00 %
14.05.2016 04:28 11,7 C 97 % 1000,1 hPa 0,0 l/m 7,6 km/h (2 Bft) W 259 0 min 0,000 mm 0,0 UV-I 0 W/m 11,2 C 10,9 C 11,3 km/h (2 Bft) 100,00 %
14.05.2016 04:29 11,7 C 97 % 1000,0 hPa 0,0 l/m 6,8 km/h (2 Bft) W-SW 258 0 min 0,000 mm 0,0 UV-I 0 W/m 11,2 C 11,4 C 9,7 km/h (2 Bft) 100,00 %
14.05.2016 04:30 11,7 C 97 % 1000,1 hPa 0,0 l/m 6,6 km/h (2 Bft) W 263 0 min 0,000 mm 0,0 UV-I 0 W/m 11,2 C 11,6 C 9,7 km/h (2 Bft) 100,00 %
14.05.2016 04:31 11,7 C 97 % 1000,1 hPa 0,0 l/m 7,2 km/h (2 Bft) W-SW 246 0 min 0,000 mm 0,0 UV-I 0 W/m 11,2 C 11,2 C 9,7 km/h (2 Bft) 100,00 %
14.05.2016 04:32 11,7 C 97 % 1000,1 hPa 0,0 l/m 6,4 km/h (2 Bft) W 259 0 min 0,000 mm 0,0 UV-I 0 W/m 11,2 C 11,7 C 8,0 km/h (2 Bft) 100,00 %
14.05.2016 04:33 11,7 C 97 % 1000,1 hPa 0,0 l/m 8,3 km/h (2 Bft) W-SW 256 0 min 0,000 mm 0,0 UV-I 0 W/m 11,2 C 10,5 C 11,3 km/h (2 Bft) 100,00 %
14.05.2016 04:34 11,7 C 97 % 1000,1 hPa 0,0 l/m 7,8 km/h (2 Bft) W-SW 251 0 min 0,000 mm 0,0 UV-I 0 W/m 11,2 C 10,8 C 11,3 km/h (2 Bft) 100,00 %
14.05.2016 04:35 11,7 C 97 % 1000,1 hPa 0,0 l/m 7,8 km/h (2 Bft) W 260 0 min 0,000 mm 0,0 UV-I 0 W/m 11,2 C 10,8 C 11,3 km/h (2 Bft) 96,67 %
14.05.2016 04:36 11,7 C 97 % 1000,0 hPa 0,0 l/m 5,3 km/h (1 Bft) W-SW 251 0 min 0,000 mm 0,0 UV-I 0 W/m 11,2 C 11,7 C 9,7 km/h (2 Bft) 92,31 %
14.05.2016 04:37 11,7 C 97 % 1000,0 hPa 0,0 l/m 8,0 km/h (2 Bft) W-SW 248 0 min 0,000 mm 0,0 UV-I 0 W/m 11,2 C 10,6 C 12,9 km/h (3 Bft) 100,00 %
14.05.2016 04:38 11,7 C 97 % 1000,1 hPa 0,0 l/m 7,0 km/h (2 Bft) W-SW 242 0 min 0,000 mm 0,0 UV-I 0 W/m 11,2 C 11,3 C 9,7 km/h (2 Bft) 95,00 %
14.05.2016 04:39 11,7 C 97 % 1000,1 hPa 0,0 l/m 6,4 km/h (2 Bft) SW 235 0 min 0,000 mm 0,0 UV-I 0 W/m 11,2 C 11,7 C 8,0 km/h (2 Bft) 100,00 %
14.05.2016 04:40 11,7 C 97 % 1000,0 hPa 0,0 l/m 10,4 km/h (2 Bft) W-SW 258 0 min 0,000 mm 0,0 UV-I 0 W/m 11,2 C 9,3 C 14,5 km/h (3 Bft) 100,00 %
14.05.2016 04:41 11,7 C 97 % 1000,0 hPa 0,0 l/m 8,6 km/h (2 Bft) SW 232 0 min 0,000 mm 0,0 UV-I 0 W/m 11,2 C 10,3 C 9,7 km/h (2 Bft) 100,00 %
14.05.2016 04:42 11,7 C 97 % 1000,0 hPa 0,0 l/m 7,7 km/h (2 Bft) W-SW 243 0 min 0,000 mm 0,0 UV-I 0 W/m 11,2 C 10,8 C 11,3 km/h (2 Bft) 100,00 %
14.05.2016 04:43 11,7 C 97 % 1000,0 hPa 0,0 l/m 8,4 km/h (2 Bft) SW 235 0 min 0,000 mm 0,0 UV-I 0 W/m 11,2 C 10,4 C 12,9 km/h (3 Bft) 100,00 %
14.05.2016 04:44 11,7 C 97 % 1000,0 hPa 0,0 l/m 8,6 km/h (2 Bft) W-SW 239 0 min 0,000 mm 0,0 UV-I 0 W/m 11,2 C 10,3 C 12,9 km/h (3 Bft) 96,30 %
14.05.2016 04:45 11,7 C 97 % 1000,0 hPa 0,0 l/m 9,2 km/h (2 Bft) W-SW 237 0 min 0,000 mm 0,0 UV-I 0 W/m 11,2 C 9,9 C 12,9 km/h (3 Bft) 96,88 %
14.05.2016 04:46 11,7 C 97 % 1000,0 hPa 0,0 l/m 11,0 km/h (2 Bft) SW 232 0 min 0,000 mm 0,0 UV-I 0 W/m 11,2 C 9,0 C 16,1 km/h (3 Bft) 100,00 %
14.05.2016 04:47 11,7 C 97 % 1000,0 hPa 0,0 l/m 11,3 km/h (2 Bft) W-SW 238 0 min 0,000 mm 0,0 UV-I 0 W/m 11,2 C 8,8 C 14,5 km/h (3 Bft) 100,00 %
14.05.2016 04:48 11,7 C 97 % 1000,0 hPa 0,0 l/m 9,5 km/h (2 Bft) W 259 0 min 0,000 mm 0,0 UV-I 0 W/m 11,2 C 9,7 C 12,9 km/h (3 Bft) 100,00 %
14.05.2016 04:49 11,7 C 97 % 1000,0 hPa 0,0 l/m 12,5 km/h (3 Bft) W-SW 238 0 min 0,000 mm 0,0 UV-I 0 W/m 11,2 C 8,2 C 16,1 km/h (3 Bft) 100,00 %
14.05.2016 04:50 11,7 C 97 % 1000,0 hPa 0,0 l/m 9,2 km/h (2 Bft) SW 218 0 min 0,000 mm 0,0 UV-I 0 W/m 11,2 C 9,9 C 12,9 km/h (3 Bft) 96,30 %
14.05.2016 04:51 11,7 C 97 % 1000,0 hPa 0,0 l/m 9,7 km/h (2 Bft) SW 233 0 min 0,000 mm 0,0 UV-I 0 W/m 11,2 C 9,6 C 16,1 km/h (3 Bft) 100,00 %
14.05.2016 04:52 11,7 C 97 % 1000,0 hPa 0,0 l/m 8,3 km/h (2 Bft) SW 232 0 min 0,000 mm 0,0 UV-I 0 W/m 11,2 C 10,5 C 12,9 km/h (3 Bft) 100,00 %
14.05.2016 04:53 11,7 C 97 % 1000,0 hPa 0,0 l/m 10,7 km/h (2 Bft) W 272 0 min 0,000 mm 0,0 UV-I 0 W/m 11,2 C 9,1 C 19,3 km/h (3 Bft) 100,00 %
14.05.2016 04:54 11,7 C 97 % 1000,0 hPa 0,0 l/m 11,3 km/h (2 Bft) W-SW 257 0 min 0,000 mm 0,0 UV-I 0 W/m 11,2 C 8,8 C 14,5 km/h (3 Bft) 100,00 %
14.05.2016 04:55 11,7 C 97 % 1000,1 hPa 0,0 l/m 9,6 km/h (2 Bft) W-SW 240 0 min 0,000 mm 0,0 UV-I 0 W/m 11,2 C 9,7 C 12,9 km/h (3 Bft) 100,00 %
14.05.2016 04:56 11,7 C 97 % 1000,1 hPa 0,0 l/m 7,5 km/h (2 Bft) SW 221 0 min 0,000 mm 0,0 UV-I 0 W/m 11,2 C 11,0 C 11,3 km/h (2 Bft) 100,00 %
14.05.2016 04:57 11,7 C 97 % 1000,1 hPa 0,0 l/m 10,5 km/h (2 Bft) W-SW 255 0 min 0,000 mm 0,0 UV-I 0 W/m 11,2 C 9,2 C 14,5 km/h (3 Bft) 100,00 %
14.05.2016 04:58 11,7 C 97 % 1000,1 hPa 0,0 l/m 11,1 km/h (2 Bft) W 263 0 min 0,000 mm 0,0 UV-I 0 W/m 11,2 C 8,9 C 16,1 km/h (3 Bft) 100,00 %
14.05.2016 04:59 11,7 C 97 % 1000,1 hPa 0,0 l/m 10,2 km/h (2 Bft) W-SW 246 0 min 0,000 mm 0,0 UV-I 0 W/m 11,2 C 9,4 C 14,5 km/h (3 Bft) 100,00 %
14.05.2016 05:00 11,7 C 97 % 1000,1 hPa 0,0 l/m 9,7 km/h (2 Bft) W-SW 250 0 min 0,000 mm 0,0 UV-I 0 W/m 11,2 C 9,6 C 14,5 km/h (3 Bft) 92,31 %
14.05.2016 05:02 11,7 C 97 % 1000,1 hPa 0,0 l/m 13,3 km/h (3 Bft) W-SW 258 0 min 0,000 mm 0,0 UV-I 0 W/m 11,2 C 7,9 C 17,7 km/h (3 Bft) 97,73 %
14.05.2016 05:03 11,7 C 97 % 1000,1 hPa 0,0 l/m 9,1 km/h (2 Bft) W-SW 240 0 min 0,000 mm 0,0 UV-I 0 W/m 11,2 C 10,0 C 16,1 km/h (3 Bft) 100,00 %
14.05.2016 05:04 11,7 C 97 % 1000,1 hPa 0,0 l/m 10,9 km/h (2 Bft) SW 233 0 min 0,000 mm 0,0 UV-I 0 W/m 11,2 C 9,0 C 17,7 km/h (3 Bft) 96,55 %
14.05.2016 05:05 11,7 C 97 % 1000,1 hPa 0,0 l/m 13,8 km/h (3 Bft) W 263 0 min 0,000 mm 0,0 UV-I 0 W/m 11,2 C 7,7 C 16,1 km/h (3 Bft) 100,00 %
14.05.2016 05:06 11,7 C 97 % 1000,1 hPa 0,0 l/m 11,9 km/h (2 Bft) W-SW 251 0 min 0,000 mm 0,0 UV-I 0 W/m 11,2 C 8,5 C 14,5 km/h (3 Bft) 95,65 %
14.05.2016 05:07 11,7 C 97 % 1000,1 hPa 0,0 l/m 9,7 km/h (2 Bft) W-NW 286 0 min 0,000 mm 0,0 UV-I 0 W/m 11,2 C 9,6 C 12,9 km/h (3 Bft) 100,00 %
14.05.2016 05:08 11,7 C 97 % 1000,1 hPa 0,0 l/m 10,9 km/h (2 Bft) SW 217 0 min 0,000 mm 0,0 UV-I 0 W/m 11,2 C 9,0 C 14,5 km/h (3 Bft) 95,65 %
14.05.2016 05:09 11,7 C 97 % 1000,1 hPa 0,0 l/m 11,3 km/h (2 Bft) W-SW 244 0 min 0,000 mm 0,0 UV-I 0 W/m 11,2 C 8,8 C 12,9 km/h (3 Bft) 100,00 %
14.05.2016 05:10 11,7 C 97 % 1000,1 hPa 0,0 l/m 13,9 km/h (3 Bft) W 259 0 min 0,000 mm 0,0 UV-I 0 W/m 11,2 C 7,6 C 16,1 km/h (3 Bft) 96,15 %
14.05.2016 05:11 11,7 C 97 % 1000,1 hPa 0,0 l/m 14,8 km/h (3 Bft) W-SW 257 0 min 0,000 mm 0,0 UV-I 0 W/m 11,2 C 7,3 C 19,3 km/h (3 Bft) 95,83 %
14.05.2016 05:12 11,7 C 97 % 1000,1 hPa 0,0 l/m 11,9 km/h (2 Bft) W-SW 250 0 min 0,000 mm 0,0 UV-I 0 W/m 11,2 C 8,5 C 16,1 km/h (3 Bft) 95,65 %
14.05.2016 05:13 11,7 C 97 % 1000,1 hPa 0,0 l/m 11,3 km/h (2 Bft) W-SW 240 0 min 0,000 mm 0,0 UV-I 0 W/m 11,2 C 8,8 C 16,1 km/h (3 Bft) 96,67 %
14.05.2016 05:14 11,7 C 97 % 1000,1 hPa 0,0 l/m 11,1 km/h (2 Bft) W-SW 252 0 min 0,000 mm 0,0 UV-I 0 W/m 11,2 C 8,9 C 14,5 km/h (3 Bft) 100,00 %
14.05.2016 05:15 11,7 C 97 % 1000,1 hPa 0,0 l/m 13,3 km/h (3 Bft) W 268 0 min 0,000 mm 0,0 UV-I 0 W/m 11,2 C 7,9 C 16,1 km/h (3 Bft) 96,30 %
14.05.2016 05:16 11,7 C 97 % 1000,1 hPa 0,0 l/m 13,3 km/h (3 Bft) W 267 0 min 0,000 mm 0,0 UV-I 0 W/m 11,2 C 7,9 C 16,1 km/h (3 Bft) 96,88 %
14.05.2016 05:17 11,7 C 97 % 1000,1 hPa 0,0 l/m 12,0 km/h (2 Bft) W 266 0 min 0,000 mm 0,0 UV-I 0 W/m 11,2 C 8,5 C 14,5 km/h (3 Bft) 100,00 %
14.05.2016 05:18 11,7 C 97 % 1000,1 hPa 0,0 l/m 9,0 km/h (2 Bft) W 277 0 min 0,000 mm 0,0 UV-I 0 W/m 11,2 C 10,0 C 14,5 km/h (3 Bft) 100,00 %
14.05.2016 05:19 11,7 C 97 % 1000,1 hPa 0,0 l/m 12,1 km/h (2 Bft) W-SW 256 0 min 0,000 mm 0,0 UV-I 0 W/m 11,2 C 8,4 C 17,7 km/h (3 Bft) 96,15 %
14.05.2016 05:20 11,7 C 97 % 1000,1 hPa 0,0 l/m 11,0 km/h (2 Bft) W 261 0 min 0,000 mm 0,0 UV-I 0 W/m 11,2 C 9,0 C 14,5 km/h (3 Bft) 98,80 %
14.05.2016 05:21 11,7 C 97 % 1000,2 hPa 0,0 l/m 12,6 km/h (3 Bft) W-SW 238 0 min 0,000 mm 0,0 UV-I 0 W/m 11,2 C 8,2 C 16,1 km/h (3 Bft) 93,18 %
14.05.2016 05:22 11,7 C 97 % 1000,2 hPa 0,0 l/m 14,1 km/h (3 Bft) W-SW 252 0 min 0,000 mm 0,0 UV-I 0 W/m 11,2 C 7,6 C 19,3 km/h (3 Bft) 95,83 %
14.05.2016 05:23 11,7 C 97 % 1000,2 hPa 0,0 l/m 11,5 km/h (2 Bft) SW 229 0 min 0,000 mm 0,0 UV-I 0 W/m 11,2 C 8,7 C 14,5 km/h (3 Bft) 96,15 %
14.05.2016 05:24 11,7 C 97 % 1000,2 hPa 0,0 l/m 13,5 km/h (3 Bft) W-SW 238 0 min 0,000 mm 0,0 UV-I 0 W/m 11,2 C 7,8 C 17,7 km/h (3 Bft) 80,00 %
14.05.2016 05:25 11,7 C 96 % 1000,2 hPa 0,0 l/m 8,4 km/h (2 Bft) W-SW 256 0 min 0,000 mm 0,0 UV-I 0 W/m 11,1 C 10,4 C 11,3 km/h (2 Bft) 96,67 %
14.05.2016 05:26 11,7 C 96 % 1000,2 hPa 0,0 l/m 9,9 km/h (2 Bft) SW 229 0 min 0,000 mm 0,0 UV-I 0 W/m 11,1 C 9,5 C 12,9 km/h (3 Bft) 96,30 %
14.05.2016 05:27 11,7 C 96 % 1000,2 hPa 0,0 l/m 11,5 km/h (2 Bft) SW 236 0 min 0,000 mm 0,0 UV-I 0 W/m 11,1 C 8,7 C 14,5 km/h (3 Bft) 96,15 %
14.05.2016 05:28 11,7 C 96 % 1000,2 hPa 0,0 l/m 12,0 km/h (2 Bft) W-SW 250 0 min 0,000 mm 0,0 UV-I 0 W/m 11,1 C 8,5 C 16,1 km/h (3 Bft) 100,00 %
14.05.2016 05:29 11,7 C 96 % 1000,2 hPa 0,0 l/m 13,0 km/h (3 Bft) W-SW 249 0 min 0,000 mm 0,0 UV-I 0 W/m 11,1 C 8,0 C 19,3 km/h (3 Bft) 95,65 %
14.05.2016 05:30 11,7 C 96 % 1000,2 hPa 0,0 l/m 13,0 km/h (3 Bft) W 262 0 min 0,000 mm 0,0 UV-I 0 W/m 11,1 C 8,0 C 17,7 km/h (3 Bft) 100,00 %
14.05.2016 05:31 11,7 C 96 % 1000,2 hPa 0,0 l/m 13,9 km/h (3 Bft) W-SW 246 0 min 0,000 mm 0,0 UV-I 0 W/m 11,1 C 7,6 C 16,1 km/h (3 Bft) 96,15 %
14.05.2016 05:32 11,7 C 96 % 1000,2 hPa 0,0 l/m 11,5 km/h (2 Bft) W-SW 245 0 min 0,000 mm 0,0 UV-I 0 W/m 11,1 C 8,7 C 14,5 km/h (3 Bft) 100,00 %
14.05.2016 05:33 11,7 C 96 % 1000,2 hPa 0,0 l/m 16,0 km/h (3 Bft) W-SW 247 0 min 0,000 mm 0,0 UV-I 0 W/m 11,1 C 6,8 C 20,9 km/h (4 Bft) 92,86 %
14.05.2016 05:34 11,7 C 96 % 1000,2 hPa 0,0 l/m 13,3 km/h (3 Bft) W-SW 256 0 min 0,000 mm 0,0 UV-I 3 W/m 11,1 C 7,9 C 16,1 km/h (3 Bft) 96,30 %
14.05.2016 05:35 11,7 C 96 % 1000,3 hPa 0,0 l/m 14,3 km/h (3 Bft) W-SW 240 0 min 0,000 mm 0,0 UV-I 5 W/m 11,1 C 7,5 C 20,9 km/h (4 Bft) 96,15 %
14.05.2016 05:36 11,7 C 96 % 1000,3 hPa 0,0 l/m 13,0 km/h (3 Bft) SW 234 0 min 0,000 mm 0,0 UV-I 5 W/m 11,1 C 8,0 C 16,1 km/h (3 Bft) 96,30 %
14.05.2016 05:37 11,7 C 96 % 1000,3 hPa 0,0 l/m 10,5 km/h (2 Bft) W 260 0 min 0,000 mm 0,0 UV-I 1 W/m 11,1 C 9,2 C 19,3 km/h (3 Bft) 100,00 %
14.05.2016 05:38 11,7 C 96 % 1000,3 hPa 0,0 l/m 13,0 km/h (3 Bft) W 263 0 min 0,000 mm 0,0 UV-I 5 W/m 11,1 C 8,0 C 19,3 km/h (3 Bft) 100,00 %
14.05.2016 05:39 11,7 C 96 % 1000,3 hPa 0,0 l/m 10,9 km/h (2 Bft) W-SW 246 0 min 0,000 mm 0,0 UV-I 5 W/m 11,1 C 9,0 C 17,7 km/h (3 Bft) 95,83 %
14.05.2016 05:40 11,7 C 96 % 1000,3 hPa 0,0 l/m 9,8 km/h (2 Bft) W-SW 258 0 min 0,000 mm 0,0 UV-I 6 W/m 11,1 C 9,6 C 12,9 km/h (3 Bft) 96,15 %
14.05.2016 05:41 11,7 C 96 % 1000,3 hPa 0,0 l/m 10,8 km/h (2 Bft) W 263 0 min 0,000 mm 0,0 UV-I 7 W/m 11,1 C 9,1 C 16,1 km/h (3 Bft) 100,00 %
14.05.2016 05:42 11,7 C 96 % 1000,3 hPa 0,0 l/m 11,7 km/h (2 Bft) W-SW 246 0 min 0,000 mm 0,0 UV-I 7 W/m 11,1 C 8,6 C 17,7 km/h (3 Bft) 100,00 %
14.05.2016 05:43 11,7 C 96 % 1000,3 hPa 0,0 l/m 10,9 km/h (2 Bft) W 275 0 min 0,000 mm 0,0 UV-I 9 W/m 11,1 C 9,0 C 16,1 km/h (3 Bft) 100,00 %
14.05.2016 05:44 11,7 C 96 % 1000,3 hPa 0,0 l/m 12,1 km/h (2 Bft) W-SW 252 0 min 0,000 mm 0,0 UV-I 9 W/m 11,1 C 8,4 C 16,1 km/h (3 Bft) 100,00 %
14.05.2016 05:45 11,7 C 96 % 1000,3 hPa 0,0 l/m 11,7 km/h (2 Bft) W-SW 252 0 min 0,000 mm 0,0 UV-I 10 W/m 11,1 C 8,6 C 16,1 km/h (3 Bft) 100,00 %
14.05.2016 05:46 11,7 C 96 % 1000,3 hPa 0,0 l/m 13,0 km/h (3 Bft) W-SW 252 0 min 0,000 mm 0,0 UV-I 11 W/m 11,1 C 8,0 C 17,7 km/h (3 Bft) 100,00 %
14.05.2016 05:47 11,7 C 96 % 1000,3 hPa 0,0 l/m 12,1 km/h (2 Bft) SW 229 0 min 0,000 mm 0,0 UV-I 12 W/m 11,1 C 8,4 C 14,5 km/h (3 Bft) 93,33 %
14.05.2016 05:48 11,7 C 96 % 1000,3 hPa 0,0 l/m 11,2 km/h (2 Bft) W-SW 256 0 min 0,000 mm 0,0 UV-I 12 W/m 11,1 C 8,9 C 16,1 km/h (3 Bft) 100,00 %
14.05.2016 05:49 11,7 C 96 % 1000,3 hPa 0,0 l/m 11,1 km/h (2 Bft) W 260 0 min 0,000 mm 0,0 UV-I 12 W/m 11,1 C 8,9 C 17,7 km/h (3 Bft) 91,67 %
14.05.2016 05:50 11,7 C 96 % 1000,3 hPa 0,0 l/m 12,6 km/h (3 Bft) W-SW 248 0 min 0,000 mm 0,0 UV-I 13 W/m 11,1 C 8,2 C 16,1 km/h (3 Bft) 96,15 %
14.05.2016 05:51 11,7 C 96 % 1000,4 hPa 0,0 l/m 12,9 km/h (3 Bft) W-SW 257 0 min 0,000 mm 0,0 UV-I 14 W/m 11,1 C 8,1 C 17,7 km/h (3 Bft) 100,00 %
14.05.2016 05:52 11,7 C 96 % 1000,3 hPa 0,0 l/m 10,0 km/h (2 Bft) S-SW 212 0 min 0,000 mm 0,0 UV-I 14 W/m 11,1 C 9,5 C 12,9 km/h (3 Bft) 100,00 %
14.05.2016 05:53 11,7 C 96 % 1000,3 hPa 0,0 l/m 13,5 km/h (3 Bft) W-SW 242 0 min 0,000 mm 0,0 UV-I 14 W/m 11,1 C 7,8 C 17,7 km/h (3 Bft) 100,00 %
14.05.2016 05:54 11,7 C 96 % 1000,4 hPa 0,0 l/m 11,7 km/h (2 Bft) SW 236 0 min 0,000 mm 0,0 UV-I 16 W/m 11,1 C 8,6 C 16,1 km/h (3 Bft) 100,00 %
14.05.2016 05:55 11,7 C 96 % 1000,4 hPa 0,0 l/m 7,4 km/h (2 Bft) W-SW 244 0 min 0,000 mm 0,0 UV-I 16 W/m 11,1 C 11,0 C 11,3 km/h (2 Bft) 98,34 %
14.05.2016 05:56 11,8 C 96 % 1000,3 hPa 0,0 l/m 8,2 km/h (2 Bft) W-SW 246 0 min 0,000 mm 0,0 UV-I 16 W/m 11,2 C 10,6 C 12,9 km/h (3 Bft) 100,00 %
14.05.2016 05:57 11,8 C 96 % 1000,4 hPa 0,0 l/m 7,6 km/h (2 Bft) W-SW 255 0 min 0,000 mm 0,0 UV-I 16 W/m 11,2 C 11,0 C 11,3 km/h (2 Bft) 100,00 %
14.05.2016 05:58 11,8 C 96 % 1000,4 hPa 0,0 l/m 7,3 km/h (2 Bft) SW 225 0 min 0,000 mm 0,0 UV-I 16 W/m 11,2 C 11,2 C 9,7 km/h (2 Bft) 96,15 %
14.05.2016 05:59 11,8 C 96 % 1000,4 hPa 0,0 l/m 9,7 km/h (2 Bft) W-SW 248 0 min 0,000 mm 0,0 UV-I 16 W/m 11,2 C 9,7 C 11,3 km/h (2 Bft) 100,00 %
14.05.2016 06:00 11,8 C 96 % 1000,4 hPa 0,0 l/m 7,3 km/h (2 Bft) W-SW 251 0 min 0,000 mm 0,0 UV-I 16 W/m 11,2 C 11,2 C 11,3 km/h (2 Bft) 96,30 %
14.05.2016 06:01 11,7 C 96 % 1000,4 hPa 0,0 l/m 10,5 km/h (2 Bft) W-SW 254 0 min 0,000 mm 0,0 UV-I 16 W/m 11,1 C 9,2 C 16,1 km/h (3 Bft) 100,00 %
14.05.2016 06:02 11,8 C 96 % 1000,4 hPa 0,0 l/m 6,4 km/h (2 Bft) W-SW 248 0 min 0,000 mm 0,0 UV-I 17 W/m 11,2 C 11,8 C 11,3 km/h (2 Bft) 100,00 %
14.05.2016 06:03 11,8 C 96 % 1000,4 hPa 0,0 l/m 8,6 km/h (2 Bft) W-SW 240 0 min 0,000 mm 0,0 UV-I 19 W/m 11,2 C 10,4 C 11,3 km/h (2 Bft) 100,00 %
14.05.2016 06:04 11,8 C 96 % 1000,4 hPa 0,0 l/m 6,6 km/h (2 Bft) W-SW 251 0 min 0,000 mm 0,0 UV-I 19 W/m 11,2 C 11,7 C 9,7 km/h (2 Bft) 93,33 %
14.05.2016 06:05 11,8 C 96 % 1000,4 hPa 0,0 l/m 8,0 km/h (2 Bft) W-SW 250 0 min 0,000 mm 0,0 UV-I 18 W/m 11,2 C 10,7 C 11,3 km/h (2 Bft) 100,00 %
14.05.2016 06:06 11,8 C 96 % 1000,4 hPa 0,0 l/m 10,2 km/h (2 Bft) W-SW 247 0 min 0,000 mm 0,0 UV-I 19 W/m 11,2 C 9,5 C 12,9 km/h (3 Bft) 96,30 %
14.05.2016 06:07 11,8 C 96 % 1000,4 hPa 0,0 l/m 7,4 km/h (2 Bft) SW 233 0 min 0,000 mm 0,0 UV-I 19 W/m 11,2 C 11,1 C 11,3 km/h (2 Bft) 100,00 %
14.05.2016 06:08 11,8 C 96 % 1000,4 hPa 0,0 l/m 9,3 km/h (2 Bft) W-SW 240 0 min 0,000 mm 0,0 UV-I 20 W/m 11,2 C 10,0 C 12,9 km/h (3 Bft) 100,00 %
14.05.2016 06:09 11,8 C 97 % 1000,5 hPa 0,0 l/m 9,9 km/h (2 Bft) W 263 0 min 0,000 mm 0,0 UV-I 21 W/m 11,3 C 9,6 C 14,5 km/h (3 Bft) 100,00 %
14.05.2016 06:10 11,8 C 97 % 1000,4 hPa 0,0 l/m 8,6 km/h (2 Bft) W-SW 249 0 min 0,000 mm 0,0 UV-I 21 W/m 11,3 C 10,4 C 11,3 km/h (2 Bft) 100,00 %
14.05.2016 06:11 11,8 C 97 % 1000,4 hPa 0,0 l/m 6,6 km/h (2 Bft) W-SW 257 0 min 0,000 mm 0,0 UV-I 21 W/m 11,3 C 11,7 C 9,7 km/h (2 Bft) 100,00 %
14.05.2016 06:12 11,8 C 97 % 1000,5 hPa 0,0 l/m 7,4 km/h (2 Bft) W-SW 246 0 min 0,000 mm 0,0 UV-I 21 W/m 11,3 C 11,1 C 11,3 km/h (2 Bft) 100,00 %
14.05.2016 06:13 11,8 C 97 % 1000,5 hPa 0,0 l/m 7,4 km/h (2 Bft) W-SW 248 0 min 0,000 mm 0,0 UV-I 21 W/m 11,3 C 11,1 C 9,7 km/h (2 Bft) 100,00 %
14.05.2016 06:14 11,8 C 97 % 1000,5 hPa 0,0 l/m 7,0 km/h (2 Bft) W-SW 252 0 min 0,000 mm 0,0 UV-I 22 W/m 11,3 C 11,4 C 11,3 km/h (2 Bft) 100,00 %
14.05.2016 06:15 11,8 C 97 % 1000,5 hPa 0,0 l/m 8,3 km/h (2 Bft) W-SW 239 0 min 0,000 mm 0,0 UV-I 23 W/m 11,3 C 10,6 C 14,5 km/h (3 Bft) 100,00 %
14.05.2016 06:16 11,8 C 97 % 1000,5 hPa 0,0 l/m 8,0 km/h (2 Bft) W-SW 251 0 min 0,000 mm 0,0 UV-I 23 W/m 11,3 C 10,7 C 11,3 km/h (2 Bft) 100,00 %
14.05.2016 06:17 11,8 C 97 % 1000,5 hPa 0,0 l/m 7,0 km/h (2 Bft) W-SW 239 0 min 0,000 mm 0,0 UV-I 23 W/m 11,3 C 11,4 C 9,7 km/h (2 Bft) 96,55 %
14.05.2016 06:18 11,8 C 97 % 1000,5 hPa 0,0 l/m 8,3 km/h (2 Bft) SW 223 0 min 0,000 mm 0,0 UV-I 24 W/m 11,3 C 10,6 C 9,7 km/h (2 Bft) 96,30 %
14.05.2016 06:19 11,8 C 97 % 1000,5 hPa 0,0 l/m 7,9 km/h (2 Bft) SW 232 0 min 0,000 mm 0,0 UV-I 25 W/m 11,3 C 10,8 C 9,7 km/h (2 Bft) 100,00 %
14.05.2016 06:20 11,8 C 97 % 1000,5 hPa 0,0 l/m 6,4 km/h (2 Bft) SW 214 0 min 0,000 mm 0,0 UV-I 25 W/m 11,3 C 11,8 C 8,0 km/h (2 Bft) 100,00 %
14.05.2016 06:21 11,8 C 97 % 1000,5 hPa 0,0 l/m 8,8 km/h (2 Bft) SW 236 0 min 0,000 mm 0,0 UV-I 24 W/m 11,3 C 10,3 C 12,9 km/h (3 Bft) 95,83 %
14.05.2016 06:22 11,8 C 97 % 1000,5 hPa 0,0 l/m 8,3 km/h (2 Bft) SW 232 0 min 0,000 mm 0,0 UV-I 22 W/m 11,3 C 10,6 C 12,9 km/h (3 Bft) 100,00 %
14.05.2016 06:23 11,8 C 97 % 1000,6 hPa 0,0 l/m 7,2 km/h (2 Bft) SW 229 0 min 0,000 mm 0,0 UV-I 19 W/m 11,3 C 11,3 C 9,7 km/h (2 Bft) 100,00 %
14.05.2016 06:24 11,8 C 97 % 1000,6 hPa 0,0 l/m 6,7 km/h (2 Bft) SW 232 0 min 0,000 mm 0,0 UV-I 18 W/m 11,3 C 11,6 C 11,3 km/h (2 Bft) 100,00 %
14.05.2016 06:25 11,8 C 97 % 1000,6 hPa 0,0 l/m 7,0 km/h (2 Bft) SW 221 0 min 0,000 mm 0,0 UV-I 18 W/m 11,3 C 11,4 C 12,9 km/h (3 Bft) 100,00 %
14.05.2016 06:26 11,8 C 97 % 1000,6 hPa 0,0 l/m 7,9 km/h (2 Bft) SW 215 0 min 0,000 mm 0,0 UV-I 16 W/m 11,3 C 10,8 C 11,3 km/h (2 Bft) 100,00 %
14.05.2016 06:27 11,8 C 97 % 1000,6 hPa 0,0 l/m 6,7 km/h (2 Bft) W-SW 253 0 min 0,000 mm 0,0 UV-I 17 W/m 11,3 C 11,6 C 11,3 km/h (2 Bft) 100,00 %
14.05.2016 06:28 11,8 C 97 % 1000,6 hPa 0,0 l/m 8,0 km/h (2 Bft) W-SW 247 0 min 0,000 mm 0,0 UV-I 18 W/m 11,3 C 10,7 C 12,9 km/h (3 Bft) 100,00 %
14.05.2016 06:29 11,8 C 97 % 1000,6 hPa 0,0 l/m 5,7 km/h (1 Bft) SW 231 0 min 0,000 mm 0,0 UV-I 19 W/m 11,3 C 11,8 C 6,4 km/h (2 Bft) 100,00 %
14.05.2016 06:30 11,8 C 97 % 1000,6 hPa 0,0 l/m 5,6 km/h (1 Bft) W-SW 240 0 min 0,000 mm 0,0 UV-I 20 W/m 11,3 C 11,8 C 6,4 km/h (2 Bft) 100,00 %
14.05.2016 06:31 11,8 C 97 % 1000,6 hPa 0,0 l/m 7,8 km/h (2 Bft) SW 227 0 min 0,000 mm 0,0 UV-I 21 W/m 11,3 C 10,9 C 11,3 km/h (2 Bft) 100,00 %
14.05.2016 06:32 11,8 C 97 % 1000,6 hPa 0,0 l/m 8,4 km/h (2 Bft) W-SW 237 0 min 0,000 mm 0,0 UV-I 21 W/m 11,3 C 10,5 C 11,3 km/h (2 Bft) 100,00 %
14.05.2016 06:33 11,8 C 97 % 1000,6 hPa 0,0 l/m 9,2 km/h (2 Bft) SW 227 0 min 0,000 mm 0,0 UV-I 21 W/m 11,3 C 10,0 C 12,9 km/h (3 Bft) 96,67 %
14.05.2016 06:34 11,8 C 97 % 1000,6 hPa 0,0 l/m 6,4 km/h (2 Bft) SW 215 0 min 0,000 mm 0,0 UV-I 21 W/m 11,3 C 11,8 C 8,0 km/h (2 Bft) 92,86 %
14.05.2016 06:35 11,8 C 97 % 1000,6 hPa 0,0 l/m 6,3 km/h (2 Bft) S-SW 213 0 min 0,000 mm 0,0 UV-I 23 W/m 11,3 C 11,8 C 9,7 km/h (2 Bft) 100,00 %
14.05.2016 06:36 11,8 C 97 % 1000,6 hPa 0,0 l/m 7,6 km/h (2 Bft) W-SW 245 0 min 0,000 mm 0,0 UV-I 24 W/m 11,3 C 11,0 C 9,7 km/h (2 Bft) 100,00 %
14.05.2016 06:37 11,8 C 97 % 1000,6 hPa 0,0 l/m 6,2 km/h (2 Bft) SW 219 0 min 0,000 mm 0,0 UV-I 25 W/m 11,3 C 11,8 C 9,7 km/h (2 Bft) 100,00 %
14.05.2016 06:38 11,9 C 97 % 1000,6 hPa 0,0 l/m 9,3 km/h (2 Bft) W-SW 256 0 min 0,000 mm 0,0 UV-I 25 W/m 11,4 C 10,1 C 12,9 km/h (3 Bft) 100,00 %
14.05.2016 06:39 11,9 C 97 % 1000,6 hPa 0,0 l/m 6,4 km/h (2 Bft) W-SW 239 0 min 0,000 mm 0,0 UV-I 25 W/m 11,4 C 11,9 C 8,0 km/h (2 Bft) 100,00 %
14.05.2016 06:40 11,9 C 97 % 1000,6 hPa 0,0 l/m 7,2 km/h (2 Bft) W 261 0 min 0,000 mm 0,0 UV-I 25 W/m 11,4 C 11,4 C 12,9 km/h (3 Bft) 100,00 %
14.05.2016 06:41 11,9 C 97 % 1000,7 hPa 0,0 l/m 7,4 km/h (2 Bft) W-SW 244 0 min 0,000 mm 0,0 UV-I 25 W/m 11,4 C 11,2 C 12,9 km/h (3 Bft) 100,00 %
14.05.2016 06:42 11,9 C 97 % 1000,7 hPa 0,0 l/m 7,6 km/h (2 Bft) SW 225 0 min 0,000 mm 0,0 UV-I 28 W/m 11,4 C 11,1 C 11,3 km/h (2 Bft) 96,15 %
14.05.2016 06:43 11,9 C 97 % 1000,6 hPa 0,0 l/m 8,6 km/h (2 Bft) W-SW 242 0 min 0,000 mm 0,0 UV-I 31 W/m 11,4 C 10,5 C 11,3 km/h (2 Bft) 100,00 %
14.05.2016 06:44 11,9 C 97 % 1000,6 hPa 0,0 l/m 8,2 km/h (2 Bft) SW 229 0 min 0,000 mm 0,0 UV-I 33 W/m 11,4 C 10,7 C 11,3 km/h (2 Bft) 100,00 %
14.05.2016 06:45 11,9 C 97 % 1000,6 hPa 0,0 l/m 8,3 km/h (2 Bft) SW 223 0 min 0,000 mm 0,0 UV-I 36 W/m 11,4 C 10,7 C 12,9 km/h (3 Bft) 100,00 %
14.05.2016 06:46 11,9 C 97 % 1000,6 hPa 0,0 l/m 9,7 km/h (2 Bft) SW 229 0 min 0,000 mm 0,0 UV-I 39 W/m 11,4 C 9,9 C 12,9 km/h (3 Bft) 91,67 %
14.05.2016 06:47 11,9 C 97 % 1000,6 hPa 0,0 l/m 9,1 km/h (2 Bft) W-SW 240 0 min 0,000 mm 0,0 UV-I 40 W/m 11,4 C 10,2 C 12,9 km/h (3 Bft) 96,15 %
14.05.2016 06:48 11,9 C 97 % 1000,6 hPa 0,0 l/m 7,6 km/h (2 Bft) SW 232 0 min 0,000 mm 0,0 UV-I 43 W/m 11,4 C 11,1 C 11,3 km/h (2 Bft) 100,00 %
14.05.2016 06:49 11,9 C 97 % 1000,6 hPa 0,0 l/m 7,7 km/h (2 Bft) SW 226 0 min 0,000 mm 0,0 UV-I 44 W/m 11,4 C 11,0 C 11,3 km/h (2 Bft) 95,65 %
14.05.2016 06:50 11,9 C 97 % 1000,6 hPa 0,0 l/m 9,5 km/h (2 Bft) SW 223 0 min 0,000 mm 0,0 UV-I 44 W/m 11,4 C 10,0 C 12,9 km/h (3 Bft) 100,00 %
14.05.2016 06:51 11,9 C 97 % 1000,6 hPa 0,0 l/m 9,2 km/h (2 Bft) W-SW 242 0 min 0,000 mm 0,0 UV-I 44 W/m 11,4 C 10,1 C 14,5 km/h (3 Bft) 95,65 %
14.05.2016 06:52 11,9 C 97 % 1000,6 hPa 0,0 l/m 10,6 km/h (2 Bft) SW 218 0 min 0,000 mm 0,0 UV-I 42 W/m 11,4 C 9,4 C 16,1 km/h (3 Bft) 100,00 %
14.05.2016 06:53 11,9 C 97 % 1000,6 hPa 0,0 l/m 8,2 km/h (2 Bft) SW 225 0 min 0,000 mm 0,0 UV-I 42 W/m 11,4 C 10,7 C 11,3 km/h (2 Bft) 100,00 %
14.05.2016 06:54 11,9 C 97 % 1000,6 hPa 0,0 l/m 9,0 km/h (2 Bft) SW 232 0 min 0,000 mm 0,0 UV-I 40 W/m 11,4 C 10,2 C 14,5 km/h (3 Bft) 100,00 %
14.05.2016 06:55 11,9 C 97 % 1000,7 hPa 0,0 l/m 8,0 km/h (2 Bft) SW 227 0 min 0,000 mm 0,0 UV-I 38 W/m 11,4 C 10,8 C 11,3 km/h (2 Bft) 100,00 %
14.05.2016 06:56 11,9 C 97 % 1000,7 hPa 0,0 l/m 7,9 km/h (2 Bft) W-SW 244 0 min 0,000 mm 0,0 UV-I 37 W/m 11,4 C 10,9 C 9,7 km/h (2 Bft) 100,00 %
14.05.2016 06:57 11,9 C 96 % 1000,7 hPa 0,0 l/m 9,8 km/h (2 Bft) W 261 0 min 0,000 mm 0,0 UV-I 37 W/m 11,3 C 9,8 C 12,9 km/h (3 Bft) 91,67 %
14.05.2016 06:58 11,9 C 96 % 1000,7 hPa 0,0 l/m 6,7 km/h (2 Bft) W-SW 254 0 min 0,000 mm 0,0 UV-I 37 W/m 11,3 C 11,7 C 9,7 km/h (2 Bft) 100,00 %
14.05.2016 06:59 12,0 C 96 % 1000,7 hPa 0,0 l/m 9,8 km/h (2 Bft) W-SW 253 0 min 0,000 mm 0,0 UV-I 37 W/m 11,4 C 9,9 C 14,5 km/h (3 Bft) 100,00 %
14.05.2016 07:00 12,0 C 96 % 1000,7 hPa 0,0 l/m 9,7 km/h (2 Bft) W-SW 253 0 min 0,025 mm 0,0 UV-I 37 W/m 11,4 C 10,0 C 12,9 km/h (3 Bft) 100,00 %
14.05.2016 07:01 12,0 C 96 % 1000,7 hPa 0,0 l/m 10,1 km/h (2 Bft) W-SW 253 0 min 0,000 mm 0,0 UV-I 38 W/m 11,4 C 9,8 C 12,9 km/h (3 Bft) 100,00 %
14.05.2016 07:02 12,0 C 96 % 1000,8 hPa 0,0 l/m 8,0 km/h (2 Bft) W-SW 244 0 min 0,000 mm 0,0 UV-I 39 W/m 11,4 C 11,0 C 12,9 km/h (3 Bft) 100,00 %
14.05.2016 07:03 12,0 C 96 % 1000,8 hPa 0,0 l/m 9,0 km/h (2 Bft) SW 222 0 min 0,000 mm 0,0 UV-I 39 W/m 11,4 C 10,4 C 12,9 km/h (3 Bft) 100,00 %
14.05.2016 07:04 12,0 C 96 % 1000,8 hPa 0,0 l/m 9,0 km/h (2 Bft) W-SW 238 0 min 0,000 mm 0,0 UV-I 39 W/m 11,4 C 10,4 C 14,5 km/h (3 Bft) 100,00 %
14.05.2016 07:05 12,0 C 96 % 1000,8 hPa 0,0 l/m 9,3 km/h (2 Bft) W-SW 250 0 min 0,000 mm 0,0 UV-I 39 W/m 11,4 C 10,2 C 12,9 km/h (3 Bft) 95,83 %
14.05.2016 07:06 12,0 C 96 % 1000,8 hPa 0,0 l/m 7,5 km/h (2 Bft) S-SW 207 0 min 0,000 mm 0,0 UV-I 40 W/m 11,4 C 11,3 C 11,3 km/h (2 Bft) 95,65 %
14.05.2016 07:07 12,0 C 96 % 1000,8 hPa 0,0 l/m 9,7 km/h (2 Bft) W-SW 239 0 min 0,000 mm 0,0 UV-I 41 W/m 11,4 C 10,0 C 14,5 km/h (3 Bft) 100,00 %
14.05.2016 07:08 12,0 C 96 % 1000,8 hPa 0,0 l/m 8,1 km/h (2 Bft) W-SW 242 0 min 0,000 mm 0,0 UV-I 44 W/m 11,4 C 10,9 C 11,3 km/h (2 Bft) 94,12 %
14.05.2016 07:09 12,0 C 97 % 1000,9 hPa 0,0 l/m 7,7 km/h (2 Bft) SW 225 0 min 0,000 mm 0,0 UV-I 46 W/m 11,5 C 11,1 C 11,3 km/h (2 Bft) 100,00 %
14.05.2016 07:10 12,1 C 96 % 1000,8 hPa 0,0 l/m 8,8 km/h (2 Bft) W-SW 241 0 min 0,000 mm 0,0 UV-I 47 W/m 11,5 C 10,6 C 11,3 km/h (2 Bft) 92,31 %
14.05.2016 07:11 12,0 C 97 % 1000,9 hPa 0,0 l/m 7,3 km/h (2 Bft) SW 221 0 min 0,000 mm 0,0 UV-I 49 W/m 11,5 C 11,4 C 12,9 km/h (3 Bft) 100,00 %
14.05.2016 07:12 12,1 C 97 % 1000,8 hPa 0,0 l/m 6,6 km/h (2 Bft) W-SW 252 0 min 0,000 mm 0,0 UV-I 49 W/m 11,6 C 12,0 C 9,7 km/h (2 Bft) 96,43 %
14.05.2016 07:13 12,1 C 97 % 1000,9 hPa 0,0 l/m 11,0 km/h (2 Bft) W-SW 238 0 min 0,000 mm 0,0 UV-I 48 W/m 11,6 C 9,4 C 17,7 km/h (3 Bft) 96,30 %
14.05.2016 07:14 12,1 C 97 % 1000,8 hPa 0,0 l/m 10,1 km/h (2 Bft) SW 234 0 min 0,000 mm 0,0 UV-I 46 W/m 11,6 C 9,9 C 14,5 km/h (3 Bft) 100,00 %
14.05.2016 07:15 12,1 C 97 % 1000,9 hPa 0,0 l/m 5,4 km/h (1 Bft) W-SW 255 0 min 0,000 mm 0,0 UV-I 46 W/m 11,6 C 12,1 C 6,4 km/h (2 Bft) 92,31 %
14.05.2016 07:16 12,1 C 97 % 1000,9 hPa 0,0 l/m 8,5 km/h (2 Bft) W-SW 251 0 min 0,000 mm 0,0 UV-I 42 W/m 11,6 C 10,8 C 11,3 km/h (2 Bft) 100,00 %
14.05.2016 07:17 12,1 C 97 % 1000,9 hPa 0,0 l/m 8,5 km/h (2 Bft) W-SW 248 0 min 0,000 mm 0,0 UV-I 40 W/m 11,6 C 10,8 C 12,9 km/h (3 Bft) 92,31 %
14.05.2016 07:18 12,1 C 97 % 1000,9 hPa 0,0 l/m 8,9 km/h (2 Bft) W-SW 255 0 min 0,000 mm 0,0 UV-I 43 W/m 11,6 C 10,5 C 12,9 km/h (3 Bft) 96,55 %
14.05.2016 07:19 12,1 C 97 % 1000,9 hPa 0,0 l/m 10,4 km/h (2 Bft) W-SW 252 0 min 0,000 mm 0,0 UV-I 45 W/m 11,6 C 9,7 C 14,5 km/h (3 Bft) 100,00 %
14.05.2016 07:20 12,1 C 97 % 1000,9 hPa 0,0 l/m 7,6 km/h (2 Bft) W-SW 258 0 min 0,000 mm 0,0 UV-I 47 W/m 11,6 C 11,3 C 11,3 km/h (2 Bft) 100,00 %
14.05.2016 07:21 12,1 C 97 % 1000,9 hPa 0,0 l/m 6,3 km/h (2 Bft) W 272 0 min 0,000 mm 0,0 UV-I 47 W/m 11,6 C 12,1 C 9,7 km/h (2 Bft) 96,15 %
14.05.2016 07:22 12,1 C 97 % 1001,0 hPa 0,0 l/m 9,7 km/h (2 Bft) W-SW 237 0 min 0,000 mm 0,0 UV-I 49 W/m 11,6 C 10,1 C 12,9 km/h (3 Bft) 93,94 %
14.05.2016 07:23 12,1 C 97 % 1001,0 hPa 0,0 l/m 7,6 km/h (2 Bft) W 262 0 min 0,000 mm 0,0 UV-I 49 W/m 11,6 C 11,3 C 12,9 km/h (3 Bft) 100,00 %
14.05.2016 07:24 12,1 C 97 % 1001,0 hPa 0,0 l/m 7,4 km/h (2 Bft) SW 230 0 min 0,000 mm 0,0 UV-I 48 W/m 11,6 C 11,4 C 12,9 km/h (3 Bft) 96,67 %
14.05.2016 07:25 12,1 C 97 % 1001,0 hPa 0,0 l/m 7,6 km/h (2 Bft) W-SW 238 0 min 0,000 mm 0,0 UV-I 47 W/m 11,6 C 11,3 C 9,7 km/h (2 Bft) 96,55 %
14.05.2016 07:26 12,1 C 97 % 1001,0 hPa 0,0 l/m 6,9 km/h (2 Bft) W 265 0 min 0,000 mm 0,0 UV-I 46 W/m 11,6 C 11,8 C 11,3 km/h (2 Bft) 98,41 %
14.05.2016 07:27 12,1 C 97 % 1001,0 hPa 0,0 l/m 4,8 km/h (1 Bft) SW 229 0 min 0,000 mm 0,0 UV-I 44 W/m 11,6 C 12,1 C 6,4 km/h (2 Bft) 97,73 %
14.05.2016 07:28 12,1 C 97 % 1001,0 hPa 0,0 l/m 6,5 km/h (2 Bft) W-SW 242 0 min 0,000 mm 0,0 UV-I 44 W/m 11,6 C 12,1 C 9,7 km/h (2 Bft) 100,00 %
14.05.2016 07:29 12,1 C 97 % 1001,0 hPa 0,0 l/m 7,7 km/h (2 Bft) W-SW 248 0 min 0,000 mm 0,0 UV-I 44 W/m 11,6 C 11,2 C 11,3 km/h (2 Bft) 91,30 %
14.05.2016 07:30 12,2 C 97 % 1001,0 hPa 0,0 l/m 8,0 km/h (2 Bft) W-SW 242 0 min 0,000 mm 0,0 UV-I 43 W/m 11,7 C 11,2 C 11,3 km/h (2 Bft) 100,00 %
14.05.2016 07:31 12,1 C 97 % 1001,0 hPa 0,0 l/m 7,2 km/h (2 Bft) W-SW 239 0 min 0,000 mm 0,0 UV-I 41 W/m 11,6 C 11,6 C 9,7 km/h (2 Bft) 95,65 %
14.05.2016 07:32 12,2 C 97 % 1001,0 hPa 0,0 l/m 6,2 km/h (2 Bft) W 269 0 min 0,000 mm 0,0 UV-I 38 W/m 11,7 C 12,2 C 9,7 km/h (2 Bft) 100,00 %
14.05.2016 07:33 12,2 C 97 % 1001,1 hPa 0,0 l/m 8,2 km/h (2 Bft) W 261 0 min 0,000 mm 0,0 UV-I 37 W/m 11,7 C 11,0 C 11,3 km/h (2 Bft) 94,12 %
14.05.2016 07:34 12,2 C 96 % 1001,1 hPa 0,0 l/m 7,0 km/h (2 Bft) W-SW 237 0 min 0,000 mm 0,0 UV-I 30 W/m 11,6 C 11,8 C 11,3 km/h (2 Bft) 100,00 %
14.05.2016 07:35 12,1 C 96 % 1001,1 hPa 0,0 l/m 8,9 km/h (2 Bft) W 268 0 min 0,000 mm 0,0 UV-I 27 W/m 11,5 C 10,5 C 11,3 km/h (2 Bft) 96,15 %
14.05.2016 07:36 12,1 C 96 % 1001,1 hPa 0,0 l/m 7,0 km/h (2 Bft) W-SW 242 0 min 0,000 mm 0,0 UV-I 26 W/m 11,5 C 11,7 C 11,3 km/h (2 Bft) 95,83 %
14.05.2016 07:37 12,1 C 96 % 1001,1 hPa 0,0 l/m 7,3 km/h (2 Bft) W-SW 238 0 min 0,000 mm 0,0 UV-I 24 W/m 11,5 C 11,5 C 11,3 km/h (2 Bft) 100,00 %
14.05.2016 07:38 12,1 C 96 % 1001,1 hPa 0,0 l/m 12,3 km/h (3 Bft) W-SW 242 0 min 0,000 mm 0,0 UV-I 21 W/m 11,5 C 8,8 C 16,1 km/h (3 Bft) 93,33 %
14.05.2016 07:39 12,1 C 96 % 1001,1 hPa 0,0 l/m 10,4 km/h (2 Bft) W-SW 242 0 min 0,000 mm 0,0 UV-I 21 W/m 11,5 C 9,7 C 12,9 km/h (3 Bft) 91,67 %
14.05.2016 07:40 12,2 C 96 % 1001,1 hPa 0,0 l/m 7,0 km/h (2 Bft) SW 234 0 min 0,000 mm 0,0 UV-I 21 W/m 11,6 C 11,8 C 14,5 km/h (3 Bft) 95,65 %
14.05.2016 07:41 12,1 C 96 % 1001,1 hPa 0,0 l/m 8,5 km/h (2 Bft) W-SW 252 0 min 0,000 mm 0,0 UV-I 20 W/m 11,5 C 10,8 C 11,3 km/h (2 Bft) 100,00 %
14.05.2016 07:42 12,1 C 96 % 1001,1 hPa 0,0 l/m 8,2 km/h (2 Bft) W-SW 255 0 min 0,000 mm 0,0 UV-I 19 W/m 11,5 C 10,9 C 12,9 km/h (3 Bft) 100,00 %
14.05.2016 07:43 12,1 C 96 % 1001,1 hPa 0,0 l/m 8,6 km/h (2 Bft) SW 223 0 min 0,000 mm 0,0 UV-I 19 W/m 11,5 C 10,7 C 12,9 km/h (3 Bft) 100,00 %
14.05.2016 07:44 12,1 C 96 % 1001,1 hPa 0,0 l/m 11,7 km/h (2 Bft) SW 229 0 min 0,000 mm 0,0 UV-I 19 W/m 11,5 C 9,1 C 14,5 km/h (3 Bft) 100,00 %
14.05.2016 07:45 12,1 C 96 % 1001,1 hPa 0,0 l/m 7,2 km/h (2 Bft) SW 214 0 min 0,000 mm 0,0 UV-I 19 W/m 11,5 C 11,6 C 12,9 km/h (3 Bft) 100,00 %
14.05.2016 07:46 12,1 C 96 % 1001,1 hPa 0,0 l/m 8,6 km/h (2 Bft) SW 233 0 min 0,000 mm 0,0 UV-I 19 W/m 11,5 C 10,7 C 12,9 km/h (3 Bft) 96,15 %
14.05.2016 07:47 12,1 C 96 % 1001,2 hPa 0,0 l/m 7,0 km/h (2 Bft) W-SW 240 0 min 0,000 mm 0,0 UV-I 19 W/m 11,5 C 11,7 C 9,7 km/h (2 Bft) 100,00 %
14.05.2016 07:48 12,1 C 96 % 1001,2 hPa 0,0 l/m 7,4 km/h (2 Bft) W-SW 243 0 min 0,000 mm 0,0 UV-I 19 W/m 11,5 C 11,4 C 11,3 km/h (2 Bft) 100,00 %
14.05.2016 07:49 12,1 C 96 % 1001,2 hPa 0,0 l/m 7,7 km/h (2 Bft) SW 234 0 min 0,000 mm 0,0 UV-I 18 W/m 11,5 C 11,2 C 11,3 km/h (2 Bft) 100,00 %
14.05.2016 07:50 12,1 C 96 % 1001,2 hPa 0,0 l/m 9,0 km/h (2 Bft) SW 221 0 min 0,000 mm 0,0 UV-I 18 W/m 11,5 C 10,5 C 12,9 km/h (3 Bft) 95,65 %
14.05.2016 07:51 12,1 C 96 % 1001,2 hPa 0,0 l/m 8,7 km/h (2 Bft) W-SW 242 0 min 0,000 mm 0,0 UV-I 16 W/m 11,5 C 10,6 C 12,9 km/h (3 Bft) 100,00 %
14.05.2016 07:52 12,1 C 96 % 1001,2 hPa 0,0 l/m 6,3 km/h (2 Bft) SW 231 0 min 0,000 mm 0,0 UV-I 16 W/m 11,5 C 12,1 C 11,3 km/h (2 Bft) 95,65 %
14.05.2016 07:53 12,1 C 96 % 1001,2 hPa 0,0 l/m 6,9 km/h (2 Bft) W-SW 251 0 min 0,000 mm 0,0 UV-I 16 W/m 11,5 C 11,8 C 9,7 km/h (2 Bft) 100,00 %
14.05.2016 07:54 12,1 C 96 % 1001,2 hPa 0,0 l/m 6,3 km/h (2 Bft) W-SW 242 0 min 0,000 mm 0,0 UV-I 16 W/m 11,5 C 12,1 C 11,3 km/h (2 Bft) 95,65 %
14.05.2016 07:55 12,1 C 96 % 1001,2 hPa 0,0 l/m 7,4 km/h (2 Bft) SW 230 0 min 0,000 mm 0,0 UV-I 16 W/m 11,5 C 11,4 C 12,9 km/h (3 Bft) 100,00 %
14.05.2016 07:56 12,1 C 96 % 1001,2 hPa 0,0 l/m 7,2 km/h (2 Bft) W-SW 250 0 min 0,000 mm 0,0 UV-I 18 W/m 11,5 C 11,6 C 11,3 km/h (2 Bft) 100,00 %
14.05.2016 07:57 12,1 C 96 % 1001,2 hPa 0,0 l/m 7,6 km/h (2 Bft) W-SW 249 0 min 0,000 mm 0,0 UV-I 18 W/m 11,5 C 11,3 C 12,9 km/h (3 Bft) 96,67 %
14.05.2016 07:58 12,1 C 96 % 1001,2 hPa 0,0 l/m 6,4 km/h (2 Bft) W-SW 244 0 min 0,000 mm 0,0 UV-I 19 W/m 11,5 C 12,1 C 9,7 km/h (2 Bft) 100,00 %
14.05.2016 07:59 12,1 C 96 % 1001,2 hPa 0,0 l/m 5,4 km/h (1 Bft) W-SW 240 0 min 0,000 mm 0,0 UV-I 20 W/m 11,5 C 12,1 C 8,0 km/h (2 Bft) 92,31 %
14.05.2016 08:00 12,1 C 96 % 1001,2 hPa 0,0 l/m 7,6 km/h (2 Bft) SW 224 0 min 0,026 mm 0,0 UV-I 21 W/m 11,5 C 11,3 C 9,7 km/h (2 Bft) 100,00 %
14.05.2016 08:02 12,1 C 96 % 1001,2 hPa 0,0 l/m 7,4 km/h (2 Bft) SW 236 0 min 0,000 mm 0,0 UV-I 24 W/m 11,5 C 11,4 C 9,7 km/h (2 Bft) 100,00 %
14.05.2016 08:03 12,1 C 96 % 1001,2 hPa 0,0 l/m 6,2 km/h (2 Bft) SW 219 0 min 0,000 mm 0,0 UV-I 26 W/m 11,5 C 12,1 C 8,0 km/h (2 Bft) 100,00 %
14.05.2016 08:04 12,1 C 96 % 1001,2 hPa 0,0 l/m 5,8 km/h (2 Bft) W-SW 253 0 min 0,000 mm 0,0 UV-I 26 W/m 11,5 C 12,1 C 9,7 km/h (2 Bft) 100,00 %
14.05.2016 08:05 12,1 C 96 % 1001,3 hPa 0,0 l/m 7,8 km/h (2 Bft) SW 223 0 min 0,000 mm 0,0 UV-I 26 W/m 11,5 C 11,2 C 11,3 km/h (2 Bft) 100,00 %
14.05.2016 08:06 12,1 C 96 % 1001,2 hPa 0,0 l/m 8,8 km/h (2 Bft) SW 225 0 min 0,000 mm 0,0 UV-I 26 W/m 11,5 C 10,6 C 12,9 km/h (3 Bft) 100,00 %
14.05.2016 08:07 12,1 C 96 % 1001,3 hPa 0,0 l/m 7,0 km/h (2 Bft) W-SW 246 0 min 0,000 mm 0,0 UV-I 26 W/m 11,5 C 11,7 C 9,7 km/h (2 Bft) 100,00 %
14.05.2016 08:08 12,1 C 96 % 1001,3 hPa 0,0 l/m 8,7 km/h (2 Bft) W-SW 238 0 min 0,000 mm 0,0 UV-I 28 W/m 11,5 C 10,6 C 12,9 km/h (3 Bft) 100,00 %
14.05.2016 08:09 12,1 C 96 % 1001,3 hPa 0,0 l/m 7,4 km/h (2 Bft) SW 234 0 min 0,000 mm 0,0 UV-I 28 W/m 11,5 C 11,4 C 11,3 km/h (2 Bft) 100,00 %
14.05.2016 08:10 12,1 C 96 % 1001,3 hPa 0,0 l/m 8,5 km/h (2 Bft) SW 233 0 min 0,000 mm 0,0 UV-I 28 W/m 11,5 C 10,8 C 11,3 km/h (2 Bft) 100,00 %
14.05.2016 08:11 12,1 C 96 % 1001,3 hPa 0,0 l/m 7,1 km/h (2 Bft) SW 234 0 min 0,000 mm 0,0 UV-I 28 W/m 11,5 C 11,6 C 11,3 km/h (2 Bft) 96,15 %
14.05.2016 08:12 12,1 C 96 % 1001,2 hPa 0,0 l/m 7,2 km/h (2 Bft) W-SW 252 0 min 0,000 mm 0,0 UV-I 29 W/m 11,5 C 11,6 C 11,3 km/h (2 Bft) 100,00 %
14.05.2016 08:13 12,1 C 96 % 1001,2 hPa 0,0 l/m 8,4 km/h (2 Bft) S-SW 213 0 min 0,000 mm 0,0 UV-I 30 W/m 11,5 C 10,8 C 11,3 km/h (2 Bft) 100,00 %
14.05.2016 08:14 12,1 C 96 % 1001,2 hPa 0,0 l/m 7,8 km/h (2 Bft) SW 232 0 min 0,000 mm 0,0 UV-I 30 W/m 11,5 C 11,2 C 12,9 km/h (3 Bft) 100,00 %
14.05.2016 08:15 12,1 C 96 % 1001,3 hPa 0,0 l/m 6,2 km/h (2 Bft) W-SW 250 0 min 0,000 mm 0,0 UV-I 32 W/m 11,5 C 12,1 C 8,0 km/h (2 Bft) 96,88 %
14.05.2016 08:16 12,1 C 96 % 1001,3 hPa 0,0 l/m 6,9 km/h (2 Bft) W-SW 258 0 min 0,000 mm 0,0 UV-I 32 W/m 11,5 C 11,8 C 11,3 km/h (2 Bft) 100,00 %
14.05.2016 08:17 12,1 C 96 % 1001,3 hPa 0,0 l/m 6,9 km/h (2 Bft) W-SW 257 0 min 0,000 mm 0,0 UV-I 33 W/m 11,5 C 11,8 C 8,0 km/h (2 Bft) 95,65 %
14.05.2016 08:18 12,1 C 96 % 1001,3 hPa 0,0 l/m 6,7 km/h (2 Bft) W-SW 244 0 min 0,000 mm 0,0 UV-I 34 W/m 11,5 C 11,9 C 11,3 km/h (2 Bft) 100,00 %
14.05.2016 08:19 12,1 C 96 % 1001,3 hPa 0,0 l/m 6,8 km/h (2 Bft) W-SW 241 0 min 0,000 mm 0,0 UV-I 35 W/m 11,5 C 11,8 C 11,3 km/h (2 Bft) 100,00 %
14.05.2016 08:20 12,1 C 96 % 1001,3 hPa 0,0 l/m 6,4 km/h (2 Bft) W-SW 258 0 min 0,000 mm 0,0 UV-I 35 W/m 11,5 C 12,1 C 11,3 km/h (2 Bft) 100,00 %
14.05.2016 08:21 12,1 C 96 % 1001,3 hPa 0,2 l/m 7,0 km/h (2 Bft) W 259 0 min 0,000 mm 0,0 UV-I 33 W/m 11,5 C 11,7 C 9,7 km/h (2 Bft) 100,00 %
14.05.2016 08:22 12,1 C 96 % 1001,3 hPa 0,0 l/m 8,0 km/h (2 Bft) W-SW 238 0 min 0,000 mm 0,0 UV-I 33 W/m 11,5 C 11,1 C 11,3 km/h (2 Bft) 100,00 %
14.05.2016 08:23 12,1 C 97 % 1001,4 hPa 0,0 l/m 7,9 km/h (2 Bft) W-SW 253 0 min 0,000 mm 0,0 UV-I 32 W/m 11,6 C 11,1 C 12,9 km/h (3 Bft) 100,00 %
14.05.2016 08:24 12,1 C 97 % 1001,3 hPa 0,2 l/m 10,4 km/h (2 Bft) SW 216 0 min 0,000 mm 0,0 UV-I 32 W/m 11,6 C 9,7 C 14,5 km/h (3 Bft) 96,15 %
14.05.2016 08:25 12,1 C 97 % 1001,4 hPa 0,0 l/m 8,1 km/h (2 Bft) W-SW 252 0 min 0,000 mm 0,0 UV-I 32 W/m 11,6 C 11,0 C 12,9 km/h (3 Bft) 100,00 %
14.05.2016 08:26 12,1 C 97 % 1001,4 hPa 0,0 l/m 9,1 km/h (2 Bft) W-SW 248 0 min 0,000 mm 0,0 UV-I 32 W/m 11,6 C 10,4 C 11,3 km/h (2 Bft) 96,55 %
14.05.2016 08:27 12,1 C 97 % 1001,4 hPa 0,0 l/m 7,0 km/h (2 Bft) W 281 0 min 0,000 mm 0,0 UV-I 32 W/m 11,6 C 11,7 C 9,7 km/h (2 Bft) 100,00 %
14.05.2016 08:28 12,1 C 97 % 1001,4 hPa 0,2 l/m 5,9 km/h (2 Bft) W-SW 252 0 min 0,000 mm 0,0 UV-I 32 W/m 11,6 C 12,1 C 8,0 km/h (2 Bft) 100,00 %
14.05.2016 08:29 12,1 C 97 % 1001,4 hPa 0,0 l/m 7,1 km/h (2 Bft) SW 232 0 min 0,000 mm 0,0 UV-I 32 W/m 11,6 C 11,6 C 9,7 km/h (2 Bft) 98,42 %
14.05.2016 08:30 12,1 C 97 % 1001,4 hPa 0,0 l/m 6,8 km/h (2 Bft) SW 225 0 min 0,000 mm 0,0 UV-I 33 W/m 11,6 C 11,8 C 8,0 km/h (2 Bft) 100,00 %
14.05.2016 08:31 12,1 C 97 % 1001,4 hPa 0,0 l/m 6,6 km/h (2 Bft) SW 225 0 min 0,000 mm 0,0 UV-I 32 W/m 11,6 C 12,0 C 8,0 km/h (2 Bft) 100,00 %
14.05.2016 08:32 12,1 C 97 % 1001,4 hPa 0,0 l/m 5,6 km/h (1 Bft) W-SW 248 0 min 0,000 mm 0,0 UV-I 32 W/m 11,6 C 12,1 C 8,0 km/h (2 Bft) 100,00 %
14.05.2016 08:33 12,1 C 97 % 1001,4 hPa 0,0 l/m 6,8 km/h (2 Bft) SW 232 0 min 0,000 mm 0,0 UV-I 32 W/m 11,6 C 11,8 C 9,7 km/h (2 Bft) 100,00 %
14.05.2016 08:34 12,1 C 97 % 1001,4 hPa 0,0 l/m 5,7 km/h (1 Bft) SW 219 0 min 0,000 mm 0,0 UV-I 32 W/m 11,6 C 12,1 C 8,0 km/h (2 Bft) 100,00 %
14.05.2016 08:35 12,1 C 97 % 1001,4 hPa 0,0 l/m 6,1 km/h (2 Bft) W-SW 237 0 min 0,000 mm 0,0 UV-I 33 W/m 11,6 C 12,1 C 9,7 km/h (2 Bft) 100,00 %
14.05.2016 08:36 12,1 C 97 % 1001,4 hPa 0,0 l/m 4,8 km/h (1 Bft) W-SW 248 0 min 0,000 mm 0,0 UV-I 33 W/m 11,6 C 12,1 C 6,4 km/h (2 Bft) 100,00 %
14.05.2016 08:37 12,1 C 97 % 1001,4 hPa 0,0 l/m 7,2 km/h (2 Bft) SW 214 0 min 0,000 mm 0,0 UV-I 33 W/m 11,6 C 11,6 C 11,3 km/h (2 Bft) 95,65 %
14.05.2016 08:38 12,1 C 97 % 1001,4 hPa 0,0 l/m 5,6 km/h (1 Bft) W-SW 237 0 min 0,000 mm 0,0 UV-I 33 W/m 11,6 C 12,1 C 8,0 km/h (2 Bft) 100,00 %
14.05.2016 08:39 12,1 C 97 % 1001,4 hPa 0,0 l/m 6,8 km/h (2 Bft) SW 220 0 min 0,000 mm 0,0 UV-I 32 W/m 11,6 C 11,8 C 11,3 km/h (2 Bft) 96,15 %
14.05.2016 08:40 12,1 C 97 % 1001,5 hPa 0,0 l/m 4,9 km/h (1 Bft) W-SW 240 0 min 0,000 mm 0,0 UV-I 32 W/m 11,6 C 12,1 C 6,4 km/h (2 Bft) 100,00 %
14.05.2016 08:41 12,1 C 97 % 1001,5 hPa 0,0 l/m 7,7 km/h (2 Bft) W-SW 257 0 min 0,000 mm 0,0 UV-I 32 W/m 11,6 C 11,2 C 11,3 km/h (2 Bft) 92,31 %
14.05.2016 08:42 12,1 C 97 % 1001,5 hPa 0,0 l/m 9,9 km/h (2 Bft) W 259 0 min 0,000 mm 0,0 UV-I 33 W/m 11,6 C 10,0 C 11,3 km/h (2 Bft) 100,00 %
14.05.2016 08:43 12,1 C 97 % 1001,5 hPa 0,0 l/m 8,7 km/h (2 Bft) W-SW 253 0 min 0,000 mm 0,0 UV-I 35 W/m 11,6 C 10,6 C 12,9 km/h (3 Bft) 100,00 %
14.05.2016 08:44 12,1 C 97 % 1001,5 hPa 0,0 l/m 7,1 km/h (2 Bft) W 263 0 min 0,000 mm 0,0 UV-I 35 W/m 11,6 C 11,6 C 11,3 km/h (2 Bft) 100,00 %
14.05.2016 08:45 12,1 C 97 % 1001,5 hPa 0,0 l/m 10,0 km/h (2 Bft) W 261 0 min 0,000 mm 0,0 UV-I 38 W/m 11,6 C 9,9 C 12,9 km/h (3 Bft) 100,00 %
14.05.2016 08:46 12,1 C 97 % 1001,5 hPa 0,0 l/m 7,6 km/h (2 Bft) W-SW 251 0 min 0,000 mm 0,0 UV-I 39 W/m 11,6 C 11,3 C 11,3 km/h (2 Bft) 100,00 %
14.05.2016 08:47 12,1 C 97 % 1001,6 hPa 0,2 l/m 9,7 km/h (2 Bft) W-SW 243 0 min 0,000 mm 0,0 UV-I 42 W/m 11,6 C 10,1 C 12,9 km/h (3 Bft) 95,65 %
14.05.2016 08:48 12,1 C 97 % 1001,6 hPa 0,0 l/m 6,8 km/h (2 Bft) W 259 0 min 0,000 mm 0,0 UV-I 45 W/m 11,6 C 11,8 C 9,7 km/h (2 Bft) 100,00 %
14.05.2016 08:49 12,1 C 97 % 1001,6 hPa 0,0 l/m 8,5 km/h (2 Bft) W 279 0 min 0,000 mm 0,0 UV-I 47 W/m 11,6 C 10,8 C 11,3 km/h (2 Bft) 100,00 %
14.05.2016 08:50 12,1 C 97 % 1001,6 hPa 0,0 l/m 8,8 km/h (2 Bft) W-SW 248 0 min 0,000 mm 0,0 UV-I 47 W/m 11,6 C 10,6 C 12,9 km/h (3 Bft) 100,00 %
14.05.2016 08:51 12,1 C 97 % 1001,6 hPa 0,2 l/m 9,2 km/h (2 Bft) W 264 0 min 0,000 mm 0,0 UV-I 49 W/m 11,6 C 10,3 C 12,9 km/h (3 Bft) 100,00 %
14.05.2016 08:52 12,1 C 97 % 1001,5 hPa 0,0 l/m 7,9 km/h (2 Bft) W 261 0 min 0,000 mm 0,0 UV-I 53 W/m 11,6 C 11,1 C 11,3 km/h (2 Bft) 100,00 %
14.05.2016 08:53 12,1 C 97 % 1001,6 hPa 0,0 l/m 5,9 km/h (2 Bft) W-SW 240 0 min 0,000 mm 0,0 UV-I 54 W/m 11,6 C 12,1 C 8,0 km/h (2 Bft) 94,74 %
14.05.2016 08:54 12,1 C 97 % 1001,6 hPa 0,2 l/m 7,5 km/h (2 Bft) W-SW 254 0 min 0,000 mm 0,0 UV-I 53 W/m 11,6 C 11,4 C 9,7 km/h (2 Bft) 91,67 %
14.05.2016 08:55 12,1 C 97 % 1001,6 hPa 0,0 l/m 6,3 km/h (2 Bft) W-SW 247 0 min 0,000 mm 0,0 UV-I 51 W/m 11,6 C 12,1 C 9,7 km/h (2 Bft) 100,00 %
14.05.2016 08:56 12,1 C 97 % 1001,6 hPa 0,0 l/m 7,8 km/h (2 Bft) W-SW 254 0 min 0,000 mm 0,0 UV-I 51 W/m 11,6 C 11,2 C 11,3 km/h (2 Bft) 100,00 %
14.05.2016 08:57 12,1 C 97 % 1001,6 hPa 0,2 l/m 7,2 km/h (2 Bft) W 276 0 min 0,000 mm 0,0 UV-I 51 W/m 11,6 C 11,6 C 9,7 km/h (2 Bft) 100,00 %
14.05.2016 08:58 12,1 C 97 % 1001,6 hPa 0,0 l/m 7,2 km/h (2 Bft) W-SW 252 0 min 0,000 mm 0,0 UV-I 48 W/m 11,6 C 11,6 C 9,7 km/h (2 Bft) 100,00 %
14.05.2016 08:59 12,1 C 97 % 1001,6 hPa 0,0 l/m 6,6 km/h (2 Bft) W 275 0 min 0,000 mm 0,0 UV-I 46 W/m 11,6 C 12,0 C 9,7 km/h (2 Bft) 100,00 %
14.05.2016 09:00 12,1 C 97 % 1001,6 hPa 0,2 l/m 7,5 km/h (2 Bft) W 271 0 min 0,025 mm 0,0 UV-I 43 W/m 11,6 C 11,4 C 11,3 km/h (2 Bft) 95,65 %
14.05.2016 09:01 12,1 C 97 % 1001,6 hPa 0,0 l/m 6,2 km/h (2 Bft) W 262 0 min 0,000 mm 0,0 UV-I 40 W/m 11,6 C 12,1 C 11,3 km/h (2 Bft) 100,00 %
14.05.2016 09:02 12,1 C 97 % 1001,7 hPa 0,2 l/m 6,0 km/h (2 Bft) W-SW 238 0 min 0,000 mm 0,0 UV-I 37 W/m 11,6 C 12,1 C 9,7 km/h (2 Bft) 100,00 %
14.05.2016 09:03 12,1 C 97 % 1001,7 hPa 0,0 l/m 4,7 km/h (1 Bft) W-SW 258 0 min 0,000 mm 0,0 UV-I 35 W/m 11,6 C 12,1 C 6,4 km/h (2 Bft) 100,00 %
14.05.2016 09:04 12,1 C 97 % 1001,7 hPa 0,0 l/m 5,5 km/h (1 Bft) W-SW 252 0 min 0,000 mm 0,0 UV-I 33 W/m 11,6 C 12,1 C 8,0 km/h (2 Bft) 100,00 %
14.05.2016 09:05 12,1 C 97 % 1001,7 hPa 0,2 l/m 5,5 km/h (1 Bft) S-SW 211 0 min 0,000 mm 0,0 UV-I 31 W/m 11,6 C 12,1 C 8,0 km/h (2 Bft) 100,00 %
14.05.2016 09:06 12,1 C 97 % 1001,6 hPa 0,0 l/m 6,7 km/h (2 Bft) W-SW 242 0 min 0,000 mm 0,0 UV-I 30 W/m 11,6 C 11,9 C 11,3 km/h (2 Bft) 95,65 %
14.05.2016 09:07 12,1 C 97 % 1001,7 hPa 0,0 l/m 7,0 km/h (2 Bft) W-SW 249 0 min 0,000 mm 0,0 UV-I 30 W/m 11,6 C 11,7 C 11,3 km/h (2 Bft) 100,00 %
14.05.2016 09:08 12,1 C 97 % 1001,7 hPa 0,2 l/m 7,6 km/h (2 Bft) W-SW 250 0 min 0,000 mm 0,0 UV-I 30 W/m 11,6 C 11,3 C 12,9 km/h (3 Bft) 100,00 %
14.05.2016 09:09 12,1 C 97 % 1001,7 hPa 0,2 l/m 10,2 km/h (2 Bft) W-SW 243 0 min 0,000 mm 0,0 UV-I 28 W/m 11,6 C 9,8 C 14,5 km/h (3 Bft) 96,30 %
14.05.2016 09:10 12,1 C 97 % 1001,7 hPa 0,0 l/m 8,9 km/h (2 Bft) W-SW 248 0 min 0,000 mm 0,0 UV-I 28 W/m 11,6 C 10,5 C 12,9 km/h (3 Bft) 100,00 %
14.05.2016 09:11 12,1 C 97 % 1001,7 hPa 0,0 l/m 7,8 km/h (2 Bft) W-SW 239 0 min 0,000 mm 0,0 UV-I 28 W/m 11,6 C 11,2 C 11,3 km/h (2 Bft) 100,00 %
14.05.2016 09:12 12,1 C 97 % 1001,7 hPa 0,2 l/m 8,6 km/h (2 Bft) SW 236 0 min 0,000 mm 0,0 UV-I 28 W/m 11,6 C 10,7 C 14,5 km/h (3 Bft) 92,31 %
14.05.2016 09:13 12,1 C 97 % 1001,8 hPa 0,0 l/m 6,4 km/h (2 Bft) W 260 0 min 0,000 mm 0,0 UV-I 30 W/m 11,6 C 12,1 C 9,7 km/h (2 Bft) 95,83 %
14.05.2016 09:14 12,1 C 97 % 1001,7 hPa 0,0 l/m 9,2 km/h (2 Bft) W-SW 240 0 min 0,000 mm 0,0 UV-I 34 W/m 11,6 C 10,3 C 12,9 km/h (3 Bft) 100,00 %
14.05.2016 09:15 12,1 C 97 % 1001,8 hPa 0,0 l/m 8,2 km/h (2 Bft) W-SW 244 0 min 0,000 mm 0,0 UV-I 38 W/m 11,6 C 10,9 C 11,3 km/h (2 Bft) 96,55 %
14.05.2016 09:16 12,1 C 97 % 1001,8 hPa 0,0 l/m 7,2 km/h (2 Bft) W-SW 248 0 min 0,000 mm 0,0 UV-I 40 W/m 11,6 C 11,6 C 11,3 km/h (2 Bft) 100,00 %
14.05.2016 09:17 12,1 C 97 % 1001,8 hPa 0,2 l/m 6,8 km/h (2 Bft) W 259 0 min 0,000 mm 0,0 UV-I 41 W/m 11,6 C 11,8 C 8,0 km/h (2 Bft) 91,30 %
14.05.2016 09:18 12,1 C 97 % 1001,8 hPa 0,0 l/m 7,0 km/h (2 Bft) W-SW 250 0 min 0,000 mm 0,0 UV-I 44 W/m 11,6 C 11,7 C 11,3 km/h (2 Bft) 100,00 %
14.05.2016 09:19 12,1 C 97 % 1001,8 hPa 0,0 l/m 6,9 km/h (2 Bft) S-SW 196 0 min 0,000 mm 0,0 UV-I 46 W/m 11,6 C 11,8 C 11,3 km/h (2 Bft) 91,30 %
14.05.2016 09:20 12,1 C 97 % 1001,8 hPa 0,0 l/m 6,9 km/h (2 Bft) W-SW 250 0 min 0,000 mm 0,0 UV-I 47 W/m 11,6 C 11,8 C 12,9 km/h (3 Bft) 91,67 %
14.05.2016 09:21 12,1 C 97 % 1001,8 hPa 0,0 l/m 10,3 km/h (2 Bft) W 275 0 min 0,000 mm 0,0 UV-I 50 W/m 11,6 C 9,8 C 12,9 km/h (3 Bft) 100,00 %
14.05.2016 09:22 12,1 C 97 % 1001,7 hPa 0,0 l/m 7,6 km/h (2 Bft) SW 236 0 min 0,000 mm 0,0 UV-I 52 W/m 11,6 C 11,3 C 11,3 km/h (2 Bft) 100,00 %
14.05.2016 09:23 12,1 C 97 % 1001,8 hPa 0,0 l/m 7,4 km/h (2 Bft) W-SW 246 0 min 0,000 mm 0,0 UV-I 54 W/m 11,6 C 11,4 C 12,9 km/h (3 Bft) 92,31 %
14.05.2016 09:24 12,1 C 97 % 1001,8 hPa 0,0 l/m 9,2 km/h (2 Bft) W 281 0 min 0,000 mm 0,0 UV-I 56 W/m 11,6 C 10,3 C 12,9 km/h (3 Bft) 92,59 %
14.05.2016 09:25 12,1 C 97 % 1001,8 hPa 0,0 l/m 6,0 km/h (2 Bft) SW 229 0 min 0,000 mm 0,0 UV-I 59 W/m 11,6 C 12,1 C 8,0 km/h (2 Bft) 96,55 %
14.05.2016 09:26 12,1 C 97 % 1001,7 hPa 0,0 l/m 4,8 km/h (1 Bft) SW 218 0 min 0,000 mm 0,0 UV-I 62 W/m 11,6 C 12,1 C 6,4 km/h (2 Bft) 91,67 %
14.05.2016 09:27 12,1 C 97 % 1001,7 hPa 0,0 l/m 5,1 km/h (1 Bft) SW 236 0 min 0,000 mm 0,0 UV-I 65 W/m 11,6 C 12,1 C 6,4 km/h (2 Bft) 100,00 %
14.05.2016 09:28 12,1 C 97 % 1001,7 hPa 0,0 l/m 7,0 km/h (2 Bft) W-SW 251 0 min 0,000 mm 0,0 UV-I 68 W/m 11,6 C 11,7 C 11,3 km/h (2 Bft) 96,30 %
14.05.2016 09:29 12,1 C 97 % 1001,8 hPa 0,0 l/m 5,8 km/h (2 Bft) W 267 0 min 0,000 mm 0,0 UV-I 71 W/m 11,6 C 12,1 C 8,0 km/h (2 Bft) 100,00 %
14.05.2016 09:30 12,1 C 97 % 1001,8 hPa 0,0 l/m 6,1 km/h (2 Bft) W-SW 255 0 min 0,000 mm 0,0 UV-I 72 W/m 11,6 C 12,1 C 9,7 km/h (2 Bft) 96,55 %
14.05.2016 09:31 12,1 C 97 % 1001,8 hPa 0,0 l/m 6,4 km/h (2 Bft) W-SW 246 0 min 0,000 mm 0,0 UV-I 74 W/m 11,6 C 12,1 C 8,0 km/h (2 Bft) 91,30 %
14.05.2016 09:32 12,2 C 97 % 1001,8 hPa 0,0 l/m 5,8 km/h (2 Bft) W-SW 241 0 min 0,000 mm 0,0 UV-I 73 W/m 11,7 C 12,2 C 8,0 km/h (2 Bft) 100,00 %
14.05.2016 09:33 12,2 C 97 % 1001,8 hPa 0,0 l/m 7,2 km/h (2 Bft) W-SW 250 0 min 0,000 mm 0,0 UV-I 72 W/m 11,7 C 11,7 C 11,3 km/h (2 Bft) 95,65 %
14.05.2016 09:34 12,2 C 97 % 1001,8 hPa 0,0 l/m 8,0 km/h (2 Bft) W-SW 240 0 min 0,000 mm 0,0 UV-I 71 W/m 11,7 C 11,2 C 11,3 km/h (2 Bft) 100,00 %
14.05.2016 09:35 12,2 C 97 % 1001,8 hPa 0,0 l/m 9,5 km/h (2 Bft) W-SW 250 0 min 0,000 mm 0,0 UV-I 70 W/m 11,7 C 10,3 C 12,9 km/h (3 Bft) 96,15 %
14.05.2016 09:36 12,2 C 97 % 1001,8 hPa 0,0 l/m 7,9 km/h (2 Bft) W-SW 247 0 min 0,000 mm 0,0 UV-I 70 W/m 11,7 C 11,2 C 12,9 km/h (3 Bft) 100,00 %
14.05.2016 09:37 12,2 C 97 % 1001,8 hPa 0,0 l/m 9,1 km/h (2 Bft) W-SW 258 0 min 0,000 mm 0,0 UV-I 70 W/m 11,7 C 10,5 C 14,5 km/h (3 Bft) 96,30 %
14.05.2016 09:38 12,2 C 97 % 1001,8 hPa 0,0 l/m 7,3 km/h (2 Bft) W 268 0 min 0,000 mm 0,0 UV-I 69 W/m 11,7 C 11,6 C 11,3 km/h (2 Bft) 96,15 %
14.05.2016 09:39 12,2 C 97 % 1001,8 hPa 0,0 l/m 8,9 km/h (2 Bft) W-SW 257 0 min 0,000 mm 0,0 UV-I 68 W/m 11,7 C 10,6 C 12,9 km/h (3 Bft) 100,00 %
14.05.2016 09:40 12,2 C 97 % 1001,9 hPa 0,0 l/m 9,7 km/h (2 Bft) W 266 0 min 0,000 mm 0,0 UV-I 67 W/m 11,7 C 10,2 C 12,9 km/h (3 Bft) 96,55 %
14.05.2016 09:41 12,2 C 97 % 1001,9 hPa 0,0 l/m 8,8 km/h (2 Bft) W-SW 255 0 min 0,000 mm 0,0 UV-I 67 W/m 11,7 C 10,7 C 14,5 km/h (3 Bft) 100,00 %
14.05.2016 09:42 12,2 C 97 % 1001,9 hPa 0,0 l/m 11,5 km/h (2 Bft) W-SW 248 0 min 0,000 mm 0,0 UV-I 65 W/m 11,7 C 9,3 C 14,5 km/h (3 Bft) 96,15 %
14.05.2016 09:43 12,2 C 97 % 1001,9 hPa 0,0 l/m 8,4 km/h (2 Bft) SW 236 0 min 0,000 mm 0,0 UV-I 63 W/m 11,7 C 10,9 C 12,9 km/h (3 Bft) 100,00 %
14.05.2016 09:44 12,2 C 97 % 1001,9 hPa 0,0 l/m 6,9 km/h (2 Bft) W 259 0 min 0,000 mm 0,0 UV-I 63 W/m 11,7 C 11,9 C 9,7 km/h (2 Bft) 100,00 %
14.05.2016 09:45 12,2 C 97 % 1001,9 hPa 0,0 l/m 6,8 km/h (2 Bft) W 265 0 min 0,000 mm 0,0 UV-I 63 W/m 11,7 C 11,9 C 9,7 km/h (2 Bft) 100,00 %
14.05.2016 09:46 12,2 C 97 % 1001,9 hPa 0,0 l/m 8,3 km/h (2 Bft) W 261 0 min 0,000 mm 0,0 UV-I 63 W/m 11,7 C 11,0 C 12,9 km/h (3 Bft) 100,00 %
14.05.2016 09:47 12,2 C 97 % 1001,9 hPa 0,0 l/m 10,9 km/h (2 Bft) SW 235 0 min 0,000 mm 0,0 UV-I 63 W/m 11,7 C 9,6 C 14,5 km/h (3 Bft) 100,00 %
14.05.2016 09:48 12,2 C 97 % 1001,9 hPa 0,0 l/m 5,8 km/h (2 Bft) W-SW 253 0 min 0,000 mm 0,0 UV-I 63 W/m 11,7 C 12,2 C 8,0 km/h (2 Bft) 96,15 %
14.05.2016 09:49 12,3 C 97 % 1001,9 hPa 0,0 l/m 8,6 km/h (2 Bft) W-SW 250 0 min 0,000 mm 0,0 UV-I 63 W/m 11,8 C 10,9 C 11,3 km/h (2 Bft) 100,00 %
14.05.2016 09:50 12,3 C 97 % 1002,0 hPa 0,0 l/m 7,4 km/h (2 Bft) W-SW 250 0 min 0,000 mm 0,0 UV-I 65 W/m 11,8 C 11,6 C 12,9 km/h (3 Bft) 100,00 %
14.05.2016 09:51 12,3 C 97 % 1002,0 hPa 0,0 l/m 11,0 km/h (2 Bft) W-SW 254 0 min 0,000 mm 0,0 UV-I 65 W/m 11,8 C 9,6 C 16,1 km/h (3 Bft) 95,83 %
14.05.2016 09:52 12,3 C 97 % 1002,0 hPa 0,0 l/m 8,5 km/h (2 Bft) W-SW 250 0 min 0,000 mm 0,0 UV-I 66 W/m 11,8 C 11,0 C 11,3 km/h (2 Bft) 100,00 %
14.05.2016 09:53 12,3 C 97 % 1002,0 hPa 0,0 l/m 7,4 km/h (2 Bft) W-SW 251 0 min 0,000 mm 0,0 UV-I 68 W/m 11,8 C 11,6 C 9,7 km/h (2 Bft) 100,00 %
14.05.2016 09:54 12,3 C 97 % 1002,0 hPa 0,0 l/m 7,8 km/h (2 Bft) W-SW 257 0 min 0,000 mm 0,0 UV-I 72 W/m 11,8 C 11,4 C 11,3 km/h (2 Bft) 95,65 %
14.05.2016 09:55 12,3 C 97 % 1002,0 hPa 0,0 l/m 11,1 km/h (2 Bft) W-SW 253 0 min 0,000 mm 0,0 UV-I 77 W/m 11,8 C 9,6 C 14,5 km/h (3 Bft) 100,00 %
14.05.2016 09:56 12,3 C 97 % 1002,0 hPa 0,0 l/m 8,4 km/h (2 Bft) W-SW 242 0 min 0,000 mm 0,0 UV-I 80 W/m 11,8 C 11,0 C 11,3 km/h (2 Bft) 93,33 %
14.05.2016 09:57 12,3 C 97 % 1002,0 hPa 0,0 l/m 8,7 km/h (2 Bft) W-SW 250 0 min 0,000 mm 0,0 UV-I 85 W/m 11,8 C 10,8 C 12,9 km/h (3 Bft) 100,00 %
14.05.2016 09:58 12,3 C 97 % 1002,0 hPa 0,0 l/m 7,7 km/h (2 Bft) W 275 0 min 0,000 mm 0,0 UV-I 90 W/m 11,8 C 11,5 C 11,3 km/h (2 Bft) 100,00 %
14.05.2016 09:59 12,3 C 97 % 1002,1 hPa 0,0 l/m 5,8 km/h (2 Bft) W-SW 253 0 min 0,000 mm 0,0 UV-I 94 W/m 11,8 C 12,3 C 9,7 km/h (2 Bft) 100,00 %
14.05.2016 10:00 12,3 C 97 % 1002,0 hPa 0,0 l/m 6,1 km/h (2 Bft) W-SW 248 0 min 0,026 mm 0,4 UV-I 106 W/m 11,8 C 12,3 C 8,0 km/h (2 Bft) 100,00 %
14.05.2016 10:02 12,4 C 97 % 1002,0 hPa 0,0 l/m 6,8 km/h (2 Bft) W-SW 257 0 min 0,000 mm 0,6 UV-I 122 W/m 11,9 C 12,1 C 11,3 km/h (2 Bft) 100,00 %
14.05.2016 10:03 12,4 C 97 % 1002,0 hPa 0,0 l/m 5,0 km/h (1 Bft) W-NW 287 0 min 0,000 mm 0,6 UV-I 129 W/m 11,9 C 12,4 C 6,4 km/h (2 Bft) 100,00 %
14.05.2016 10:04 12,4 C 97 % 1002,0 hPa 0,0 l/m 5,7 km/h (1 Bft) W-SW 238 0 min 0,000 mm 0,7 UV-I 135 W/m 11,9 C 12,4 C 9,7 km/h (2 Bft) 100,00 %
14.05.2016 10:05 12,4 C 97 % 1002,0 hPa 0,0 l/m 6,6 km/h (2 Bft) SW 236 0 min 0,000 mm 0,7 UV-I 136 W/m 11,9 C 12,3 C 8,0 km/h (2 Bft) 96,55 %
14.05.2016 10:06 12,5 C 97 % 1002,1 hPa 0,0 l/m 8,1 km/h (2 Bft) SW 230 0 min 0,000 mm 0,7 UV-I 135 W/m 12,0 C 11,4 C 11,3 km/h (2 Bft) 100,00 %
14.05.2016 10:07 12,5 C 97 % 1002,1 hPa 0,0 l/m 5,2 km/h (1 Bft) W-SW 249 0 min 0,000 mm 0,7 UV-I 132 W/m 12,0 C 12,5 C 6,4 km/h (2 Bft) 95,65 %
14.05.2016 10:08 12,6 C 97 % 1002,1 hPa 0,0 l/m 5,8 km/h (2 Bft) S-SW 205 0 min 0,000 mm 0,6 UV-I 130 W/m 12,1 C 12,6 C 8,0 km/h (2 Bft) 100,00 %
14.05.2016 10:09 12,6 C 97 % 1002,1 hPa 0,0 l/m 6,7 km/h (2 Bft) W-SW 252 0 min 0,000 mm 0,7 UV-I 135 W/m 12,1 C 12,4 C 8,0 km/h (2 Bft) 100,00 %
14.05.2016 10:10 12,6 C 97 % 1002,1 hPa 0,0 l/m 7,7 km/h (2 Bft) W-SW 237 0 min 0,000 mm 0,7 UV-I 140 W/m 12,1 C 11,8 C 12,9 km/h (3 Bft) 100,00 %
14.05.2016 10:11 12,6 C 97 % 1002,1 hPa 0,0 l/m 6,8 km/h (2 Bft) W 259 0 min 0,000 mm 0,8 UV-I 150 W/m 12,1 C 12,4 C 9,7 km/h (2 Bft) 100,00 %
14.05.2016 10:12 12,6 C 97 % 1002,2 hPa 0,0 l/m 5,8 km/h (2 Bft) W-SW 241 0 min 0,000 mm 0,7 UV-I 140 W/m 12,1 C 12,6 C 9,7 km/h (2 Bft) 100,00 %
14.05.2016 10:13 12,7 C 97 % 1002,2 hPa 0,0 l/m 7,8 km/h (2 Bft) W-SW 254 0 min 0,000 mm 0,6 UV-I 128 W/m 12,2 C 11,8 C 12,9 km/h (3 Bft) 100,00 %
14.05.2016 10:14 12,7 C 97 % 1002,2 hPa 0,0 l/m 7,8 km/h (2 Bft) W 276 0 min 0,000 mm 0,6 UV-I 127 W/m 12,2 C 11,8 C 12,9 km/h (3 Bft) 100,00 %
14.05.2016 10:15 12,7 C 97 % 1002,2 hPa 0,0 l/m 7,0 km/h (2 Bft) W-SW 250 0 min 0,000 mm 0,6 UV-I 127 W/m 12,2 C 12,3 C 9,7 km/h (2 Bft) 100,00 %
14.05.2016 10:16 12,7 C 97 % 1002,2 hPa 0,0 l/m 7,7 km/h (2 Bft) W-SW 244 0 min 0,000 mm 0,6 UV-I 131 W/m 12,2 C 11,9 C 11,3 km/h (2 Bft) 100,00 %
14.05.2016 10:17 12,7 C 97 % 1002,2 hPa 0,0 l/m 6,3 km/h (2 Bft) W-SW 257 0 min 0,000 mm 0,6 UV-I 125 W/m 12,2 C 12,7 C 9,7 km/h (2 Bft) 100,00 %
14.05.2016 10:18 12,7 C 97 % 1002,3 hPa 0,0 l/m 7,5 km/h (2 Bft) W 277 0 min 0,000 mm 0,7 UV-I 136 W/m 12,2 C 12,0 C 12,9 km/h (3 Bft) 100,00 %
14.05.2016 10:19 12,7 C 97 % 1002,3 hPa 0,0 l/m 10,8 km/h (2 Bft) W-SW 246 0 min 0,000 mm 0,7 UV-I 145 W/m 12,2 C 10,2 C 14,5 km/h (3 Bft) 100,00 %
14.05.2016 10:20 12,7 C 97 % 1002,3 hPa 0,0 l/m 7,8 km/h (2 Bft) W-SW 247 0 min 0,000 mm 0,8 UV-I 152 W/m 12,2 C 11,8 C 11,3 km/h (2 Bft) 100,00 %
14.05.2016 10:21 12,8 C 97 % 1002,4 hPa 0,0 l/m 5,8 km/h (2 Bft) W 266 0 min 0,000 mm 0,8 UV-I 164 W/m 12,3 C 12,8 C 11,3 km/h (2 Bft) 95,83 %
14.05.2016 10:22 12,8 C 97 % 1002,4 hPa 0,0 l/m 5,6 km/h (1 Bft) W-SW 258 0 min 0,000 mm 0,8 UV-I 167 W/m 12,3 C 12,8 C 11,3 km/h (2 Bft) 96,15 %
14.05.2016 10:23 12,8 C 97 % 1002,4 hPa 0,0 l/m 4,3 km/h (1 Bft) W-SW 255 0 min 0,000 mm 0,9 UV-I 176 W/m 12,3 C 12,8 C 9,7 km/h (2 Bft) 100,00 %
14.05.2016 10:24 12,8 C 97 % 1002,4 hPa 0,0 l/m 10,2 km/h (2 Bft) W 275 0 min 0,000 mm 1,0 UV-I 195 W/m 12,3 C 10,6 C 14,5 km/h (3 Bft) 100,00 %
14.05.2016 10:25 12,8 C 96 % 1002,4 hPa 0,0 l/m 5,7 km/h (1 Bft) W 261 0 min 0,000 mm 1,1 UV-I 207 W/m 12,2 C 12,8 C 9,7 km/h (2 Bft) 100,00 %
14.05.2016 10:26 12,9 C 96 % 1002,4 hPa 0,0 l/m 4,3 km/h (1 Bft) W 272 0 min 0,000 mm 1,0 UV-I 206 W/m 12,3 C 12,9 C 6,4 km/h (2 Bft) 100,00 %
14.05.2016 10:27 12,9 C 96 % 1002,4 hPa 0,0 l/m 5,3 km/h (1 Bft) W-SW 252 0 min 0,000 mm 1,1 UV-I 212 W/m 12,3 C 12,9 C 9,7 km/h (2 Bft) 100,00 %
14.05.2016 10:28 12,9 C 96 % 1002,4 hPa 0,0 l/m 5,5 km/h (1 Bft) W 260 0 min 0,000 mm 1,0 UV-I 205 W/m 12,3 C 12,9 C 6,4 km/h (2 Bft) 100,00 %
14.05.2016 10:29 13,0 C 96 % 1002,4 hPa 0,0 l/m 5,7 km/h (1 Bft) W 260 0 min 0,000 mm 1,1 UV-I 212 W/m 12,4 C 13,0 C 11,3 km/h (2 Bft) 95,83 %
14.05.2016 10:30 13,0 C 96 % 1002,4 hPa 0,0 l/m 6,6 km/h (2 Bft) W 267 0 min 0,000 mm 1,1 UV-I 219 W/m 12,4 C 12,9 C 11,3 km/h (2 Bft) 100,00 %
14.05.2016 10:31 13,0 C 96 % 1002,4 hPa 0,0 l/m 7,0 km/h (2 Bft) W-NW 284 0 min 0,000 mm 1,2 UV-I 219 W/m 12,4 C 12,6 C 11,3 km/h (2 Bft) 100,00 %
14.05.2016 10:32 13,0 C 96 % 1002,5 hPa 0,0 l/m 7,1 km/h (2 Bft) W-SW 254 0 min 0,000 mm 1,1 UV-I 212 W/m 12,4 C 12,6 C 11,3 km/h (2 Bft) 95,83 %
14.05.2016 10:33 13,1 C 96 % 1002,5 hPa 0,0 l/m 8,7 km/h (2 Bft) W-SW 240 0 min 0,000 mm 1,1 UV-I 207 W/m 12,5 C 11,7 C 16,1 km/h (3 Bft) 100,00 %
14.05.2016 10:34 13,1 C 96 % 1002,5 hPa 0,0 l/m 9,4 km/h (2 Bft) W-SW 248 0 min 0,000 mm 1,2 UV-I 231 W/m 12,5 C 11,3 C 14,5 km/h (3 Bft) 100,00 %
14.05.2016 10:35 13,1 C 96 % 1002,4 hPa 0,0 l/m 6,8 km/h (2 Bft) SW 232 0 min 0,000 mm 1,3 UV-I 239 W/m 12,5 C 12,9 C 9,7 km/h (2 Bft) 96,55 %
14.05.2016 10:36 13,2 C 96 % 1002,5 hPa 0,0 l/m 5,5 km/h (1 Bft) W 262 0 min 0,000 mm 1,2 UV-I 224 W/m 12,6 C 13,2 C 12,9 km/h (3 Bft) 100,00 %
14.05.2016 10:37 13,2 C 96 % 1002,5 hPa 0,0 l/m 9,9 km/h (2 Bft) W-SW 248 0 min 0,000 mm 1,2 UV-I 231 W/m 12,6 C 11,2 C 14,5 km/h (3 Bft) 100,00 %
14.05.2016 10:38 13,2 C 96 % 1002,5 hPa 0,0 l/m 7,4 km/h (2 Bft) W 260 0 min 0,000 mm 1,3 UV-I 235 W/m 12,6 C 12,6 C 12,9 km/h (3 Bft) 100,00 %
14.05.2016 10:39 13,2 C 95 % 1002,5 hPa 0,0 l/m 9,8 km/h (2 Bft) W-SW 245 0 min 0,000 mm 1,4 UV-I 252 W/m 12,4 C 11,2 C 16,1 km/h (3 Bft) 100,00 %
14.05.2016 10:40 13,3 C 95 % 1002,5 hPa 0,0 l/m 12,9 km/h (3 Bft) W-SW 242 0 min 0,000 mm 1,5 UV-I 271 W/m 12,5 C 9,9 C 16,1 km/h (3 Bft) 100,00 %
14.05.2016 10:41 13,3 C 95 % 1002,5 hPa 0,0 l/m 5,5 km/h (1 Bft) W-SW 244 0 min 0,000 mm 1,6 UV-I 288 W/m 12,5 C 13,3 C 8,0 km/h (2 Bft) 100,00 %
14.05.2016 10:42 13,3 C 95 % 1002,5 hPa 0,0 l/m 8,7 km/h (2 Bft) W 260 0 min 0,000 mm 1,6 UV-I 294 W/m 12,5 C 11,9 C 14,5 km/h (3 Bft) 100,00 %
14.05.2016 10:43 13,3 C 95 % 1002,5 hPa 0,0 l/m 8,8 km/h (2 Bft) W-SW 256 0 min 0,000 mm 1,6 UV-I 299 W/m 12,5 C 11,9 C 12,9 km/h (3 Bft) 100,00 %
14.05.2016 10:44 13,4 C 95 % 1002,5 hPa 0,0 l/m 7,0 km/h (2 Bft) W 273 0 min 0,000 mm 1,7 UV-I 306 W/m 12,6 C 13,0 C 11,3 km/h (2 Bft) 100,00 %
14.05.2016 10:45 13,4 C 95 % 1002,6 hPa 0,0 l/m 5,0 km/h (1 Bft) W 273 0 min 0,000 mm 1,8 UV-I 314 W/m 12,6 C 13,4 C 6,4 km/h (2 Bft) 100,00 %
14.05.2016 10:46 13,5 C 95 % 1002,6 hPa 0,0 l/m 7,1 km/h (2 Bft) W-SW 252 0 min 0,000 mm 1,8 UV-I 319 W/m 12,7 C 13,1 C 11,3 km/h (2 Bft) 100,00 %
14.05.2016 10:47 13,6 C 95 % 1002,6 hPa 0,0 l/m 7,0 km/h (2 Bft) SW 235 0 min 0,000 mm 1,8 UV-I 330 W/m 12,8 C 13,2 C 11,3 km/h (2 Bft) 100,00 %
14.05.2016 10:48 13,6 C 95 % 1002,6 hPa 0,0 l/m 7,5 km/h (2 Bft) W-SW 254 0 min 0,000 mm 1,9 UV-I 344 W/m 12,8 C 12,9 C 12,9 km/h (3 Bft) 100,00 %
14.05.2016 10:49 13,6 C 95 % 1002,6 hPa 0,0 l/m 11,3 km/h (2 Bft) SW 234 0 min 0,000 mm 2,0 UV-I 361 W/m 12,8 C 11,0 C 14,5 km/h (3 Bft) 100,00 %
14.05.2016 10:50 13,6 C 94 % 1002,6 hPa 0,0 l/m 7,2 km/h (2 Bft) SW 218 0 min 0,000 mm 1,9 UV-I 352 W/m 12,7 C 13,1 C 12,9 km/h (3 Bft) 100,00 %
14.05.2016 10:51 13,7 C 94 % 1002,6 hPa 0,0 l/m 8,4 km/h (2 Bft) W 279 0 min 0,000 mm 1,7 UV-I 322 W/m 12,8 C 12,5 C 14,5 km/h (3 Bft) 100,00 %
14.05.2016 10:52 13,7 C 94 % 1002,6 hPa 0,0 l/m 5,3 km/h (1 Bft) SW 231 0 min 0,000 mm 1,8 UV-I 340 W/m 12,8 C 13,7 C 6,4 km/h (2 Bft) 100,00 %
14.05.2016 10:53 13,7 C 94 % 1002,7 hPa 0,0 l/m 4,7 km/h (1 Bft) W 276 0 min 0,000 mm 2,0 UV-I 366 W/m 12,8 C 13,7 C 6,4 km/h (2 Bft) 100,00 %
14.05.2016 10:54 13,8 C 94 % 1002,7 hPa 0,0 l/m 5,7 km/h (1 Bft) W 267 0 min 0,000 mm 2,0 UV-I 366 W/m 12,9 C 13,8 C 8,0 km/h (2 Bft) 100,00 %
14.05.2016 10:55 13,9 C 95 % 1002,8 hPa 0,0 l/m 5,3 km/h (1 Bft) W-SW 245 0 min 0,000 mm 1,7 UV-I 310 W/m 13,1 C 13,9 C 6,4 km/h (2 Bft) 100,00 %
14.05.2016 10:56 13,9 C 94 % 1002,8 hPa 0,0 l/m 5,0 km/h (1 Bft) W-SW 258 0 min 0,000 mm 1,6 UV-I 290 W/m 12,9 C 13,9 C 11,3 km/h (2 Bft) 100,00 %
14.05.2016 10:57 13,9 C 93 % 1002,8 hPa 0,0 l/m 8,0 km/h (2 Bft) W-SW 246 0 min 0,000 mm 1,6 UV-I 286 W/m 12,8 C 12,9 C 12,9 km/h (3 Bft) 100,00 %
14.05.2016 10:58 13,9 C 94 % 1002,8 hPa 0,0 l/m 6,2 km/h (2 Bft) NW 304 0 min 0,000 mm 1,7 UV-I 287 W/m 12,9 C 13,9 C 11,3 km/h (2 Bft) 100,00 %
14.05.2016 10:59 13,9 C 94 % 1002,8 hPa 0,0 l/m 5,6 km/h (1 Bft) W-SW 246 0 min 0,000 mm 1,8 UV-I 304 W/m 12,9 C 13,9 C 9,7 km/h (2 Bft) 100,00 %
14.05.2016 11:00 13,9 C 94 % 1002,8 hPa 0,0 l/m 5,9 km/h (2 Bft) W-SW 255 0 min 0,101 mm 1,7 UV-I 294 W/m 12,9 C 13,9 C 9,7 km/h (2 Bft) 100,00 %
14.05.2016 11:01 13,9 C 94 % 1002,8 hPa 0,0 l/m 3,9 km/h (1 Bft) W 259 0 min 0,000 mm 1,7 UV-I 299 W/m 12,9 C 13,9 C 4,8 km/h (1 Bft) 100,00 %
14.05.2016 11:02 14,0 C 94 % 1002,9 hPa 0,0 l/m 6,1 km/h (2 Bft) W-SW 244 0 min 0,000 mm 1,7 UV-I 295 W/m 13,0 C 14,0 C 9,7 km/h (2 Bft) 100,00 %
14.05.2016 11:03 13,9 C 93 % 1002,9 hPa 0,0 l/m 8,1 km/h (2 Bft) W-SW 244 0 min 0,000 mm 1,7 UV-I 296 W/m 12,8 C 12,9 C 11,3 km/h (2 Bft) 100,00 %
14.05.2016 11:04 14,0 C 94 % 1002,9 hPa 0,0 l/m 9,8 km/h (2 Bft) W 263 0 min 0,000 mm 1,8 UV-I 303 W/m 13,0 C 12,1 C 16,1 km/h (3 Bft) 98,51 %
14.05.2016 11:05 14,0 C 93 % 1002,9 hPa 0,0 l/m 13,8 km/h (3 Bft) W-SW 242 0 min 0,000 mm 1,7 UV-I 298 W/m 12,9 C 10,4 C 17,7 km/h (3 Bft) 100,00 %
14.05.2016 11:06 13,9 C 92 % 1003,0 hPa 0,0 l/m 11,7 km/h (2 Bft) W 259 0 min 0,000 mm 1,7 UV-I 299 W/m 12,6 C 11,1 C 16,1 km/h (3 Bft) 96,15 %
14.05.2016 11:07 14,0 C 92 % 1003,0 hPa 0,0 l/m 13,6 km/h (3 Bft) SW 234 0 min 0,000 mm 1,7 UV-I 295 W/m 12,7 C 10,5 C 19,3 km/h (3 Bft) 100,00 %
14.05.2016 11:08 13,9 C 92 % 1003,0 hPa 0,0 l/m 11,8 km/h (2 Bft) W-SW 241 0 min 0,000 mm 1,8 UV-I 304 W/m 12,6 C 11,1 C 19,3 km/h (3 Bft) 92,86 %
14.05.2016 11:09 13,9 C 91 % 1003,0 hPa 0,0 l/m 9,5 km/h (2 Bft) W-SW 237 0 min 0,000 mm 1,9 UV-I 324 W/m 12,5 C 12,1 C 16,1 km/h (3 Bft) 100,00 %
14.05.2016 11:10 14,0 C 91 % 1003,0 hPa 0,0 l/m 9,3 km/h (2 Bft) W-SW 256 0 min 0,000 mm 1,9 UV-I 329 W/m 12,6 C 12,4 C 14,5 km/h (3 Bft) 96,15 %
14.05.2016 11:11 13,9 C 91 % 1003,0 hPa 0,0 l/m 10,1 km/h (2 Bft) W-SW 247 0 min 0,000 mm 1,9 UV-I 334 W/m 12,5 C 11,9 C 12,9 km/h (3 Bft) 100,00 %
14.05.2016 11:12 14,0 C 93 % 1003,1 hPa 0,0 l/m 7,0 km/h (2 Bft) W-SW 250 0 min 0,000 mm 1,9 UV-I 330 W/m 12,9 C 13,6 C 11,3 km/h (2 Bft) 91,67 %
14.05.2016 11:13 14,1 C 93 % 1003,1 hPa 0,0 l/m 13,2 km/h (3 Bft) W-SW 242 0 min 0,000 mm 1,8 UV-I 323 W/m 13,0 C 10,8 C 20,9 km/h (4 Bft) 97,73 %
14.05.2016 11:14 14,1 C 92 % 1003,1 hPa 0,0 l/m 14,1 km/h (3 Bft) W-SW 258 0 min 0,000 mm 1,8 UV-I 321 W/m 12,8 C 10,4 C 20,9 km/h (4 Bft) 100,00 %
14.05.2016 11:15 14,1 C 91 % 1003,1 hPa 0,0 l/m 10,9 km/h (2 Bft) W-SW 258 0 min 0,000 mm 1,7 UV-I 310 W/m 12,7 C 11,7 C 12,9 km/h (3 Bft) 93,33 %
14.05.2016 11:16 14,1 C 91 % 1003,1 hPa 0,0 l/m 9,1 km/h (2 Bft) W-SW 242 0 min 0,000 mm 1,6 UV-I 301 W/m 12,7 C 12,6 C 14,5 km/h (3 Bft) 100,00 %
14.05.2016 11:17 14,1 C 92 % 1003,2 hPa 0,0 l/m 9,5 km/h (2 Bft) SW 236 0 min 0,000 mm 1,6 UV-I 296 W/m 12,8 C 12,4 C 14,5 km/h (3 Bft) 96,55 %
14.05.2016 11:18 14,2 C 93 % 1003,2 hPa 0,0 l/m 13,1 km/h (3 Bft) W-SW 251 0 min 0,000 mm 1,7 UV-I 313 W/m 13,1 C 10,9 C 17,7 km/h (3 Bft) 100,00 %
14.05.2016 11:19 14,2 C 92 % 1003,3 hPa 0,0 l/m 7,6 km/h (2 Bft) SW 234 0 min 0,000 mm 1,8 UV-I 329 W/m 12,9 C 13,5 C 9,7 km/h (2 Bft) 96,15 %
14.05.2016 11:20 14,2 C 92 % 1003,3 hPa 0,0 l/m 12,1 km/h (2 Bft) SW 234 0 min 0,000 mm 1,9 UV-I 335 W/m 12,9 C 11,3 C 19,3 km/h (3 Bft) 100,00 %
14.05.2016 11:21 14,2 C 92 % 1003,3 hPa 0,0 l/m 16,3 km/h (3 Bft) W 274 0 min 0,000 mm 1,9 UV-I 338 W/m 12,9 C 9,8 C 22,5 km/h (4 Bft) 94,12 %
14.05.2016 11:22 14,2 C 91 % 1003,3 hPa 0,0 l/m 14,3 km/h (3 Bft) W-SW 242 0 min 0,000 mm 1,9 UV-I 332 W/m 12,8 C 10,5 C 19,3 km/h (3 Bft) 100,00 %
14.05.2016 11:23 14,2 C 91 % 1003,3 hPa 0,0 l/m 11,6 km/h (2 Bft) W-SW 242 0 min 0,000 mm 1,8 UV-I 318 W/m 12,8 C 11,5 C 14,5 km/h (3 Bft) 98,49 %
14.05.2016 11:24 14,2 C 91 % 1003,3 hPa 0,0 l/m 17,5 km/h (3 Bft) W-SW 250 0 min 0,000 mm 1,7 UV-I 308 W/m 12,8 C 9,4 C 24,1 km/h (4 Bft) 93,18 %
14.05.2016 11:25 14,2 C 90 % 1003,4 hPa 0,0 l/m 16,5 km/h (3 Bft) W-SW 248 0 min 0,000 mm 1,7 UV-I 298 W/m 12,6 C 9,7 C 22,5 km/h (4 Bft) 96,15 %
14.05.2016 11:26 14,1 C 90 % 1003,4 hPa 0,0 l/m 18,0 km/h (3 Bft) W 267 0 min 0,000 mm 1,5 UV-I 273 W/m 12,5 C 9,1 C 24,1 km/h (4 Bft) 96,30 %
14.05.2016 11:27 14,1 C 90 % 1003,4 hPa 0,0 l/m 11,5 km/h (2 Bft) W-SW 240 0 min 0,000 mm 1,4 UV-I 258 W/m 12,5 C 11,4 C 16,1 km/h (3 Bft) 100,00 %
14.05.2016 11:28 14,1 C 90 % 1003,4 hPa 0,0 l/m 4,9 km/h (1 Bft) SW 232 0 min 0,000 mm 1,4 UV-I 256 W/m 12,5 C 14,1 C 8,0 km/h (2 Bft) 96,30 %
14.05.2016 11:29 14,1 C 91 % 1003,4 hPa 0,0 l/m 15,3 km/h (3 Bft) SW 220 0 min 0,000 mm 1,4 UV-I 254 W/m 12,7 C 10,0 C 25,7 km/h (4 Bft) 96,15 %
14.05.2016 11:30 14,1 C 91 % 1003,4 hPa 0,0 l/m 16,7 km/h (3 Bft) W-SW 248 0 min 0,000 mm 1,5 UV-I 265 W/m 12,7 C 9,5 C 20,9 km/h (4 Bft) 100,00 %
14.05.2016 11:31 14,1 C 91 % 1003,4 hPa 0,0 l/m 17,5 km/h (3 Bft) W 262 0 min 0,000 mm 1,6 UV-I 286 W/m 12,7 C 9,3 C 20,9 km/h (4 Bft) 91,30 %
14.05.2016 11:32 14,1 C 91 % 1003,4 hPa 0,0 l/m 16,1 km/h (3 Bft) W-SW 253 0 min 0,000 mm 1,6 UV-I 292 W/m 12,7 C 9,7 C 22,5 km/h (4 Bft) 100,00 %
14.05.2016 11:33 14,1 C 91 % 1003,5 hPa 0,0 l/m 15,2 km/h (3 Bft) W-SW 248 0 min 0,000 mm 1,8 UV-I 308 W/m 12,7 C 10,0 C 20,9 km/h (4 Bft) 100,00 %
14.05.2016 11:34 14,1 C 91 % 1003,5 hPa 0,0 l/m 16,3 km/h (3 Bft) W 259 0 min 0,000 mm 1,8 UV-I 309 W/m 12,7 C 9,7 C 20,9 km/h (4 Bft) 93,75 %
14.05.2016 11:35 14,1 C 91 % 1003,4 hPa 0,0 l/m 17,9 km/h (3 Bft) W-SW 250 0 min 0,000 mm 1,8 UV-I 312 W/m 12,7 C 9,2 C 27,4 km/h (4 Bft) 96,15 %
14.05.2016 11:36 14,1 C 91 % 1003,5 hPa 0,0 l/m 12,6 km/h (3 Bft) W-SW 255 0 min 0,000 mm 1,8 UV-I 300 W/m 12,7 C 11,0 C 17,7 km/h (3 Bft) 100,00 %
14.05.2016 11:37 14,1 C 91 % 1003,6 hPa 0,0 l/m 16,1 km/h (3 Bft) W 261 0 min 0,000 mm 1,7 UV-I 286 W/m 12,7 C 9,7 C 20,9 km/h (4 Bft) 96,67 %
14.05.2016 11:38 14,1 C 91 % 1003,6 hPa 0,0 l/m 16,4 km/h (3 Bft) SW 232 0 min 0,000 mm 1,6 UV-I 280 W/m 12,7 C 9,6 C 22,5 km/h (4 Bft) 96,15 %
14.05.2016 11:39 14,1 C 90 % 1003,6 hPa 0,0 l/m 17,2 km/h (3 Bft) S-SW 211 0 min 0,000 mm 1,6 UV-I 279 W/m 12,5 C 9,4 C 22,5 km/h (4 Bft) 96,30 %
14.05.2016 11:40 14,1 C 90 % 1003,6 hPa 0,0 l/m 13,6 km/h (3 Bft) SW 230 0 min 0,000 mm 1,6 UV-I 266 W/m 12,5 C 10,6 C 17,7 km/h (3 Bft) 94,12 %
14.05.2016 11:41 14,0 C 90 % 1003,6 hPa 0,0 l/m 19,9 km/h (4 Bft) W 259 0 min 0,000 mm 0,8 UV-I 252 W/m 12,4 C 8,5 C 24,1 km/h (4 Bft) 100,00 %
14.05.2016 11:42 14,0 C 90 % 1003,7 hPa 0,0 l/m 19,8 km/h (3 Bft) W-SW 255 0 min 0,000 mm 1,4 UV-I 246 W/m 12,4 C 8,5 C 29,0 km/h (5 Bft) 100,00 %
14.05.2016 11:43 14,0 C 90 % 1003,7 hPa 0,0 l/m 16,0 km/h (3 Bft) W-SW 246 0 min 0,000 mm 1,4 UV-I 245 W/m 12,4 C 9,6 C 27,4 km/h (4 Bft) 100,00 %
14.05.2016 11:44 13,9 C 90 % 1003,7 hPa 0,0 l/m 16,8 km/h (3 Bft) W 260 0 min 0,000 mm 1,4 UV-I 238 W/m 12,3 C 9,3 C 20,9 km/h (4 Bft) 96,15 %
14.05.2016 11:45 13,9 C 90 % 1003,8 hPa 0,0 l/m 13,1 km/h (3 Bft) W 259 0 min 0,000 mm 1,3 UV-I 229 W/m 12,3 C 10,6 C 19,3 km/h (3 Bft) 100,00 %
14.05.2016 11:46 13,9 C 90 % 1003,8 hPa 0,0 l/m 14,6 km/h (3 Bft) W-NW 296 0 min 0,000 mm 1,3 UV-I 221 W/m 12,3 C 10,0 C 19,3 km/h (3 Bft) 100,00 %
14.05.2016 11:47 13,9 C 90 % 1003,8 hPa 0,0 l/m 11,3 km/h (2 Bft) SW 236 0 min 0,000 mm 1,3 UV-I 218 W/m 12,3 C 11,3 C 17,7 km/h (3 Bft) 100,00 %
14.05.2016 11:48 13,9 C 90 % 1003,8 hPa 0,0 l/m 11,4 km/h (2 Bft) W 275 0 min 0,000 mm 1,2 UV-I 200 W/m 12,3 C 11,3 C 16,1 km/h (3 Bft) 95,65 %
14.05.2016 11:49 13,9 C 90 % 1003,8 hPa 0,0 l/m 13,2 km/h (3 Bft) W-NW 284 0 min 0,000 mm 1,1 UV-I 186 W/m 12,3 C 10,5 C 17,7 km/h (3 Bft) 100,00 %
14.05.2016 11:50 13,9 C 90 % 1003,9 hPa 0,0 l/m 9,1 km/h (2 Bft) W-SW 252 0 min 0,000 mm 1,0 UV-I 179 W/m 12,3 C 12,4 C 17,7 km/h (3 Bft) 92,31 %
14.05.2016 11:51 13,9 C 90 % 1003,9 hPa 0,0 l/m 10,6 km/h (2 Bft) W-SW 252 0 min 0,000 mm 1,0 UV-I 183 W/m 12,3 C 11,6 C 16,1 km/h (3 Bft) 100,00 %
14.05.2016 11:52 13,9 C 90 % 1003,9 hPa 0,0 l/m 11,5 km/h (2 Bft) W-SW 238 0 min 0,000 mm 1,1 UV-I 188 W/m 12,3 C 11,2 C 16,1 km/h (3 Bft) 100,00 %
14.05.2016 11:53 13,8 C 90 % 1004,0 hPa 0,0 l/m 9,9 km/h (2 Bft) W-SW 252 0 min 0,000 mm 1,1 UV-I 191 W/m 12,2 C 11,8 C 12,9 km/h (3 Bft) 100,00 %
14.05.2016 11:54 13,8 C 90 % 1004,0 hPa 0,0 l/m 6,5 km/h (2 Bft) W 261 0 min 0,000 mm 1,1 UV-I 201 W/m 12,2 C 13,8 C 11,3 km/h (2 Bft) 100,00 %
14.05.2016 11:55 13,8 C 91 % 1004,0 hPa 0,0 l/m 9,9 km/h (2 Bft) N-NW 338 0 min 0,000 mm 1,2 UV-I 218 W/m 12,4 C 11,8 C 17,7 km/h (3 Bft) 100,00 %
14.05.2016 11:56 13,8 C 91 % 1004,0 hPa 0,0 l/m 11,4 km/h (2 Bft) W-SW 239 0 min 0,000 mm 1,3 UV-I 231 W/m 12,4 C 11,1 C 14,5 km/h (3 Bft) 100,00 %
14.05.2016 11:57 13,8 C 91 % 1004,1 hPa 0,0 l/m 13,4 km/h (3 Bft) W-SW 255 0 min 0,000 mm 1,4 UV-I 241 W/m 12,4 C 10,3 C 19,3 km/h (3 Bft) 96,55 %
14.05.2016 11:58 13,9 C 90 % 1004,1 hPa 0,0 l/m 15,0 km/h (3 Bft) W-SW 254 0 min 0,000 mm 1,4 UV-I 252 W/m 12,3 C 9,9 C 19,3 km/h (3 Bft) 100,00 %
14.05.2016 11:59 13,9 C 90 % 1004,1 hPa 0,0 l/m 11,5 km/h (2 Bft) W-SW 252 0 min 0,000 mm 1,5 UV-I 260 W/m 12,3 C 11,2 C 16,1 km/h (3 Bft) 100,00 %
14.05.2016 12:00 13,9 C 89 % 1004,1 hPa 0,0 l/m 17,4 km/h (3 Bft) W-SW 244 0 min 0,153 mm 1,5 UV-I 268 W/m 12,1 C 9,1 C 22,5 km/h (4 Bft) 100,00 %
14.05.2016 12:01 13,9 C 88 % 1004,1 hPa 0,0 l/m 13,5 km/h (3 Bft) W-SW 251 0 min 0,000 mm 1,6 UV-I 274 W/m 11,9 C 10,4 C 16,1 km/h (3 Bft) 90,91 %
14.05.2016 12:02 13,9 C 89 % 1004,1 hPa 0,0 l/m 11,2 km/h (2 Bft) W 260 0 min 0,000 mm 1,6 UV-I 281 W/m 12,1 C 11,3 C 16,1 km/h (3 Bft) 96,30 %
14.05.2016 12:03 13,9 C 89 % 1004,1 hPa 0,0 l/m 14,0 km/h (3 Bft) W-NW 302 0 min 0,000 mm 1,7 UV-I 290 W/m 12,1 C 10,2 C 17,7 km/h (3 Bft) 96,55 %
14.05.2016 12:04 14,0 C 89 % 1004,1 hPa 0,0 l/m 12,6 km/h (3 Bft) SW 226 0 min 0,000 mm 1,7 UV-I 298 W/m 12,2 C 10,9 C 19,3 km/h (3 Bft) 96,30 %
14.05.2016 12:05 14,0 C 90 % 1004,1 hPa 0,0 l/m 17,1 km/h (3 Bft) W-SW 249 0 min 0,000 mm 1,7 UV-I 304 W/m 12,4 C 9,3 C 24,1 km/h (4 Bft) 100,00 %
14.05.2016 12:06 14,1 C 89 % 1004,1 hPa 0,0 l/m 12,3 km/h (3 Bft) W-SW 252 0 min 0,000 mm 1,7 UV-I 308 W/m 12,3 C 11,1 C 20,9 km/h (4 Bft) 100,00 %
14.05.2016 12:07 14,1 C 88 % 1004,2 hPa 0,0 l/m 15,8 km/h (3 Bft) W-SW 248 0 min 0,000 mm 1,7 UV-I 302 W/m 12,1 C 9,8 C 25,7 km/h (4 Bft) 100,00 %
14.05.2016 12:08 14,1 C 86 % 1004,2 hPa 0,0 l/m 18,8 km/h (3 Bft) W 261 0 min 0,000 mm 1,6 UV-I 279 W/m 11,8 C 8,9 C 24,1 km/h (4 Bft) 100,00 %
14.05.2016 12:09 14,1 C 86 % 1004,2 hPa 0,0 l/m 15,6 km/h (3 Bft) W-SW 254 0 min 0,000 mm 1,4 UV-I 254 W/m 11,8 C 9,9 C 19,3 km/h (3 Bft) 96,15 %
14.05.2016 12:10 14,1 C 87 % 1004,2 hPa 0,0 l/m 15,4 km/h (3 Bft) W-SW 252 0 min 0,000 mm 1,5 UV-I 269 W/m 12,0 C 10,0 C 22,5 km/h (4 Bft) 100,00 %
14.05.2016 12:11 14,1 C 87 % 1004,2 hPa 0,0 l/m 11,9 km/h (2 Bft) W-NW 285 0 min 0,000 mm 1,7 UV-I 309 W/m 12,0 C 11,3 C 16,1 km/h (3 Bft) 100,00 %
14.05.2016 12:12 14,1 C 87 % 1004,2 hPa 0,0 l/m 15,0 km/h (3 Bft) W 266 0 min 0,000 mm 1,8 UV-I 326 W/m 12,0 C 10,1 C 22,5 km/h (4 Bft) 100,00 %
14.05.2016 12:13 14,1 C 87 % 1004,2 hPa 0,0 l/m 12,4 km/h (3 Bft) W 275 0 min 0,000 mm 1,9 UV-I 333 W/m 12,0 C 11,1 C 16,1 km/h (3 Bft) 100,00 %
14.05.2016 12:14 14,1 C 87 % 1004,3 hPa 0,0 l/m 7,1 km/h (2 Bft) W 265 0 min 0,000 mm 1,8 UV-I 319 W/m 12,0 C 13,7 C 11,3 km/h (2 Bft) 100,00 %
14.05.2016 12:15 14,1 C 88 % 1004,3 hPa 0,0 l/m 12,8 km/h (3 Bft) W-SW 251 0 min 0,000 mm 1,7 UV-I 302 W/m 12,1 C 10,9 C 19,3 km/h (3 Bft) 100,00 %
14.05.2016 12:16 14,1 C 87 % 1004,3 hPa 0,0 l/m 11,6 km/h (2 Bft) W-SW 242 0 min 0,000 mm 1,7 UV-I 307 W/m 12,0 C 11,4 C 14,5 km/h (3 Bft) 100,00 %
14.05.2016 12:17 14,1 C 86 % 1004,3 hPa 0,0 l/m 8,0 km/h (2 Bft) W 272 0 min 0,000 mm 1,7 UV-I 302 W/m 11,8 C 13,2 C 11,3 km/h (2 Bft) 100,00 %
14.05.2016 12:18 14,1 C 88 % 1004,3 hPa 0,0 l/m 13,4 km/h (3 Bft) SW 224 0 min 0,000 mm 1,6 UV-I 287 W/m 12,1 C 10,7 C 19,3 km/h (3 Bft) 100,00 %
14.05.2016 12:19 14,1 C 88 % 1004,3 hPa 0,0 l/m 9,4 km/h (2 Bft) W-SW 242 0 min 0,000 mm 1,4 UV-I 272 W/m 12,1 C 12,4 C 12,9 km/h (3 Bft) 100,00 %
14.05.2016 12:20 14,1 C 87 % 1004,3 hPa 0,0 l/m 14,2 km/h (3 Bft) W-NW 292 0 min 0,000 mm 1,5 UV-I 278 W/m 12,0 C 10,4 C 20,9 km/h (4 Bft) 92,86 %
14.05.2016 12:21 14,1 C 87 % 1004,4 hPa 0,0 l/m 13,0 km/h (3 Bft) W-SW 252 0 min 0,000 mm 1,7 UV-I 313 W/m 12,0 C 10,8 C 19,3 km/h (3 Bft) 100,00 %
14.05.2016 12:22 14,1 C 87 % 1004,4 hPa 0,0 l/m 15,9 km/h (3 Bft) W-SW 254 0 min 0,000 mm 1,9 UV-I 355 W/m 12,0 C 9,8 C 22,5 km/h (4 Bft) 95,65 %
14.05.2016 12:23 14,2 C 87 % 1004,4 hPa 0,0 l/m 12,7 km/h (3 Bft) W 269 0 min 0,000 mm 2,1 UV-I 412 W/m 12,1 C 11,1 C 16,1 km/h (3 Bft) 100,00 %
14.05.2016 12:24 14,2 C 87 % 1004,5 hPa 0,0 l/m 13,0 km/h (3 Bft) W-SW 250 0 min 0,000 mm 2,3 UV-I 461 W/m 12,1 C 11,0 C 16,1 km/h (3 Bft) 100,00 %
14.05.2016 12:25 14,2 C 87 % 1004,5 hPa 0,0 l/m 12,3 km/h (3 Bft) W 270 0 min 0,000 mm 2,3 UV-I 442 W/m 12,1 C 11,2 C 19,3 km/h (3 Bft) 96,30 %
14.05.2016 12:26 14,2 C 85 % 1004,5 hPa 0,0 l/m 15,1 km/h (3 Bft) SW 224 0 min 0,000 mm 2,3 UV-I 414 W/m 11,7 C 10,2 C 19,3 km/h (3 Bft) 96,15 %
14.05.2016 12:27 14,3 C 86 % 1004,5 hPa 0,0 l/m 14,6 km/h (3 Bft) W-SW 252 1 min 0,000 mm 2,6 UV-I 472 W/m 12,0 C 10,5 C 19,3 km/h (3 Bft) 100,00 %
14.05.2016 12:28 14,3 C 85 % 1004,5 hPa 0,0 l/m 14,1 km/h (3 Bft) W 276 1 min 0,000 mm 2,7 UV-I 560 W/m 11,8 C 10,7 C 19,3 km/h (3 Bft) 100,00 %
14.05.2016 12:29 14,4 C 86 % 1004,5 hPa 0,0 l/m 14,6 km/h (3 Bft) W-SW 246 1 min 0,000 mm 1,7 UV-I 633 W/m 12,1 C 10,6 C 20,9 km/h (4 Bft) 100,00 %
14.05.2016 12:30 14,4 C 86 % 1004,5 hPa 0,0 l/m 16,7 km/h (3 Bft) W 271 1 min 0,000 mm 3,3 UV-I 656 W/m 12,1 C 9,9 C 22,5 km/h (4 Bft) 100,00 %
14.05.2016 12:31 14,5 C 85 % 1004,5 hPa 0,0 l/m 14,2 km/h (3 Bft) W-SW 242 1 min 0,000 mm 3,4 UV-I 664 W/m 12,0 C 10,9 C 20,9 km/h (4 Bft) 100,00 %
14.05.2016 12:32 14,6 C 85 % 1004,5 hPa 0,0 l/m 9,9 km/h (2 Bft) W-SW 250 1 min 0,000 mm 3,2 UV-I 593 W/m 12,1 C 12,7 C 14,5 km/h (3 Bft) 100,00 %
14.05.2016 12:33 14,7 C 85 % 1004,5 hPa 0,0 l/m 11,8 km/h (2 Bft) W-SW 246 1 min 0,000 mm 3,1 UV-I 566 W/m 12,2 C 12,0 C 17,7 km/h (3 Bft) 100,00 %
14.05.2016 12:34 14,7 C 85 % 1004,6 hPa 0,0 l/m 15,5 km/h (3 Bft) W-NW 286 1 min 0,000 mm 3,0 UV-I 538 W/m 12,2 C 10,7 C 20,9 km/h (4 Bft) 100,00 %
14.05.2016 12:35 14,8 C 85 % 1004,6 hPa 0,0 l/m 16,4 km/h (3 Bft) W-SW 252 1 min 0,000 mm 3,1 UV-I 540 W/m 12,3 C 10,5 C 19,3 km/h (3 Bft) 100,00 %
14.05.2016 12:36 14,8 C 82 % 1004,6 hPa 0,0 l/m 19,2 km/h (3 Bft) W-SW 238 1 min 0,000 mm 3,0 UV-I 527 W/m 11,8 C 9,7 C 25,7 km/h (4 Bft) 96,30 %
14.05.2016 12:37 14,8 C 83 % 1004,6 hPa 0,0 l/m 18,3 km/h (3 Bft) W 271 1 min 0,000 mm 3,0 UV-I 554 W/m 11,9 C 9,9 C 27,4 km/h (4 Bft) 100,00 %
14.05.2016 12:38 14,8 C 81 % 1004,6 hPa 0,0 l/m 17,0 km/h (3 Bft) W-SW 255 1 min 0,000 mm 3,4 UV-I 623 W/m 11,6 C 10,3 C 22,5 km/h (4 Bft) 98,45 %
14.05.2016 12:39 14,9 C 83 % 1004,6 hPa 0,0 l/m 17,2 km/h (3 Bft) W 260 1 min 0,000 mm 3,4 UV-I 629 W/m 12,0 C 10,4 C 27,4 km/h (4 Bft) 100,00 %
14.05.2016 12:40 14,9 C 82 % 1004,6 hPa 0,0 l/m 13,6 km/h (3 Bft) W 261 1 min 0,000 mm 3,5 UV-I 619 W/m 11,9 C 11,6 C 25,7 km/h (4 Bft) 100,00 %
14.05.2016 12:41 14,9 C 83 % 1004,6 hPa 0,0 l/m 20,0 km/h (4 Bft) W-SW 256 1 min 0,000 mm 3,8 UV-I 764 W/m 12,0 C 9,6 C 29,0 km/h (5 Bft) 100,00 %
14.05.2016 12:42 15,1 C 83 % 1004,6 hPa 0,0 l/m 9,1 km/h (2 Bft) SW 220 1 min 0,000 mm 3,7 UV-I 860 W/m 12,2 C 13,6 C 12,9 km/h (3 Bft) 100,00 %
14.05.2016 12:43 15,2 C 82 % 1004,6 hPa 0,0 l/m 13,5 km/h (3 Bft) W-SW 246 1 min 0,000 mm 3,3 UV-I 738 W/m 12,1 C 11,9 C 19,3 km/h (3 Bft) 100,00 %
14.05.2016 12:44 15,3 C 82 % 1004,6 hPa 0,0 l/m 13,3 km/h (3 Bft) W 280 1 min 0,000 mm 3,6 UV-I 739 W/m 12,2 C 12,1 C 22,5 km/h (4 Bft) 100,00 %
14.05.2016 12:45 15,3 C 83 % 1004,6 hPa 0,0 l/m 13,8 km/h (3 Bft) W-SW 248 1 min 0,000 mm 3,8 UV-I 870 W/m 12,4 C 12,0 C 20,9 km/h (4 Bft) 100,00 %
14.05.2016 12:46 15,5 C 81 % 1004,6 hPa 0,0 l/m 16,2 km/h (3 Bft) W-NW 284 1 min 0,000 mm 3,7 UV-I 823 W/m 12,3 C 11,4 C 24,1 km/h (4 Bft) 100,00 %
14.05.2016 12:47 15,5 C 79 % 1004,6 hPa 0,0 l/m 19,5 km/h (3 Bft) W-SW 244 1 min 0,000 mm 3,3 UV-I 770 W/m 11,9 C 10,5 C 25,7 km/h (4 Bft) 100,00 %
14.05.2016 12:48 15,5 C 78 % 1004,6 hPa 0,0 l/m 18,3 km/h (3 Bft) W-SW 246 1 min 0,000 mm 3,1 UV-I 691 W/m 11,7 C 10,8 C 25,7 km/h (4 Bft) 95,83 %
14.05.2016 12:49 15,4 C 78 % 1004,7 hPa 0,0 l/m 21,6 km/h (4 Bft) W-SW 252 1 min 0,000 mm 3,0 UV-I 668 W/m 11,6 C 9,9 C 29,0 km/h (5 Bft) 100,00 %
14.05.2016 12:50 15,4 C 78 % 1004,6 hPa 0,0 l/m 22,5 km/h (4 Bft) W-SW 256 1 min 0,000 mm 2,9 UV-I 502 W/m 11,6 C 9,7 C 29,0 km/h (5 Bft) 100,00 %
14.05.2016 12:51 15,3 C 77 % 1004,7 hPa 0,0 l/m 18,0 km/h (3 Bft) W-SW 245 1 min 0,000 mm 2,8 UV-I 489 W/m 11,3 C 10,7 C 24,1 km/h (4 Bft) 100,00 %
14.05.2016 12:52 15,3 C 79 % 1004,7 hPa 0,0 l/m 16,7 km/h (3 Bft) W-SW 257 1 min 0,000 mm 3,2 UV-I 490 W/m 11,7 C 11,0 C 24,1 km/h (4 Bft) 100,00 %
14.05.2016 12:53 15,3 C 80 % 1004,7 hPa 0,0 l/m 15,9 km/h (3 Bft) W 269 1 min 0,000 mm 3,3 UV-I 541 W/m 11,9 C 11,3 C 19,3 km/h (3 Bft) 100,00 %
14.05.2016 12:54 15,3 C 80 % 1004,7 hPa 0,0 l/m 14,2 km/h (3 Bft) W-SW 257 1 min 0,000 mm 3,3 UV-I 610 W/m 11,9 C 11,8 C 20,9 km/h (4 Bft) 100,00 %
14.05.2016 12:55 15,3 C 79 % 1004,7 hPa 0,0 l/m 17,6 km/h (3 Bft) W 261 1 min 0,000 mm 3,4 UV-I 607 W/m 11,7 C 10,8 C 25,7 km/h (4 Bft) 100,00 %
14.05.2016 12:56 15,3 C 80 % 1004,6 hPa 0,0 l/m 17,4 km/h (3 Bft) W 277 1 min 0,000 mm 3,4 UV-I 631 W/m 11,9 C 10,8 C 24,1 km/h (4 Bft) 100,00 %
14.05.2016 12:57 15,3 C 80 % 1004,6 hPa 0,0 l/m 16,1 km/h (3 Bft) W 259 1 min 0,000 mm 3,6 UV-I 677 W/m 11,9 C 11,2 C 22,5 km/h (4 Bft) 100,00 %
14.05.2016 12:58 15,3 C 79 % 1004,6 hPa 0,0 l/m 13,8 km/h (3 Bft) W-SW 255 1 min 0,000 mm 3,6 UV-I 659 W/m 11,7 C 12,0 C 19,3 km/h (3 Bft) 100,00 %
14.05.2016 12:59 15,4 C 80 % 1004,7 hPa 0,0 l/m 10,9 km/h (2 Bft) W 264 1 min 0,000 mm 3,3 UV-I 619 W/m 12,0 C 13,2 C 14,5 km/h (3 Bft) 100,00 %
14.05.2016 13:00 15,4 C 81 % 1004,7 hPa 0,0 l/m 9,5 km/h (2 Bft) W-NW 303 1 min 0,279 mm 3,2 UV-I 619 W/m 12,2 C 13,8 C 14,5 km/h (3 Bft) 100,00 %
14.05.2016 13:01 15,5 C 81 % 1004,7 hPa 0,0 l/m 13,0 km/h (3 Bft) W-SW 238 1 min 0,000 mm 3,1 UV-I 609 W/m 12,3 C 12,5 C 19,3 km/h (3 Bft) 100,00 %
14.05.2016 13:02 15,5 C 79 % 1004,7 hPa 0,0 l/m 14,8 km/h (3 Bft) W 270 0 min 0,000 mm 2,6 UV-I 414 W/m 11,9 C 11,9 C 20,9 km/h (4 Bft) 95,65 %
14.05.2016 13:03 15,5 C 80 % 1004,7 hPa 0,0 l/m 13,2 km/h (3 Bft) SW 224 0 min 0,000 mm 2,7 UV-I 409 W/m 12,1 C 12,4 C 25,7 km/h (4 Bft) 83,33 %
14.05.2016 13:04 15,4 C 79 % 1004,7 hPa 0,0 l/m 17,9 km/h (3 Bft) W-SW 246 0 min 0,000 mm 3,2 UV-I 452 W/m 11,8 C 10,8 C 24,1 km/h (4 Bft) 100,00 %
14.05.2016 13:05 15,5 C 81 % 1004,7 hPa 0,0 l/m 13,0 km/h (3 Bft) SW 234 0 min 0,000 mm 3,8 UV-I 452 W/m 12,3 C 12,5 C 17,7 km/h (3 Bft) 100,00 %
14.05.2016 13:06 15,6 C 79 % 1004,7 hPa 0,0 l/m 14,0 km/h (3 Bft) W 262 0 min 0,000 mm 3,7 UV-I 452 W/m 12,0 C 12,2 C 20,9 km/h (4 Bft) 96,15 %
14.05.2016 13:07 15,6 C 80 % 1004,7 hPa 0,0 l/m 12,2 km/h (2 Bft) SW 226 0 min 0,000 mm 4,0 UV-I 452 W/m 12,2 C 12,9 C 19,3 km/h (3 Bft) 100,00 %
14.05.2016 13:08 15,7 C 79 % 1004,7 hPa 0,0 l/m 16,5 km/h (3 Bft) W-SW 242 0 min 0,000 mm 4,4 UV-I 452 W/m 12,1 C 11,6 C 24,1 km/h (4 Bft) 96,55 %
14.05.2016 13:09 15,8 C 78 % 1004,7 hPa 0,0 l/m 19,9 km/h (4 Bft) SW 236 0 min 0,000 mm 4,9 UV-I 452 W/m 12,0 C 10,8 C 25,7 km/h (4 Bft) 100,00 %
14.05.2016 13:10 15,9 C 77 % 1004,7 hPa 0,0 l/m 16,7 km/h (3 Bft) SW 233 0 min 0,000 mm 5,0 UV-I 452 W/m 11,9 C 11,8 C 22,5 km/h (4 Bft) 91,67 %
14.05.2016 13:11 16,0 C 77 % 1004,7 hPa 0,0 l/m 18,8 km/h (3 Bft) S-SW 196 0 min 0,000 mm 3,6 UV-I 452 W/m 12,0 C 11,3 C 25,7 km/h (4 Bft) 100,00 %
14.05.2016 13:12 16,1 C 77 % 1004,7 hPa 0,0 l/m 12,6 km/h (3 Bft) SW 224 0 min 0,000 mm 2,9 UV-I 452 W/m 12,1 C 13,3 C 22,5 km/h (4 Bft) 95,83 %
14.05.2016 13:13 16,1 C 75 % 1004,8 hPa 0,0 l/m 16,7 km/h (3 Bft) W 262 0 min 0,000 mm 3,8 UV-I 461 W/m 11,7 C 12,0 C 24,1 km/h (4 Bft) 96,55 %
14.05.2016 13:14 16,1 C 72 % 1004,7 hPa 0,0 l/m 19,1 km/h (3 Bft) W 268 1 min 0,000 mm 3,7 UV-I 629 W/m 11,0 C 11,4 C 27,4 km/h (4 Bft) 100,00 %
14.05.2016 13:15 16,0 C 72 % 1004,8 hPa 0,0 l/m 21,1 km/h (4 Bft) SW 221 1 min 0,000 mm 4,4 UV-I 629 W/m 11,0 C 10,8 C 30,6 km/h (5 Bft) 100,00 %
14.05.2016 13:16 15,9 C 72 % 1004,8 hPa 0,0 l/m 17,2 km/h (3 Bft) W-SW 248 1 min 0,000 mm 4,7 UV-I 629 W/m 10,9 C 11,6 C 22,5 km/h (4 Bft) 96,30 %
14.05.2016 13:17 15,9 C 74 % 1004,8 hPa 0,0 l/m 11,8 km/h (2 Bft) W-SW 240 1 min 0,000 mm 4,8 UV-I 629 W/m 11,3 C 13,4 C 17,7 km/h (3 Bft) 96,55 %
14.05.2016 13:18 15,9 C 76 % 1004,7 hPa 0,0 l/m 20,5 km/h (4 Bft) W-SW 258 1 min 0,000 mm 4,6 UV-I 629 W/m 11,7 C 10,8 C 27,4 km/h (4 Bft) 93,33 %
14.05.2016 13:19 16,0 C 73 % 1004,7 hPa 0,0 l/m 11,8 km/h (2 Bft) SW 235 1 min 0,000 mm 4,0 UV-I 629 W/m 11,2 C 13,5 C 22,5 km/h (4 Bft) 96,15 %
14.05.2016 13:20 16,0 C 76 % 1004,8 hPa 0,0 l/m 12,0 km/h (2 Bft) W-SW 248 1 min 0,000 mm 3,7 UV-I 629 W/m 11,8 C 13,4 C 17,7 km/h (3 Bft) 100,00 %
14.05.2016 13:21 16,1 C 80 % 1004,8 hPa 0,0 l/m 15,0 km/h (3 Bft) W-SW 248 1 min 0,000 mm 3,9 UV-I 629 W/m 12,6 C 12,5 C 22,5 km/h (4 Bft) 94,12 %
14.05.2016 13:22 16,1 C 77 % 1004,8 hPa 0,0 l/m 15,3 km/h (3 Bft) SW 236 1 min 0,000 mm 2,9 UV-I 629 W/m 12,1 C 12,4 C 20,9 km/h (4 Bft) 100,00 %
14.05.2016 13:23 16,0 C 78 % 1004,8 hPa 0,0 l/m 17,1 km/h (3 Bft) W-SW 250 0 min 0,000 mm 2,7 UV-I 468 W/m 12,2 C 11,8 C 24,1 km/h (4 Bft) 93,10 %
14.05.2016 13:24 15,9 C 78 % 1004,8 hPa 0,0 l/m 15,0 km/h (3 Bft) W-SW 240 0 min 0,000 mm 4,1 UV-I 415 W/m 12,1 C 12,3 C 19,3 km/h (3 Bft) 93,33 %
14.05.2016 13:25 15,9 C 80 % 1004,7 hPa 0,0 l/m 14,4 km/h (3 Bft) W-SW 242 0 min 0,000 mm 4,3 UV-I 465 W/m 12,5 C 12,5 C 24,1 km/h (4 Bft) 95,65 %
14.05.2016 13:26 15,9 C 79 % 1004,7 hPa 0,0 l/m 21,7 km/h (4 Bft) S-SW 209 1 min 0,000 mm 3,9 UV-I 835 W/m 12,3 C 10,5 C 30,6 km/h (5 Bft) 95,83 %
14.05.2016 13:27 15,9 C 81 % 1004,7 hPa 0,0 l/m 14,4 km/h (3 Bft) S-SW 198 1 min 0,000 mm 3,5 UV-I 835 W/m 12,6 C 12,5 C 19,3 km/h (3 Bft) 100,00 %
14.05.2016 13:28 15,8 C 81 % 1004,7 hPa 0,0 l/m 13,5 km/h (3 Bft) S-SW 202 1 min 0,000 mm 2,6 UV-I 624 W/m 12,5 C 12,7 C 19,3 km/h (3 Bft) 97,37 %
14.05.2016 13:29 15,8 C 82 % 1004,8 hPa 0,0 l/m 14,5 km/h (3 Bft) S-SW 205 0 min 0,000 mm 2,3 UV-I 396 W/m 12,7 C 12,3 C 20,9 km/h (4 Bft) 100,00 %
14.05.2016 13:30 15,8 C 79 % 1004,8 hPa 0,0 l/m 16,7 km/h (3 Bft) S-SW 193 0 min 0,000 mm 1,9 UV-I 322 W/m 12,2 C 11,7 C 22,5 km/h (4 Bft) 96,67 %
14.05.2016 13:31 15,7 C 79 % 1004,8 hPa 0,0 l/m 15,5 km/h (3 Bft) S 185 0 min 0,000 mm 1,5 UV-I 263 W/m 12,1 C 11,9 C 25,7 km/h (4 Bft) 100,00 %
14.05.2016 13:32 15,5 C 80 % 1004,7 hPa 0,0 l/m 22,4 km/h (4 Bft) W-SW 246 0 min 0,000 mm 1,4 UV-I 237 W/m 12,1 C 9,8 C 32,2 km/h (5 Bft) 95,65 %
14.05.2016 13:33 15,4 C 80 % 1004,7 hPa 0,0 l/m 25,6 km/h (4 Bft) W-SW 240 0 min 0,000 mm 1,2 UV-I 215 W/m 12,0 C 9,0 C 40,2 km/h (6 Bft) 96,67 %
14.05.2016 13:34 15,2 C 79 % 1004,8 hPa 0,0 l/m 24,8 km/h (4 Bft) W-SW 244 0 min 0,000 mm 1,0 UV-I 181 W/m 11,6 C 8,9 C 33,8 km/h (5 Bft) 100,00 %
14.05.2016 13:35 15,1 C 79 % 1004,7 hPa 0,0 l/m 21,1 km/h (4 Bft) SW 227 0 min 0,000 mm 0,8 UV-I 160 W/m 11,5 C 9,6 C 30,6 km/h (5 Bft) 100,00 %
14.05.2016 13:36 14,9 C 80 % 1004,7 hPa 0,0 l/m 20,2 km/h (4 Bft) SW 233 0 min 0,000 mm 0,8 UV-I 145 W/m 11,5 C 9,6 C 27,4 km/h (4 Bft) 97,56 %
14.05.2016 13:37 14,8 C 80 % 1004,8 hPa 0,0 l/m 20,0 km/h (4 Bft) SW 235 0 min 0,000 mm 0,7 UV-I 134 W/m 11,4 C 9,5 C 27,4 km/h (4 Bft) 100,00 %
14.05.2016 13:38 14,7 C 80 % 1004,8 hPa 0,0 l/m 18,4 km/h (3 Bft) SW 222 0 min 0,000 mm 0,6 UV-I 115 W/m 11,3 C 9,8 C 27,4 km/h (4 Bft) 100,00 %
14.05.2016 13:39 14,6 C 81 % 1004,8 hPa 0,0 l/m 19,8 km/h (3 Bft) SW 223 0 min 0,000 mm 0,5 UV-I 101 W/m 11,4 C 9,3 C 27,4 km/h (4 Bft) 96,67 %
14.05.2016 13:40 14,4 C 83 % 1004,9 hPa 0,0 l/m 20,9 km/h (4 Bft) W 273 0 min 0,000 mm 0,5 UV-I 97 W/m 11,5 C 8,7 C 30,6 km/h (5 Bft) 100,00 %
14.05.2016 13:41 14,3 C 83 % 1004,9 hPa 0,0 l/m 17,4 km/h (3 Bft) W-SW 242 0 min 0,000 mm 0,5 UV-I 97 W/m 11,5 C 9,6 C 24,1 km/h (4 Bft) 100,00 %
14.05.2016 13:42 14,2 C 85 % 1004,9 hPa 0,0 l/m 20,5 km/h (4 Bft) SW 232 0 min 0,000 mm 0,5 UV-I 98 W/m 11,7 C 8,6 C 35,4 km/h (5 Bft) 100,00 %
14.05.2016 13:43 14,1 C 84 % 1004,9 hPa 0,0 l/m 24,5 km/h (4 Bft) S-SW 198 0 min 0,000 mm 0,5 UV-I 89 W/m 11,4 C 7,5 C 35,4 km/h (5 Bft) 98,44 %
14.05.2016 13:44 13,9 C 85 % 1004,9 hPa 0,0 l/m 22,4 km/h (4 Bft) SW 216 0 min 0,000 mm 0,0 UV-I 70 W/m 11,4 C 7,7 C 30,6 km/h (5 Bft) 95,74 %
14.05.2016 13:45 13,8 C 85 % 1004,9 hPa 0,0 l/m 18,7 km/h (3 Bft) W-SW 238 0 min 0,000 mm 0,0 UV-I 91 W/m 11,3 C 8,6 C 22,5 km/h (4 Bft) 93,33 %
14.05.2016 13:46 13,7 C 86 % 1004,9 hPa 0,2 l/m 13,0 km/h (3 Bft) S-SW 211 0 min 0,000 mm 0,2 UV-I 100 W/m 11,4 C 10,4 C 17,7 km/h (3 Bft) 100,00 %
14.05.2016 13:47 13,7 C 88 % 1004,9 hPa 0,0 l/m 11,8 km/h (2 Bft) W-SW 242 0 min 0,000 mm 0,6 UV-I 127 W/m 11,7 C 10,9 C 22,5 km/h (4 Bft) 96,30 %
14.05.2016 13:48 13,6 C 88 % 1004,9 hPa 0,0 l/m 16,7 km/h (3 Bft) SW 215 0 min 0,000 mm 0,9 UV-I 157 W/m 11,6 C 8,9 C 27,4 km/h (4 Bft) 100,00 %
14.05.2016 13:49 13,6 C 88 % 1004,9 hPa 0,0 l/m 13,3 km/h (3 Bft) SW 221 0 min 0,000 mm 1,0 UV-I 67 W/m 11,6 C 10,1 C 19,3 km/h (3 Bft) 100,00 %
14.05.2016 13:50 13,5 C 87 % 1004,8 hPa 0,0 l/m 12,9 km/h (3 Bft) SW 218 0 min 0,000 mm 1,1 UV-I 140 W/m 11,4 C 10,2 C 17,7 km/h (3 Bft) 96,15 %
14.05.2016 13:51 13,5 C 87 % 1004,8 hPa 0,0 l/m 13,3 km/h (3 Bft) SW 215 0 min 0,000 mm 1,3 UV-I 251 W/m 11,4 C 10,0 C 25,7 km/h (4 Bft) 100,00 %
14.05.2016 13:52 13,5 C 87 % 1004,8 hPa 0,0 l/m 13,7 km/h (3 Bft) S 187 0 min 0,000 mm 1,4 UV-I 267 W/m 11,4 C 9,9 C 19,3 km/h (3 Bft) 100,00 %
14.05.2016 13:53 13,6 C 88 % 1004,8 hPa 0,0 l/m 17,4 km/h (3 Bft) SW 223 0 min 0,000 mm 1,4 UV-I 261 W/m 11,6 C 8,7 C 24,1 km/h (4 Bft) 96,88 %
14.05.2016 13:54 13,6 C 88 % 1004,8 hPa 0,0 l/m 17,1 km/h (3 Bft) S-SW 209 0 min 0,000 mm 1,3 UV-I 255 W/m 11,6 C 8,8 C 27,4 km/h (4 Bft) 100,00 %
14.05.2016 13:55 13,7 C 87 % 1004,9 hPa 0,0 l/m 18,0 km/h (3 Bft) W-SW 242 0 min 0,000 mm 1,3 UV-I 265 W/m 11,6 C 8,6 C 27,4 km/h (4 Bft) 100,00 %
14.05.2016 13:56 13,7 C 87 % 1004,8 hPa 0,0 l/m 20,2 km/h (4 Bft) W-SW 237 0 min 0,000 mm 1,5 UV-I 286 W/m 11,6 C 8,0 C 29,0 km/h (5 Bft) 100,00 %
14.05.2016 13:57 13,8 C 87 % 1004,8 hPa 0,0 l/m 16,6 km/h (3 Bft) S-SW 201 0 min 0,000 mm 1,6 UV-I 318 W/m 11,7 C 9,2 C 22,5 km/h (4 Bft) 100,00 %
14.05.2016 13:58 13,8 C 87 % 1004,8 hPa 0,0 l/m 15,6 km/h (3 Bft) SW 223 0 min 0,000 mm 1,8 UV-I 353 W/m 11,7 C 9,5 C 20,9 km/h (4 Bft) 100,00 %
14.05.2016 13:59 13,9 C 87 % 1004,8 hPa 0,0 l/m 16,3 km/h (3 Bft) SW 234 0 min 0,000 mm 1,9 UV-I 372 W/m 11,8 C 9,4 C 20,9 km/h (4 Bft) 100,00 %
14.05.2016 14:00 14,1 C 87 % 1004,9 hPa 0,0 l/m 16,5 km/h (3 Bft) SW 229 0 min 0,000 mm 1,9 UV-I 373 W/m 12,0 C 9,6 C 25,7 km/h (4 Bft) 100,00 %
14.05.2016 14:01 14,1 C 86 % 1004,8 hPa 0,0 l/m 10,3 km/h (2 Bft) W-SW 242 0 min 0,279 mm 1,9 UV-I 363 W/m 11,8 C 12,0 C 22,5 km/h (4 Bft) 100,00 %
14.05.2016 14:02 14,2 C 86 % 1004,9 hPa 0,0 l/m 24,3 km/h (4 Bft) SW 234 0 min 0,000 mm 1,9 UV-I 357 W/m 11,9 C 7,7 C 32,2 km/h (5 Bft) 100,00 %
14.05.2016 14:03 14,3 C 85 % 1004,9 hPa 0,0 l/m 19,5 km/h (3 Bft) W-SW 244 0 min 0,000 mm 1,9 UV-I 353 W/m 11,8 C 9,0 C 25,7 km/h (4 Bft) 96,15 %
14.05.2016 14:04 14,3 C 85 % 1004,9 hPa 0,0 l/m 17,3 km/h (3 Bft) S-SW 211 0 min 0,000 mm 1,8 UV-I 353 W/m 11,8 C 9,6 C 22,5 km/h (4 Bft) 100,00 %
14.05.2016 14:05 14,4 C 85 % 1005,0 hPa 0,0 l/m 15,4 km/h (3 Bft) S-SW 202 0 min 0,000 mm 1,9 UV-I 360 W/m 11,9 C 10,3 C 20,9 km/h (4 Bft) 100,00 %
14.05.2016 14:06 14,4 C 85 % 1005,0 hPa 0,0 l/m 14,4 km/h (3 Bft) SW 216 0 min 0,000 mm 2,0 UV-I 380 W/m 11,9 C 10,7 C 19,3 km/h (3 Bft) 100,00 %
14.05.2016 14:07 14,6 C 85 % 1005,0 hPa 0,0 l/m 13,1 km/h (3 Bft) SW 223 0 min 0,000 mm 2,0 UV-I 388 W/m 12,1 C 11,4 C 25,7 km/h (4 Bft) 100,00 %
14.05.2016 14:08 14,6 C 84 % 1005,0 hPa 0,0 l/m 20,5 km/h (4 Bft) W-SW 240 0 min 0,000 mm 2,1 UV-I 394 W/m 11,9 C 9,1 C 29,0 km/h (5 Bft) 100,00 %
14.05.2016 14:09 14,6 C 83 % 1004,9 hPa 0,0 l/m 21,1 km/h (4 Bft) SW 221 0 min 0,000 mm 2,2 UV-I 399 W/m 11,7 C 9,0 C 30,6 km/h (5 Bft) 96,88 %
14.05.2016 14:10 14,6 C 82 % 1004,9 hPa 0,0 l/m 15,6 km/h (3 Bft) SW 217 0 min 0,000 mm 2,2 UV-I 404 W/m 11,6 C 10,5 C 25,7 km/h (4 Bft) 100,00 %
14.05.2016 14:11 14,7 C 83 % 1004,9 hPa 0,0 l/m 20,5 km/h (4 Bft) S-SW 211 0 min 0,000 mm 2,2 UV-I 412 W/m 11,8 C 9,2 C 29,0 km/h (5 Bft) 100,00 %
14.05.2016 14:12 14,7 C 82 % 1004,9 hPa 0,0 l/m 21,1 km/h (4 Bft) SW 224 0 min 0,000 mm 2,2 UV-I 423 W/m 11,7 C 9,1 C 29,0 km/h (5 Bft) 100,00 %
14.05.2016 14:13 14,7 C 82 % 1004,9 hPa 0,0 l/m 17,1 km/h (3 Bft) W-SW 245 0 min 0,000 mm 2,3 UV-I 432 W/m 11,7 C 10,2 C 24,1 km/h (4 Bft) 100,00 %
14.05.2016 14:14 14,8 C 82 % 1004,9 hPa 0,0 l/m 10,9 km/h (2 Bft) W-SW 242 0 min 0,000 mm 2,3 UV-I 439 W/m 11,8 C 12,5 C 17,7 km/h (3 Bft) 100,00 %
14.05.2016 14:15 14,9 C 82 % 1004,9 hPa 0,0 l/m 12,2 km/h (2 Bft) SW 223 0 min 0,000 mm 2,3 UV-I 450 W/m 11,9 C 12,1 C 16,1 km/h (3 Bft) 100,00 %
14.05.2016 14:16 14,9 C 83 % 1004,9 hPa 0,0 l/m 15,1 km/h (3 Bft) SW 226 0 min 0,000 mm 2,3 UV-I 450 W/m 12,0 C 11,0 C 22,5 km/h (4 Bft) 100,00 %
14.05.2016 14:17 15,0 C 83 % 1004,9 hPa 0,0 l/m 16,0 km/h (3 Bft) W 273 0 min 0,000 mm 2,3 UV-I 440 W/m 12,1 C 10,9 C 24,1 km/h (4 Bft) 100,00 %
14.05.2016 14:18 15,1 C 83 % 1004,9 hPa 0,0 l/m 12,1 km/h (2 Bft) SW 219 0 min 0,000 mm 2,3 UV-I 445 W/m 12,2 C 12,3 C 16,1 km/h (3 Bft) 95,65 %
14.05.2016 14:19 15,2 C 83 % 1004,9 hPa 0,0 l/m 13,1 km/h (3 Bft) SW 235 1 min 0,000 mm 2,4 UV-I 471 W/m 12,3 C 12,1 C 17,7 km/h (3 Bft) 100,00 %
14.05.2016 14:20 15,3 C 82 % 1004,9 hPa 0,0 l/m 13,8 km/h (3 Bft) SW 235 1 min 0,000 mm 2,5 UV-I 503 W/m 12,2 C 12,0 C 17,7 km/h (3 Bft) 100,00 %
14.05.2016 14:21 15,4 C 81 % 1004,9 hPa 0,0 l/m 19,6 km/h (3 Bft) W-SW 251 1 min 0,000 mm 2,5 UV-I 510 W/m 12,2 C 10,4 C 25,7 km/h (4 Bft) 100,00 %
14.05.2016 14:22 15,4 C 80 % 1004,9 hPa 0,0 l/m 18,2 km/h (3 Bft) SW 222 1 min 0,000 mm 2,6 UV-I 519 W/m 12,0 C 10,7 C 33,8 km/h (5 Bft) 100,00 %
14.05.2016 14:23 15,5 C 78 % 1004,8 hPa 0,0 l/m 24,1 km/h (4 Bft) W-SW 249 1 min 0,000 mm 2,5 UV-I 516 W/m 11,7 C 9,5 C 30,6 km/h (5 Bft) 100,00 %
14.05.2016 14:24 15,6 C 78 % 1004,8 hPa 0,0 l/m 21,4 km/h (4 Bft) W-SW 243 1 min 0,000 mm 2,4 UV-I 498 W/m 11,8 C 10,2 C 30,6 km/h (5 Bft) 100,00 %
14.05.2016 14:25 15,6 C 78 % 1004,9 hPa 0,0 l/m 25,0 km/h (4 Bft) W-SW 248 1 min 0,000 mm 2,4 UV-I 482 W/m 11,8 C 9,4 C 33,8 km/h (5 Bft) 100,00 %
14.05.2016 14:26 15,6 C 78 % 1004,9 hPa 0,0 l/m 20,5 km/h (4 Bft) W-SW 256 1 min 0,000 mm 2,4 UV-I 477 W/m 11,8 C 10,4 C 29,0 km/h (5 Bft) 100,00 %
14.05.2016 14:27 15,6 C 76 % 1004,9 hPa 0,0 l/m 20,1 km/h (4 Bft) W 265 1 min 0,000 mm 2,4 UV-I 472 W/m 11,4 C 10,5 C 24,1 km/h (4 Bft) 100,00 %
14.05.2016 14:28 15,6 C 75 % 1004,8 hPa 0,0 l/m 16,8 km/h (3 Bft) W-SW 252 1 min 0,000 mm 2,3 UV-I 466 W/m 11,2 C 11,4 C 24,1 km/h (4 Bft) 93,33 %
14.05.2016 14:29 15,6 C 76 % 1004,8 hPa 0,0 l/m 13,6 km/h (3 Bft) W-SW 253 0 min 0,000 mm 2,2 UV-I 439 W/m 11,4 C 12,4 C 19,3 km/h (3 Bft) 100,00 %
14.05.2016 14:30 15,6 C 76 % 1004,9 hPa 0,0 l/m 17,5 km/h (3 Bft) W-SW 238 0 min 0,000 mm 2,2 UV-I 431 W/m 11,4 C 11,2 C 27,4 km/h (4 Bft) 100,00 %
14.05.2016 14:31 15,7 C 76 % 1004,9 hPa 0,0 l/m 18,5 km/h (3 Bft) W-SW 243 0 min 0,000 mm 2,1 UV-I 431 W/m 11,5 C 11,0 C 20,9 km/h (4 Bft) 96,55 %
14.05.2016 14:32 15,7 C 76 % 1004,8 hPa 0,0 l/m 19,5 km/h (3 Bft) SW 227 0 min 0,000 mm 1,0 UV-I 424 W/m 11,5 C 10,8 C 30,6 km/h (5 Bft) 91,67 %
14.05.2016 14:33 15,7 C 75 % 1004,9 hPa 0,0 l/m 18,4 km/h (3 Bft) SW 219 0 min 0,000 mm 2,1 UV-I 419 W/m 11,3 C 11,1 C 30,6 km/h (5 Bft) 100,00 %
14.05.2016 14:34 15,7 C 76 % 1004,9 hPa 0,0 l/m 23,7 km/h (4 Bft) SW 221 0 min 0,000 mm 2,0 UV-I 421 W/m 11,5 C 9,8 C 32,2 km/h (5 Bft) 100,00 %
14.05.2016 14:35 15,6 C 77 % 1004,8 hPa 0,0 l/m 23,1 km/h (4 Bft) SW 232 0 min 0,000 mm 2,0 UV-I 412 W/m 11,6 C 9,8 C 27,4 km/h (4 Bft) 100,00 %
14.05.2016 14:36 15,6 C 77 % 1004,8 hPa 0,0 l/m 24,8 km/h (4 Bft) SW 219 0 min 0,000 mm 1,9 UV-I 364 W/m 11,6 C 9,5 C 33,8 km/h (5 Bft) 100,00 %
14.05.2016 14:37 15,6 C 76 % 1004,8 hPa 0,0 l/m 20,4 km/h (4 Bft) SW 216 0 min 0,000 mm 1,7 UV-I 339 W/m 11,4 C 10,4 C 30,6 km/h (5 Bft) 100,00 %
14.05.2016 14:38 15,6 C 77 % 1004,9 hPa 0,0 l/m 15,2 km/h (3 Bft) W-SW 254 0 min 0,000 mm 1,7 UV-I 346 W/m 11,6 C 11,9 C 19,3 km/h (3 Bft) 100,00 %
14.05.2016 14:39 15,6 C 78 % 1004,9 hPa 0,0 l/m 17,2 km/h (3 Bft) SW 226 0 min 0,000 mm 1,7 UV-I 360 W/m 11,8 C 11,3 C 25,7 km/h (4 Bft) 95,65 %
14.05.2016 14:40 15,5 C 77 % 1004,9 hPa 0,0 l/m 21,7 km/h (4 Bft) W-SW 252 0 min 0,000 mm 1,9 UV-I 375 W/m 11,5 C 10,0 C 30,6 km/h (5 Bft) 100,00 %
14.05.2016 14:41 15,5 C 77 % 1004,8 hPa 0,0 l/m 22,6 km/h (4 Bft) W-SW 247 0 min 0,000 mm 1,9 UV-I 389 W/m 11,5 C 9,8 C 30,6 km/h (5 Bft) 100,00 %
14.05.2016 14:42 15,5 C 76 % 1004,8 hPa 0,0 l/m 20,3 km/h (4 Bft) S 179 0 min 0,000 mm 2,0 UV-I 416 W/m 11,3 C 10,3 C 30,6 km/h (5 Bft) 100,00 %
14.05.2016 14:43 15,4 C 76 % 1004,8 hPa 0,0 l/m 19,6 km/h (3 Bft) S 191 0 min 0,000 mm 2,1 UV-I 438 W/m 11,2 C 10,4 C 27,4 km/h (4 Bft) 100,00 %
14.05.2016 14:44 15,4 C 75 % 1004,8 hPa 0,0 l/m 22,4 km/h (4 Bft) SW 221 0 min 0,000 mm 2,1 UV-I 432 W/m 11,0 C 9,7 C 32,2 km/h (5 Bft) 100,00 %
14.05.2016 14:45 15,4 C 75 % 1004,9 hPa 0,0 l/m 17,1 km/h (3 Bft) W-SW 243 0 min 0,000 mm 2,0 UV-I 429 W/m 11,0 C 11,0 C 24,1 km/h (4 Bft) 96,15 %
14.05.2016 14:46 15,4 C 75 % 1004,9 hPa 0,0 l/m 16,9 km/h (3 Bft) SW 229 1 min 0,000 mm 2,0 UV-I 446 W/m 11,0 C 11,1 C 27,4 km/h (4 Bft) 100,00 %
14.05.2016 14:47 15,4 C 76 % 1004,8 hPa 0,0 l/m 23,0 km/h (4 Bft) W-SW 248 1 min 0,000 mm 1,9 UV-I 450 W/m 11,2 C 9,6 C 33,8 km/h (5 Bft) 98,50 %
14.05.2016 14:48 15,4 C 76 % 1004,8 hPa 0,0 l/m 20,1 km/h (4 Bft) SW 225 0 min 0,000 mm 1,6 UV-I 410 W/m 11,2 C 10,2 C 30,6 km/h (5 Bft) 100,00 %
14.05.2016 14:49 15,4 C 76 % 1004,8 hPa 0,0 l/m 20,8 km/h (4 Bft) SW 222 0 min 0,000 mm 1,5 UV-I 327 W/m 11,2 C 10,1 C 30,6 km/h (5 Bft) 100,00 %
14.05.2016 14:50 15,3 C 75 % 1004,8 hPa 0,0 l/m 26,0 km/h (4 Bft) W-SW 237 0 min 0,000 mm 1,7 UV-I 375 W/m 10,9 C 8,8 C 32,2 km/h (5 Bft) 100,00 %
14.05.2016 14:51 15,3 C 75 % 1004,8 hPa 0,0 l/m 20,4 km/h (4 Bft) SW 223 0 min 0,000 mm 1,9 UV-I 419 W/m 10,9 C 10,0 C 29,0 km/h (5 Bft) 100,00 %
14.05.2016 14:52 15,2 C 75 % 1004,8 hPa 0,0 l/m 24,6 km/h (4 Bft) SW 234 0 min 0,000 mm 1,9 UV-I 410 W/m 10,8 C 9,0 C 29,0 km/h (5 Bft) 100,00 %
14.05.2016 14:53 15,2 C 76 % 1004,8 hPa 0,0 l/m 26,0 km/h (4 Bft) W-SW 256 0 min 0,000 mm 1,9 UV-I 388 W/m 11,0 C 8,7 C 37,0 km/h (5 Bft) 100,00 %
14.05.2016 14:54 15,2 C 76 % 1004,8 hPa 0,0 l/m 28,0 km/h (4 Bft) W-SW 242 0 min 0,000 mm 1,8 UV-I 370 W/m 11,0 C 8,3 C 33,8 km/h (5 Bft) 100,00 %
14.05.2016 14:55 15,2 C 74 % 1004,8 hPa 0,0 l/m 21,3 km/h (4 Bft) SW 223 0 min 0,000 mm 1,7 UV-I 352 W/m 10,6 C 9,7 C 33,8 km/h (5 Bft) 100,00 %
14.05.2016 14:56 15,1 C 75 % 1004,8 hPa 0,0 l/m 16,0 km/h (3 Bft) S-SW 194 0 min 0,000 mm 1,7 UV-I 336 W/m 10,7 C 11,0 C 19,3 km/h (3 Bft) 100,00 %
14.05.2016 14:57 15,1 C 74 % 1004,7 hPa 0,0 l/m 23,0 km/h (4 Bft) S-SW 207 0 min 0,000 mm 1,6 UV-I 321 W/m 10,5 C 9,2 C 30,6 km/h (5 Bft) 100,00 %
14.05.2016 14:58 14,9 C 74 % 1004,8 hPa 0,0 l/m 21,3 km/h (4 Bft) SW 227 0 min 0,000 mm 1,6 UV-I 315 W/m 10,3 C 9,3 C 30,6 km/h (5 Bft) 96,15 %
14.05.2016 14:59 14,9 C 74 % 1004,8 hPa 0,0 l/m 23,5 km/h (4 Bft) SW 214 0 min 0,000 mm 1,6 UV-I 317 W/m 10,3 C 8,8 C 32,2 km/h (5 Bft) 100,00 %
14.05.2016 15:00 14,8 C 74 % 1004,7 hPa 0,0 l/m 19,9 km/h (4 Bft) W 260 0 min 0,000 mm 1,6 UV-I 329 W/m 10,2 C 9,5 C 29,0 km/h (5 Bft) 100,00 %
14.05.2016 15:02 14,8 C 76 % 1004,8 hPa 0,0 l/m 20,0 km/h (4 Bft) S-SW 210 0 min 0,254 mm 1,7 UV-I 356 W/m 10,6 C 9,5 C 29,0 km/h (5 Bft) 97,56 %
14.05.2016 15:03 14,8 C 76 % 1004,8 hPa 0,0 l/m 17,5 km/h (3 Bft) SW 229 0 min 0,000 mm 1,7 UV-I 383 W/m 10,6 C 10,2 C 29,0 km/h (5 Bft) 92,59 %
14.05.2016 15:04 14,8 C 76 % 1004,8 hPa 0,0 l/m 15,1 km/h (3 Bft) W 261 0 min 0,000 mm 1,7 UV-I 370 W/m 10,6 C 10,9 C 19,3 km/h (3 Bft) 100,00 %
14.05.2016 15:05 14,8 C 78 % 1004,8 hPa 0,0 l/m 14,7 km/h (3 Bft) S-SW 196 0 min 0,000 mm 1,7 UV-I 365 W/m 11,0 C 11,1 C 20,9 km/h (4 Bft) 96,55 %
14.05.2016 15:06 14,9 C 76 % 1004,8 hPa 0,0 l/m 20,4 km/h (4 Bft) S-SW 200 0 min 0,000 mm 1,7 UV-I 349 W/m 10,7 C 9,5 C 38,6 km/h (5 Bft) 96,88 %
14.05.2016 15:07 14,9 C 75 % 1004,8 hPa 0,0 l/m 16,6 km/h (3 Bft) W-SW 257 0 min 0,000 mm 1,6 UV-I 341 W/m 10,5 C 10,6 C 22,5 km/h (4 Bft) 100,00 %
14.05.2016 15:08 14,9 C 76 % 1004,8 hPa 0,0 l/m 22,0 km/h (4 Bft) SW 214 0 min 0,000 mm 1,6 UV-I 331 W/m 10,7 C 9,1 C 35,4 km/h (5 Bft) 96,30 %
14.05.2016 15:09 14,8 C 74 % 1004,8 hPa 0,0 l/m 25,2 km/h (4 Bft) S-SW 203 0 min 0,000 mm 1,5 UV-I 320 W/m 10,2 C 8,3 C 32,2 km/h (5 Bft) 96,15 %
14.05.2016 15:10 14,8 C 74 % 1004,8 hPa 0,0 l/m 22,1 km/h (4 Bft) S 185 0 min 0,000 mm 1,5 UV-I 312 W/m 10,2 C 9,0 C 30,6 km/h (5 Bft) 96,30 %
14.05.2016 15:11 14,8 C 74 % 1004,7 hPa 0,0 l/m 25,7 km/h (4 Bft) W-SW 240 0 min 0,000 mm 1,4 UV-I 313 W/m 10,2 C 8,2 C 33,8 km/h (5 Bft) 100,00 %
14.05.2016 15:12 14,8 C 74 % 1004,7 hPa 0,0 l/m 19,0 km/h (3 Bft) S-SW 205 0 min 0,000 mm 1,4 UV-I 316 W/m 10,2 C 9,8 C 25,7 km/h (4 Bft) 96,97 %
14.05.2016 15:13 14,7 C 74 % 1004,7 hPa 0,0 l/m 25,0 km/h (4 Bft) W-SW 247 0 min 0,000 mm 1,5 UV-I 318 W/m 10,1 C 8,2 C 32,2 km/h (5 Bft) 96,15 %
14.05.2016 15:14 14,7 C 73 % 1004,8 hPa 0,0 l/m 14,2 km/h (3 Bft) S 182 0 min 0,000 mm 1,3 UV-I 318 W/m 9,9 C 11,1 C 19,3 km/h (3 Bft) 92,59 %
14.05.2016 15:15 14,7 C 74 % 1004,8 hPa 0,0 l/m 21,2 km/h (4 Bft) SW 225 0 min 0,000 mm 1,3 UV-I 287 W/m 10,1 C 9,1 C 32,2 km/h (5 Bft) 85,71 %
14.05.2016 15:16 14,6 C 74 % 1004,8 hPa 0,0 l/m 17,7 km/h (3 Bft) SW 232 0 min 0,000 mm 1,2 UV-I 250 W/m 10,0 C 9,9 C 27,4 km/h (4 Bft) 96,30 %
14.05.2016 15:17 14,6 C 73 % 1004,8 hPa 0,0 l/m 15,0 km/h (3 Bft) SW 234 0 min 0,000 mm 1,1 UV-I 225 W/m 9,8 C 10,7 C 22,5 km/h (4 Bft) 92,31 %
14.05.2016 15:18 14,6 C 75 % 1004,8 hPa 0,0 l/m 21,3 km/h (4 Bft) S 189 0 min 0,000 mm 1,0 UV-I 208 W/m 10,2 C 8,9 C 38,6 km/h (5 Bft) 100,00 %
14.05.2016 15:19 14,5 C 72 % 1004,8 hPa 0,0 l/m 23,2 km/h (4 Bft) SW 235 0 min 0,000 mm 0,9 UV-I 197 W/m 9,5 C 8,3 C 33,8 km/h (5 Bft) 96,15 %
14.05.2016 15:20 14,4 C 73 % 1004,8 hPa 0,0 l/m 19,4 km/h (3 Bft) SW 230 0 min 0,000 mm 0,9 UV-I 194 W/m 9,6 C 9,1 C 25,7 km/h (4 Bft) 100,00 %
14.05.2016 15:21 14,4 C 73 % 1004,9 hPa 0,0 l/m 18,6 km/h (3 Bft) S 171 0 min 0,000 mm 0,9 UV-I 202 W/m 9,6 C 9,4 C 32,2 km/h (5 Bft) 96,15 %
14.05.2016 15:22 14,4 C 73 % 1004,9 hPa 0,0 l/m 16,4 km/h (3 Bft) W 267 0 min 0,000 mm 1,0 UV-I 224 W/m 9,6 C 10,0 C 24,1 km/h (4 Bft) 100,00 %
14.05.2016 15:23 14,3 C 74 % 1004,9 hPa 0,0 l/m 20,3 km/h (4 Bft) S-SW 213 0 min 0,000 mm 1,2 UV-I 238 W/m 9,7 C 8,8 C 27,4 km/h (4 Bft) 95,65 %
14.05.2016 15:24 14,3 C 73 % 1004,9 hPa 0,0 l/m 19,5 km/h (3 Bft) S-SW 209 0 min 0,000 mm 1,3 UV-I 293 W/m 9,5 C 9,0 C 29,0 km/h (5 Bft) 95,83 %
14.05.2016 15:25 14,3 C 73 % 1005,0 hPa 0,0 l/m 21,6 km/h (4 Bft) W-SW 247 0 min 0,000 mm 1,4 UV-I 312 W/m 9,5 C 8,4 C 35,4 km/h (5 Bft) 100,00 %
14.05.2016 15:26 14,3 C 73 % 1005,1 hPa 0,0 l/m 21,9 km/h (4 Bft) W-SW 243 0 min 0,000 mm 1,4 UV-I 321 W/m 9,5 C 8,4 C 32,2 km/h (5 Bft) 95,83 %
14.05.2016 15:27 14,4 C 73 % 1004,9 hPa 0,0 l/m 17,3 km/h (3 Bft) S-SW 198 0 min 0,000 mm 1,5 UV-I 319 W/m 9,6 C 9,7 C 24,1 km/h (4 Bft) 100,00 %
14.05.2016 15:28 14,4 C 73 % 1004,9 hPa 0,0 l/m 20,8 km/h (4 Bft) S-SW 205 0 min 0,000 mm 1,4 UV-I 303 W/m 9,6 C 8,8 C 29,0 km/h (5 Bft) 95,83 %
14.05.2016 15:29 14,4 C 73 % 1004,8 hPa 0,0 l/m 26,4 km/h (4 Bft) W-SW 249 0 min 0,000 mm 1,3 UV-I 272 W/m 9,6 C 7,5 C 35,4 km/h (5 Bft) 100,00 %
14.05.2016 15:30 14,4 C 74 % 1004,8 hPa 0,0 l/m 20,1 km/h (4 Bft) SW 229 0 min 0,000 mm 1,2 UV-I 246 W/m 9,8 C 8,9 C 24,1 km/h (4 Bft) 96,15 %
14.05.2016 15:31 14,4 C 73 % 1004,9 hPa 0,0 l/m 20,3 km/h (4 Bft) SW 227 0 min 0,000 mm 1,0 UV-I 217 W/m 9,6 C 8,9 C 29,0 km/h (5 Bft) 100,00 %
14.05.2016 15:32 14,3 C 72 % 1004,8 hPa 0,0 l/m 24,9 km/h (4 Bft) S-SW 205 0 min 0,000 mm 0,9 UV-I 189 W/m 9,3 C 7,7 C 37,0 km/h (5 Bft) 96,15 %
14.05.2016 15:33 14,3 C 72 % 1004,8 hPa 0,0 l/m 24,6 km/h (4 Bft) SW 229 0 min 0,000 mm 0,7 UV-I 163 W/m 9,3 C 7,7 C 30,6 km/h (5 Bft) 100,00 %
14.05.2016 15:34 14,3 C 73 % 1004,8 hPa 0,0 l/m 21,1 km/h (4 Bft) SW 234 0 min 0,000 mm 0,6 UV-I 149 W/m 9,5 C 8,6 C 38,6 km/h (5 Bft) 100,00 %
14.05.2016 15:35 14,2 C 71 % 1004,8 hPa 0,0 l/m 27,0 km/h (4 Bft) SW 235 0 min 0,000 mm 0,6 UV-I 149 W/m 9,0 C 7,1 C 38,6 km/h (5 Bft) 100,00 %
14.05.2016 15:36 14,2 C 72 % 1004,8 hPa 0,0 l/m 18,3 km/h (3 Bft) S 190 0 min 0,000 mm 0,6 UV-I 158 W/m 9,2 C 9,2 C 25,7 km/h (4 Bft) 100,00 %
14.05.2016 15:37 14,2 C 73 % 1004,9 hPa 0,0 l/m 18,5 km/h (3 Bft) SW 223 0 min 0,000 mm 0,7 UV-I 177 W/m 9,4 C 9,1 C 20,9 km/h (4 Bft) 100,00 %
14.05.2016 15:38 14,2 C 73 % 1004,9 hPa 0,0 l/m 15,5 km/h (3 Bft) S-SW 198 0 min 0,000 mm 0,9 UV-I 208 W/m 9,4 C 10,1 C 20,9 km/h (4 Bft) 100,00 %
14.05.2016 15:39 14,2 C 73 % 1004,9 hPa 0,0 l/m 17,0 km/h (3 Bft) SW 221 0 min 0,000 mm 1,0 UV-I 240 W/m 9,4 C 9,6 C 22,5 km/h (4 Bft) 100,00 %
14.05.2016 15:40 14,2 C 74 % 1004,9 hPa 0,0 l/m 17,5 km/h (3 Bft) W-SW 256 0 min 0,000 mm 1,2 UV-I 287 W/m 9,6 C 9,4 C 27,4 km/h (4 Bft) 100,00 %
14.05.2016 15:41 14,2 C 74 % 1004,9 hPa 0,0 l/m 14,2 km/h (3 Bft) S-SW 197 0 min 0,000 mm 1,2 UV-I 290 W/m 9,6 C 10,5 C 19,3 km/h (3 Bft) 95,83 %
14.05.2016 15:42 14,2 C 74 % 1004,9 hPa 0,0 l/m 20,0 km/h (4 Bft) S-SW 207 0 min 0,000 mm 1,3 UV-I 302 W/m 9,6 C 8,7 C 30,6 km/h (5 Bft) 95,65 %
14.05.2016 15:43 14,3 C 73 % 1004,8 hPa 0,0 l/m 19,0 km/h (3 Bft) SW 232 0 min 0,000 mm 1,3 UV-I 308 W/m 9,5 C 9,1 C 27,4 km/h (4 Bft) 100,00 %
14.05.2016 15:44 14,3 C 74 % 1004,9 hPa 0,0 l/m 11,3 km/h (2 Bft) S-SW 208 0 min 0,000 mm 1,4 UV-I 314 W/m 9,7 C 11,8 C 17,7 km/h (3 Bft) 98,46 %
14.05.2016 15:45 14,3 C 73 % 1004,9 hPa 0,0 l/m 19,0 km/h (3 Bft) W-SW 240 0 min 0,000 mm 1,4 UV-I 318 W/m 9,5 C 9,1 C 25,7 km/h (4 Bft) 97,56 %
14.05.2016 15:46 14,4 C 72 % 1004,8 hPa 0,0 l/m 18,4 km/h (3 Bft) S-SW 206 0 min 0,000 mm 1,5 UV-I 322 W/m 9,4 C 9,4 C 24,1 km/h (4 Bft) 100,00 %
14.05.2016 15:47 14,4 C 73 % 1004,8 hPa 0,0 l/m 18,5 km/h (3 Bft) W-SW 252 0 min 0,000 mm 1,5 UV-I 325 W/m 9,6 C 9,4 C 25,7 km/h (4 Bft) 100,00 %
14.05.2016 15:48 14,4 C 72 % 1004,8 hPa 0,0 l/m 19,2 km/h (3 Bft) S 190 0 min 0,000 mm 1,5 UV-I 330 W/m 9,4 C 9,2 C 24,1 km/h (4 Bft) 100,00 %
14.05.2016 15:49 14,5 C 71 % 1004,8 hPa 0,0 l/m 18,0 km/h (3 Bft) S-SW 208 0 min 0,000 mm 1,5 UV-I 337 W/m 9,3 C 9,6 C 25,7 km/h (4 Bft) 97,73 %
14.05.2016 15:50 14,5 C 71 % 1004,8 hPa 0,0 l/m 16,7 km/h (3 Bft) SW 236 0 min 0,000 mm 1,5 UV-I 339 W/m 9,3 C 10,0 C 22,5 km/h (4 Bft) 100,00 %
14.05.2016 15:51 14,6 C 71 % 1004,9 hPa 0,0 l/m 17,2 km/h (3 Bft) S-SW 210 0 min 0,000 mm 1,5 UV-I 338 W/m 9,4 C 10,0 C 27,4 km/h (4 Bft) 95,65 %
14.05.2016 15:52 14,6 C 70 % 1004,9 hPa 0,0 l/m 18,8 km/h (3 Bft) SW 222 0 min 0,000 mm 1,5 UV-I 341 W/m 9,2 C 9,6 C 25,7 km/h (4 Bft) 100,00 %
14.05.2016 15:53 14,6 C 71 % 1004,8 hPa 0,0 l/m 21,9 km/h (4 Bft) W-SW 240 0 min 0,000 mm 1,5 UV-I 343 W/m 9,4 C 8,8 C 30,6 km/h (5 Bft) 100,00 %
14.05.2016 15:54 14,6 C 70 % 1004,7 hPa 0,0 l/m 19,0 km/h (3 Bft) W-SW 250 0 min 0,000 mm 1,5 UV-I 338 W/m 9,2 C 9,5 C 25,7 km/h (4 Bft) 95,83 %
14.05.2016 15:55 14,6 C 72 % 1004,7 hPa 0,0 l/m 18,2 km/h (3 Bft) W-SW 253 0 min 0,000 mm 1,4 UV-I 343 W/m 9,6 C 9,7 C 27,4 km/h (4 Bft) 100,00 %
14.05.2016 15:56 14,6 C 72 % 1004,7 hPa 0,0 l/m 12,4 km/h (3 Bft) S-SW 202 0 min 0,000 mm 1,5 UV-I 365 W/m 9,6 C 11,7 C 20,9 km/h (4 Bft) 100,00 %
14.05.2016 15:57 14,7 C 71 % 1004,7 hPa 0,0 l/m 11,8 km/h (2 Bft) SW 229 0 min 0,000 mm 1,5 UV-I 373 W/m 9,5 C 12,0 C 20,9 km/h (4 Bft) 100,00 %
14.05.2016 15:58 14,7 C 72 % 1004,7 hPa 0,0 l/m 14,6 km/h (3 Bft) SW 219 0 min 0,000 mm 1,5 UV-I 364 W/m 9,7 C 11,0 C 24,1 km/h (4 Bft) 100,00 %
14.05.2016 15:59 14,7 C 72 % 1004,7 hPa 0,0 l/m 26,8 km/h (4 Bft) N-NW 329 0 min 0,000 mm 1,5 UV-I 364 W/m 9,7 C 7,8 C 33,8 km/h (5 Bft) 96,15 %
14.05.2016 16:00 14,7 C 70 % 1004,7 hPa 0,0 l/m 21,6 km/h (4 Bft) SW 231 0 min 0,000 mm 1,5 UV-I 364 W/m 9,3 C 9,0 C 29,0 km/h (5 Bft) 100,00 %
14.05.2016 16:01 14,7 C 70 % 1004,7 hPa 0,0 l/m 16,9 km/h (3 Bft) S-SW 202 1 min 0,204 mm 1,5 UV-I 378 W/m 9,3 C 10,2 C 27,4 km/h (4 Bft) 100,00 %
14.05.2016 16:02 14,7 C 70 % 1004,7 hPa 0,0 l/m 20,2 km/h (4 Bft) SW 218 1 min 0,000 mm 1,6 UV-I 396 W/m 9,3 C 9,3 C 30,6 km/h (5 Bft) 96,15 %
14.05.2016 16:03 14,7 C 68 % 1004,7 hPa 0,0 l/m 22,7 km/h (4 Bft) SW 228 1 min 0,000 mm 1,7 UV-I 457 W/m 8,9 C 8,7 C 33,8 km/h (5 Bft) 100,00 %
14.05.2016 16:04 14,7 C 69 % 1004,7 hPa 0,0 l/m 26,3 km/h (4 Bft) SW 218 1 min 0,000 mm 1,7 UV-I 470 W/m 9,1 C 7,9 C 33,8 km/h (5 Bft) 100,00 %
14.05.2016 16:05 14,7 C 69 % 1004,7 hPa 0,0 l/m 18,4 km/h (3 Bft) S-SW 200 1 min 0,000 mm 1,7 UV-I 418 W/m 9,1 C 9,8 C 30,6 km/h (5 Bft) 100,00 %
14.05.2016 16:06 14,8 C 70 % 1004,8 hPa 0,0 l/m 16,5 km/h (3 Bft) S-SW 207 1 min 0,000 mm 1,9 UV-I 460 W/m 9,4 C 10,5 C 27,4 km/h (4 Bft) 94,12 %
14.05.2016 16:07 14,8 C 69 % 1004,8 hPa 0,0 l/m 22,9 km/h (4 Bft) S-SW 213 1 min 0,000 mm 1,8 UV-I 506 W/m 9,2 C 8,8 C 29,0 km/h (5 Bft) 100,00 %
14.05.2016 16:08 14,8 C 68 % 1004,8 hPa 0,0 l/m 22,5 km/h (4 Bft) S-SW 203 1 min 0,000 mm 1,7 UV-I 422 W/m 9,0 C 8,9 C 30,6 km/h (5 Bft) 100,00 %
14.05.2016 16:09 14,8 C 67 % 1004,8 hPa 0,0 l/m 21,8 km/h (4 Bft) W-SW 246 1 min 0,000 mm 1,8 UV-I 434 W/m 8,7 C 9,0 C 33,8 km/h (5 Bft) 100,00 %
14.05.2016 16:10 14,9 C 67 % 1004,8 hPa 0,0 l/m 19,7 km/h (3 Bft) W-SW 250 1 min 0,000 mm 2,1 UV-I 436 W/m 8,8 C 9,7 C 27,4 km/h (4 Bft) 100,00 %
14.05.2016 16:11 14,9 C 69 % 1004,7 hPa 0,0 l/m 27,1 km/h (4 Bft) W-NW 290 1 min 0,000 mm 2,3 UV-I 473 W/m 9,3 C 8,1 C 32,2 km/h (5 Bft) 100,00 %
14.05.2016 16:12 15,1 C 67 % 1004,8 hPa 0,0 l/m 21,0 km/h (4 Bft) SW 216 1 min 0,000 mm 2,3 UV-I 710 W/m 9,0 C 9,6 C 25,7 km/h (4 Bft) 100,00 %
14.05.2016 16:13 15,1 C 67 % 1004,8 hPa 0,0 l/m 17,9 km/h (3 Bft) SW 215 1 min 0,000 mm 2,2 UV-I 640 W/m 9,0 C 10,4 C 24,1 km/h (4 Bft) 100,00 %
14.05.2016 16:14 15,2 C 67 % 1004,7 hPa 0,0 l/m 27,1 km/h (4 Bft) W-SW 256 1 min 0,000 mm 2,3 UV-I 689 W/m 9,1 C 8,5 C 33,8 km/h (5 Bft) 98,48 %
14.05.2016 16:15 15,3 C 66 % 1004,7 hPa 0,0 l/m 23,3 km/h (4 Bft) W 265 1 min 0,000 mm 2,3 UV-I 706 W/m 9,0 C 9,4 C 32,2 km/h (5 Bft) 97,56 %
14.05.2016 16:16 15,3 C 66 % 1004,8 hPa 0,0 l/m 23,7 km/h (4 Bft) W 268 1 min 0,000 mm 2,3 UV-I 735 W/m 9,0 C 9,3 C 30,6 km/h (5 Bft) 100,00 %
14.05.2016 16:17 15,4 C 67 % 1004,8 hPa 0,0 l/m 22,9 km/h (4 Bft) SW 220 1 min 0,000 mm 2,3 UV-I 732 W/m 9,3 C 9,6 C 35,4 km/h (5 Bft) 98,48 %
14.05.2016 16:18 15,5 C 65 % 1004,9 hPa 0,0 l/m 20,4 km/h (4 Bft) SW 235 1 min 0,000 mm 2,3 UV-I 723 W/m 8,9 C 10,3 C 32,2 km/h (5 Bft) 100,00 %
14.05.2016 16:19 15,5 C 65 % 1005,0 hPa 0,0 l/m 24,3 km/h (4 Bft) SW 226 1 min 0,000 mm 2,3 UV-I 702 W/m 8,9 C 9,4 C 33,8 km/h (5 Bft) 96,67 %
14.05.2016 16:20 15,5 C 65 % 1004,9 hPa 0,0 l/m 24,1 km/h (4 Bft) W-SW 250 1 min 0,000 mm 2,2 UV-I 661 W/m 8,9 C 9,5 C 33,8 km/h (5 Bft) 95,65 %
14.05.2016 16:21 15,5 C 66 % 1004,8 hPa 0,0 l/m 22,7 km/h (4 Bft) S-SW 195 1 min 0,000 mm 2,2 UV-I 646 W/m 9,2 C 9,8 C 37,0 km/h (5 Bft) 100,00 %
14.05.2016 16:22 15,5 C 66 % 1004,9 hPa 0,0 l/m 31,5 km/h (5 Bft) W-SW 254 1 min 0,000 mm 2,2 UV-I 626 W/m 9,2 C 8,2 C 38,6 km/h (5 Bft) 100,00 %
14.05.2016 16:23 15,5 C 66 % 1004,8 hPa 0,0 l/m 19,2 km/h (3 Bft) SW 232 1 min 0,000 mm 2,1 UV-I 619 W/m 9,2 C 10,6 C 25,7 km/h (4 Bft) 100,00 %
14.05.2016 16:24 15,6 C 67 % 1004,9 hPa 0,0 l/m 17,1 km/h (3 Bft) W 268 1 min 0,000 mm 2,1 UV-I 616 W/m 9,5 C 11,3 C 29,0 km/h (5 Bft) 100,00 %
14.05.2016 16:25 15,6 C 65 % 1004,9 hPa 0,0 l/m 23,6 km/h (4 Bft) W-SW 238 1 min 0,000 mm 2,0 UV-I 591 W/m 9,0 C 9,7 C 30,6 km/h (5 Bft) 100,00 %
14.05.2016 16:26 15,6 C 63 % 1004,9 hPa 0,0 l/m 28,9 km/h (5 Bft) SW 236 1 min 0,000 mm 2,0 UV-I 584 W/m 8,6 C 8,7 C 41,8 km/h (6 Bft) 100,00 %
14.05.2016 16:27 15,5 C 64 % 1004,8 hPa 0,0 l/m 23,4 km/h (4 Bft) W 265 1 min 0,000 mm 2,1 UV-I 609 W/m 8,7 C 9,6 C 32,2 km/h (5 Bft) 93,33 %
14.05.2016 16:28 15,5 C 65 % 1004,9 hPa 0,0 l/m 21,2 km/h (4 Bft) W 262 1 min 0,000 mm 2,1 UV-I 622 W/m 8,9 C 10,1 C 29,0 km/h (5 Bft) 100,00 %
14.05.2016 16:29 15,5 C 65 % 1004,8 hPa 0,0 l/m 28,9 km/h (5 Bft) W-SW 254 1 min 0,000 mm 2,1 UV-I 628 W/m 8,9 C 8,6 C 40,2 km/h (6 Bft) 96,15 %
14.05.2016 16:30 15,4 C 65 % 1004,9 hPa 0,0 l/m 21,1 km/h (4 Bft) W-SW 256 1 min 0,000 mm 2,1 UV-I 630 W/m 8,9 C 10,0 C 29,0 km/h (5 Bft) 100,00 %
14.05.2016 16:31 15,4 C 65 % 1004,9 hPa 0,0 l/m 18,8 km/h (3 Bft) W 278 1 min 0,000 mm 2,0 UV-I 630 W/m 8,9 C 10,6 C 24,1 km/h (4 Bft) 100,00 %
14.05.2016 16:32 15,5 C 66 % 1004,9 hPa 0,0 l/m 19,5 km/h (3 Bft) SW 234 1 min 0,000 mm 2,0 UV-I 623 W/m 9,2 C 10,5 C 25,7 km/h (4 Bft) 100,00 %
14.05.2016 16:33 15,5 C 66 % 1004,9 hPa 0,0 l/m 18,9 km/h (3 Bft) W-SW 258 1 min 0,000 mm 2,0 UV-I 613 W/m 9,2 C 10,7 C 25,7 km/h (4 Bft) 96,15 %
14.05.2016 16:34 15,5 C 66 % 1004,9 hPa 0,0 l/m 20,8 km/h (4 Bft) W 278 1 min 0,000 mm 2,0 UV-I 604 W/m 9,2 C 10,2 C 32,2 km/h (5 Bft) 100,00 %
14.05.2016 16:35 15,4 C 66 % 1005,0 hPa 0,0 l/m 23,2 km/h (4 Bft) W-SW 252 1 min 0,000 mm 2,0 UV-I 592 W/m 9,1 C 9,5 C 29,0 km/h (5 Bft) 100,00 %
14.05.2016 16:36 15,4 C 65 % 1005,0 hPa 0,0 l/m 25,9 km/h (4 Bft) W-SW 242 1 min 0,000 mm 1,9 UV-I 598 W/m 8,9 C 9,0 C 37,0 km/h (5 Bft) 100,00 %
14.05.2016 16:37 15,4 C 66 % 1005,0 hPa 0,0 l/m 24,0 km/h (4 Bft) SW 235 1 min 0,000 mm 1,9 UV-I 588 W/m 9,1 C 9,4 C 32,2 km/h (5 Bft) 100,00 %
14.05.2016 16:38 15,4 C 66 % 1005,1 hPa 0,0 l/m 20,8 km/h (4 Bft) W-SW 240 1 min 0,000 mm 1,9 UV-I 584 W/m 9,1 C 10,1 C 29,0 km/h (5 Bft) 100,00 %
14.05.2016 16:39 15,4 C 66 % 1005,0 hPa 0,0 l/m 24,5 km/h (4 Bft) W-SW 242 1 min 0,000 mm 1,9 UV-I 580 W/m 9,1 C 9,3 C 32,2 km/h (5 Bft) 92,86 %
14.05.2016 16:40 15,4 C 65 % 1005,0 hPa 0,0 l/m 28,5 km/h (4 Bft) S 190 1 min 0,000 mm 1,8 UV-I 574 W/m 8,9 C 8,5 C 35,4 km/h (5 Bft) 100,00 %
14.05.2016 16:41 15,3 C 65 % 1005,1 hPa 0,0 l/m 26,5 km/h (4 Bft) SW 223 1 min 0,000 mm 1,8 UV-I 559 W/m 8,8 C 8,7 C 45,1 km/h (6 Bft) 100,00 %
14.05.2016 16:42 15,3 C 65 % 1005,0 hPa 0,0 l/m 24,9 km/h (4 Bft) W 263 1 min 0,000 mm 1,8 UV-I 543 W/m 8,8 C 9,0 C 33,8 km/h (5 Bft) 95,83 %
14.05.2016 16:43 15,2 C 66 % 1005,0 hPa 0,0 l/m 20,5 km/h (4 Bft) W-SW 253 1 min 0,000 mm 1,7 UV-I 538 W/m 8,9 C 9,9 C 30,6 km/h (5 Bft) 100,00 %
14.05.2016 16:44 15,3 C 67 % 1005,0 hPa 0,0 l/m 18,8 km/h (3 Bft) SW 228 1 min 0,000 mm 1,7 UV-I 522 W/m 9,2 C 10,4 C 29,0 km/h (5 Bft) 100,00 %
14.05.2016 16:45 15,3 C 68 % 1004,9 hPa 0,0 l/m 17,0 km/h (3 Bft) W 263 1 min 0,000 mm 1,7 UV-I 530 W/m 9,4 C 10,9 C 29,0 km/h (5 Bft) 96,15 %
14.05.2016 16:46 15,3 C 67 % 1005,0 hPa 0,0 l/m 17,5 km/h (3 Bft) SW 236 1 min 0,000 mm 1,7 UV-I 533 W/m 9,2 C 10,8 C 27,4 km/h (4 Bft) 100,00 %
14.05.2016 16:47 15,4 C 67 % 1005,0 hPa 0,0 l/m 16,0 km/h (3 Bft) W-SW 240 1 min 0,000 mm 1,7 UV-I 526 W/m 9,3 C 11,4 C 25,7 km/h (4 Bft) 100,00 %
14.05.2016 16:48 15,4 C 66 % 1005,0 hPa 0,0 l/m 22,2 km/h (4 Bft) W 266 1 min 0,000 mm 1,6 UV-I 522 W/m 9,1 C 9,7 C 32,2 km/h (5 Bft) 100,00 %
14.05.2016 16:49 15,4 C 66 % 1005,0 hPa 0,0 l/m 18,8 km/h (3 Bft) SW 229 1 min 0,000 mm 1,6 UV-I 513 W/m 9,1 C 10,6 C 25,7 km/h (4 Bft) 100,00 %
14.05.2016 16:50 15,4 C 66 % 1005,0 hPa 0,0 l/m 22,4 km/h (4 Bft) W-SW 257 1 min 0,000 mm 1,6 UV-I 503 W/m 9,1 C 9,7 C 37,0 km/h (5 Bft) 100,00 %
14.05.2016 16:51 15,4 C 65 % 1005,0 hPa 0,0 l/m 24,1 km/h (4 Bft) W 274 1 min 0,000 mm 1,6 UV-I 500 W/m 8,9 C 9,3 C 30,6 km/h (5 Bft) 100,00 %
14.05.2016 16:52 15,4 C 66 % 1005,0 hPa 0,0 l/m 19,2 km/h (3 Bft) S-SW 198 1 min 0,000 mm 1,6 UV-I 500 W/m 9,1 C 10,5 C 24,1 km/h (4 Bft) 100,00 %
14.05.2016 16:53 15,4 C 66 % 1005,0 hPa 0,0 l/m 9,3 km/h (2 Bft) W 275 1 min 0,000 mm 1,6 UV-I 499 W/m 9,1 C 13,9 C 16,1 km/h (3 Bft) 100,00 %
14.05.2016 16:54 15,4 C 66 % 1005,0 hPa 0,0 l/m 16,0 km/h (3 Bft) W-NW 283 1 min 0,000 mm 1,5 UV-I 494 W/m 9,1 C 11,4 C 24,1 km/h (4 Bft) 95,65 %
14.05.2016 16:55 15,4 C 67 % 1005,0 hPa 0,0 l/m 19,6 km/h (3 Bft) S-SW 208 1 min 0,000 mm 1,5 UV-I 493 W/m 9,3 C 10,4 C 30,6 km/h (5 Bft) 100,00 %
14.05.2016 16:56 15,4 C 68 % 1005,0 hPa 0,0 l/m 17,1 km/h (3 Bft) S-SW 209 1 min 0,000 mm 1,5 UV-I 496 W/m 9,5 C 11,0 C 24,1 km/h (4 Bft) 95,65 %
14.05.2016 16:57 15,4 C 68 % 1004,9 hPa 0,0 l/m 17,4 km/h (3 Bft) S-SO 148 1 min 0,000 mm 1,5 UV-I 491 W/m 9,5 C 11,0 C 27,4 km/h (4 Bft) 96,30 %
14.05.2016 16:58 15,5 C 67 % 1005,0 hPa 0,0 l/m 22,1 km/h (4 Bft) S-SW 199 1 min 0,000 mm 1,5 UV-I 503 W/m 9,4 C 9,9 C 35,4 km/h (5 Bft) 100,00 %
14.05.2016 16:59 15,5 C 66 % 1005,0 hPa 0,0 l/m 16,4 km/h (3 Bft) SW 236 1 min 0,000 mm 1,5 UV-I 506 W/m 9,2 C 11,4 C 24,1 km/h (4 Bft) 100,00 %
14.05.2016 17:00 15,5 C 67 % 1005,0 hPa 0,0 l/m 17,7 km/h (3 Bft) W-SW 242 1 min 0,000 mm 1,5 UV-I 512 W/m 9,4 C 11,0 C 25,7 km/h (4 Bft) 96,15 %
14.05.2016 17:01 15,5 C 68 % 1005,1 hPa 0,0 l/m 17,4 km/h (3 Bft) W-SW 258 1 min 0,381 mm 1,5 UV-I 492 W/m 9,6 C 11,1 C 27,4 km/h (4 Bft) 95,83 %
14.05.2016 17:02 15,6 C 67 % 1005,0 hPa 0,0 l/m 18,3 km/h (3 Bft) W-SW 244 1 min 0,000 mm 1,4 UV-I 485 W/m 9,5 C 11,0 C 24,1 km/h (4 Bft) 93,33 %
14.05.2016 17:03 15,6 C 68 % 1005,0 hPa 0,0 l/m 19,8 km/h (3 Bft) W-SW 248 1 min 0,000 mm 1,4 UV-I 451 W/m 9,7 C 10,6 C 25,7 km/h (4 Bft) 96,88 %
14.05.2016 17:04 15,6 C 69 % 1005,0 hPa 0,0 l/m 16,0 km/h (3 Bft) SW 231 1 min 0,000 mm 1,4 UV-I 481 W/m 9,9 C 11,6 C 22,5 km/h (4 Bft) 100,00 %
14.05.2016 17:05 15,6 C 68 % 1005,1 hPa 0,0 l/m 13,9 km/h (3 Bft) SW 235 1 min 0,000 mm 1,4 UV-I 475 W/m 9,7 C 12,3 C 17,7 km/h (3 Bft) 93,75 %
14.05.2016 17:06 15,6 C 68 % 1005,1 hPa 0,0 l/m 14,3 km/h (3 Bft) SW 235 1 min 0,000 mm 1,3 UV-I 460 W/m 9,7 C 12,1 C 24,1 km/h (4 Bft) 100,00 %
14.05.2016 17:07 15,7 C 68 % 1005,1 hPa 0,0 l/m 14,0 km/h (3 Bft) SW 229 1 min 0,000 mm 1,3 UV-I 460 W/m 9,8 C 12,4 C 24,1 km/h (4 Bft) 95,83 %
14.05.2016 17:08 15,7 C 68 % 1005,1 hPa 0,0 l/m 14,3 km/h (3 Bft) W-SW 246 1 min 0,000 mm 1,3 UV-I 458 W/m 9,8 C 12,3 C 24,1 km/h (4 Bft) 95,83 %
14.05.2016 17:09 15,7 C 68 % 1005,1 hPa 0,0 l/m 20,9 km/h (4 Bft) S-SW 206 1 min 0,000 mm 1,3 UV-I 425 W/m 9,8 C 10,4 C 29,0 km/h (5 Bft) 100,00 %
14.05.2016 17:10 15,7 C 68 % 1005,1 hPa 0,0 l/m 19,6 km/h (3 Bft) W-SW 242 1 min 0,000 mm 1,3 UV-I 427 W/m 9,8 C 10,7 C 25,7 km/h (4 Bft) 91,67 %
14.05.2016 17:11 15,6 C 67 % 1005,1 hPa 0,0 l/m 18,3 km/h (3 Bft) SW 234 1 min 0,000 mm 1,2 UV-I 411 W/m 9,5 C 11,0 C 22,5 km/h (4 Bft) 100,00 %
14.05.2016 17:12 15,6 C 67 % 1005,1 hPa 0,0 l/m 15,9 km/h (3 Bft) W-SW 257 1 min 0,000 mm 1,2 UV-I 435 W/m 9,5 C 11,6 C 25,7 km/h (4 Bft) 91,67 %
14.05.2016 17:13 15,6 C 68 % 1005,2 hPa 0,0 l/m 19,2 km/h (3 Bft) W-SW 252 1 min 0,000 mm 1,1 UV-I 428 W/m 9,7 C 10,7 C 29,0 km/h (5 Bft) 100,00 %
14.05.2016 17:14 15,6 C 68 % 1005,1 hPa 0,0 l/m 18,4 km/h (3 Bft) SW 217 0 min 0,000 mm 1,0 UV-I 173 W/m 9,7 C 10,9 C 29,0 km/h (5 Bft) 96,67 %
14.05.2016 17:15 15,6 C 67 % 1005,2 hPa 0,0 l/m 20,7 km/h (4 Bft) W-SW 250 0 min 0,000 mm 1,0 UV-I 204 W/m 9,5 C 10,4 C 27,4 km/h (4 Bft) 100,00 %
14.05.2016 17:16 15,5 C 67 % 1005,2 hPa 0,0 l/m 16,0 km/h (3 Bft) W-SW 258 0 min 0,000 mm 1,0 UV-I 232 W/m 9,4 C 11,5 C 22,5 km/h (4 Bft) 96,67 %
14.05.2016 17:17 15,5 C 68 % 1005,2 hPa 0,0 l/m 13,9 km/h (3 Bft) W-SW 249 0 min 0,000 mm 1,0 UV-I 232 W/m 9,6 C 12,2 C 22,5 km/h (4 Bft) 96,55 %
14.05.2016 17:18 15,5 C 67 % 1005,2 hPa 0,0 l/m 20,4 km/h (4 Bft) SW 219 0 min 0,000 mm 1,0 UV-I 232 W/m 9,4 C 10,3 C 29,0 km/h (5 Bft) 100,00 %
14.05.2016 17:19 15,5 C 67 % 1005,2 hPa 0,0 l/m 15,5 km/h (3 Bft) W 271 1 min 0,000 mm 0,9 UV-I 376 W/m 9,4 C 11,6 C 22,5 km/h (4 Bft) 96,55 %
14.05.2016 17:20 15,6 C 68 % 1005,2 hPa 0,0 l/m 17,5 km/h (3 Bft) W 259 1 min 0,000 mm 1,1 UV-I 396 W/m 9,7 C 11,2 C 29,0 km/h (5 Bft) 100,00 %
14.05.2016 17:21 15,6 C 67 % 1005,2 hPa 0,0 l/m 20,0 km/h (4 Bft) W-SW 258 1 min 0,000 mm 1,0 UV-I 401 W/m 9,5 C 10,5 C 29,0 km/h (5 Bft) 91,67 %
14.05.2016 17:22 15,6 C 67 % 1005,2 hPa 0,0 l/m 23,1 km/h (4 Bft) W-SW 255 1 min 0,000 mm 0,9 UV-I 384 W/m 9,5 C 9,8 C 30,6 km/h (5 Bft) 100,00 %
14.05.2016 17:23 15,6 C 66 % 1005,2 hPa 0,0 l/m 17,8 km/h (3 Bft) W-SW 241 1 min 0,000 mm 1,0 UV-I 329 W/m 9,3 C 11,1 C 24,1 km/h (4 Bft) 96,15 %
14.05.2016 17:24 15,7 C 67 % 1005,2 hPa 0,0 l/m 12,7 km/h (3 Bft) W-SW 257 0 min 0,000 mm 0,9 UV-I 211 W/m 9,6 C 12,8 C 19,3 km/h (3 Bft) 100,00 %
14.05.2016 17:25 15,7 C 66 % 1005,3 hPa 0,0 l/m 17,7 km/h (3 Bft) SW 236 0 min 0,000 mm 0,8 UV-I 214 W/m 9,4 C 11,2 C 27,4 km/h (4 Bft) 96,15 %
14.05.2016 17:26 15,7 C 66 % 1005,3 hPa 0,0 l/m 20,2 km/h (4 Bft) W 266 0 min 0,000 mm 0,8 UV-I 212 W/m 9,4 C 10,6 C 27,4 km/h (4 Bft) 100,00 %
14.05.2016 17:27 15,6 C 66 % 1005,2 hPa 0,0 l/m 19,6 km/h (3 Bft) W-SW 238 0 min 0,000 mm 0,7 UV-I 197 W/m 9,3 C 10,6 C 25,7 km/h (4 Bft) 100,00 %
14.05.2016 17:28 15,6 C 67 % 1005,2 hPa 0,0 l/m 18,0 km/h (3 Bft) W 259 0 min 0,000 mm 0,6 UV-I 181 W/m 9,5 C 11,0 C 27,4 km/h (4 Bft) 96,15 %
14.05.2016 17:29 15,4 C 67 % 1005,3 hPa 0,0 l/m 11,3 km/h (2 Bft) W 269 0 min 0,000 mm 0,5 UV-I 172 W/m 9,3 C 13,0 C 14,5 km/h (3 Bft) 100,00 %
14.05.2016 17:30 15,4 C 67 % 1005,4 hPa 0,0 l/m 14,8 km/h (3 Bft) W-SW 254 0 min 0,000 mm 0,5 UV-I 169 W/m 9,3 C 11,7 C 20,9 km/h (4 Bft) 100,00 %
14.05.2016 17:31 15,3 C 68 % 1005,4 hPa 0,0 l/m 13,3 km/h (3 Bft) W 267 0 min 0,000 mm 0,5 UV-I 172 W/m 9,4 C 12,1 C 17,7 km/h (3 Bft) 100,00 %
14.05.2016 17:32 15,3 C 68 % 1005,4 hPa 0,0 l/m 11,9 km/h (2 Bft) W-SW 248 0 min 0,000 mm 0,5 UV-I 182 W/m 9,4 C 12,7 C 17,7 km/h (3 Bft) 100,00 %
14.05.2016 17:33 15,3 C 69 % 1005,4 hPa 0,0 l/m 11,0 km/h (2 Bft) W 261 0 min 0,000 mm 0,5 UV-I 201 W/m 9,6 C 13,0 C 14,5 km/h (3 Bft) 100,00 %
14.05.2016 17:34 15,3 C 69 % 1005,4 hPa 0,0 l/m 11,8 km/h (2 Bft) W-SW 246 0 min 0,000 mm 0,6 UV-I 213 W/m 9,6 C 12,7 C 19,3 km/h (3 Bft) 100,00 %
14.05.2016 17:35 15,2 C 68 % 1005,4 hPa 0,0 l/m 7,4 km/h (2 Bft) W 277 0 min 0,000 mm 0,6 UV-I 216 W/m 9,3 C 14,6 C 12,9 km/h (3 Bft) 100,00 %
14.05.2016 17:36 15,2 C 68 % 1005,4 hPa 0,0 l/m 13,4 km/h (3 Bft) W-SW 257 0 min 0,000 mm 0,6 UV-I 214 W/m 9,3 C 12,0 C 17,7 km/h (3 Bft) 100,00 %
14.05.2016 17:37 15,2 C 68 % 1005,5 hPa 0,0 l/m 10,2 km/h (2 Bft) N-NO 12 0 min 0,000 mm 0,6 UV-I 206 W/m 9,3 C 13,2 C 19,3 km/h (3 Bft) 100,00 %
14.05.2016 17:38 15,1 C 69 % 1005,6 hPa 0,0 l/m 10,8 km/h (2 Bft) W-SW 246 0 min 0,000 mm 0,6 UV-I 205 W/m 9,5 C 12,9 C 17,7 km/h (3 Bft) 100,00 %
14.05.2016 17:39 15,1 C 68 % 1005,6 hPa 0,0 l/m 14,2 km/h (3 Bft) W-SW 245 0 min 0,000 mm 0,6 UV-I 212 W/m 9,2 C 11,6 C 17,7 km/h (3 Bft) 100,00 %
14.05.2016 17:40 15,0 C 68 % 1005,6 hPa 0,0 l/m 12,7 km/h (3 Bft) W-NW 291 0 min 0,000 mm 0,7 UV-I 212 W/m 9,1 C 12,0 C 19,3 km/h (3 Bft) 93,75 %
14.05.2016 17:41 15,0 C 70 % 1005,6 hPa 0,0 l/m 8,0 km/h (2 Bft) W 274 0 min 0,000 mm 0,7 UV-I 208 W/m 9,6 C 14,1 C 14,5 km/h (3 Bft) 100,00 %
14.05.2016 17:42 15,0 C 69 % 1005,6 hPa 0,0 l/m 13,3 km/h (3 Bft) W 271 0 min 0,000 mm 0,6 UV-I 204 W/m 9,4 C 11,8 C 20,9 km/h (4 Bft) 100,00 %
14.05.2016 17:43 14,9 C 69 % 1005,6 hPa 0,0 l/m 13,0 km/h (3 Bft) W-SW 256 0 min 0,000 mm 0,6 UV-I 199 W/m 9,3 C 11,8 C 16,1 km/h (3 Bft) 100,00 %
14.05.2016 17:44 15,0 C 69 % 1005,6 hPa 0,0 l/m 10,5 km/h (2 Bft) W-SW 250 0 min 0,000 mm 0,6 UV-I 196 W/m 9,4 C 12,9 C 17,7 km/h (3 Bft) 100,00 %
14.05.2016 17:45 14,9 C 69 % 1005,6 hPa 0,0 l/m 9,9 km/h (2 Bft) W 271 0 min 0,000 mm 0,6 UV-I 193 W/m 9,3 C 13,1 C 12,9 km/h (3 Bft) 100,00 %
14.05.2016 17:46 14,9 C 68 % 1005,6 hPa 0,0 l/m 6,7 km/h (2 Bft) NW 317 0 min 0,000 mm 0,6 UV-I 194 W/m 9,0 C 14,7 C 12,9 km/h (3 Bft) 100,00 %
14.05.2016 17:47 14,9 C 69 % 1005,6 hPa 0,0 l/m 10,7 km/h (2 Bft) W 271 0 min 0,000 mm 0,6 UV-I 195 W/m 9,3 C 12,7 C 19,3 km/h (3 Bft) 100,00 %
14.05.2016 17:48 14,9 C 69 % 1005,6 hPa 0,0 l/m 5,6 km/h (1 Bft) S-SW 207 0 min 0,000 mm 0,6 UV-I 183 W/m 9,3 C 14,9 C 6,4 km/h (2 Bft) 100,00 %
14.05.2016 17:49 14,9 C 69 % 1005,6 hPa 0,0 l/m 11,8 km/h (2 Bft) SW 235 0 min 0,000 mm 0,6 UV-I 173 W/m 9,3 C 12,2 C 20,9 km/h (4 Bft) 100,00 %
14.05.2016 17:50 14,9 C 68 % 1005,6 hPa 0,0 l/m 8,4 km/h (2 Bft) S-SO 159 0 min 0,000 mm 0,6 UV-I 179 W/m 9,0 C 13,8 C 12,9 km/h (3 Bft) 100,00 %
14.05.2016 17:51 14,9 C 69 % 1005,6 hPa 0,0 l/m 8,7 km/h (2 Bft) SW 229 0 min 0,000 mm 0,6 UV-I 195 W/m 9,3 C 13,6 C 16,1 km/h (3 Bft) 100,00 %
14.05.2016 17:52 14,9 C 68 % 1005,7 hPa 0,0 l/m 11,7 km/h (2 Bft) W-SW 254 0 min 0,000 mm 0,6 UV-I 229 W/m 9,0 C 12,3 C 14,5 km/h (3 Bft) 100,00 %
14.05.2016 17:53 14,9 C 67 % 1005,7 hPa 0,0 l/m 14,3 km/h (3 Bft) W-NW 300 1 min 0,000 mm 0,6 UV-I 248 W/m 8,8 C 11,3 C 19,3 km/h (3 Bft) 96,15 %
14.05.2016 17:54 14,9 C 67 % 1005,6 hPa 0,0 l/m 13,1 km/h (3 Bft) W 260 0 min 0,000 mm 0,6 UV-I 222 W/m 8,8 C 11,7 C 19,3 km/h (3 Bft) 100,00 %
14.05.2016 17:55 14,9 C 68 % 1005,6 hPa 0,0 l/m 7,6 km/h (2 Bft) SW 226 0 min 0,000 mm 0,6 UV-I 184 W/m 9,0 C 14,2 C 14,5 km/h (3 Bft) 100,00 %
14.05.2016 17:56 14,9 C 68 % 1005,7 hPa 0,0 l/m 2,4 km/h (1 Bft) W 260 0 min 0,000 mm 0,6 UV-I 180 W/m 9,0 C 14,9 C 11,3 km/h (2 Bft) 100,00 %
14.05.2016 17:57 14,9 C 69 % 1005,7 hPa 0,0 l/m 8,9 km/h (2 Bft) W 263 0 min 0,000 mm 0,6 UV-I 165 W/m 9,3 C 13,5 C 14,5 km/h (3 Bft) 100,00 %
14.05.2016 17:58 14,9 C 67 % 1005,8 hPa 0,0 l/m 9,2 km/h (2 Bft) W-SW 246 0 min 0,000 mm 0,5 UV-I 150 W/m 8,8 C 13,4 C 12,9 km/h (3 Bft) 100,00 %
14.05.2016 17:59 14,9 C 67 % 1005,7 hPa 0,0 l/m 6,7 km/h (2 Bft) W 277 0 min 0,000 mm 0,5 UV-I 142 W/m 8,8 C 14,7 C 12,9 km/h (3 Bft) 100,00 %
14.05.2016 18:00 14,9 C 68 % 1005,8 hPa 0,0 l/m 5,8 km/h (2 Bft) W-NW 291 0 min 0,000 mm 0,5 UV-I 135 W/m 9,0 C 14,9 C 11,3 km/h (2 Bft) 100,00 %
14.05.2016 18:02 14,8 C 69 % 1005,8 hPa 0,0 l/m 4,2 km/h (1 Bft) W-NW 300 0 min 0,203 mm 0,2 UV-I 114 W/m 9,2 C 14,8 C 11,3 km/h (2 Bft) 98,11 %
14.05.2016 18:03 14,7 C 69 % 1005,8 hPa 0,0 l/m 9,2 km/h (2 Bft) SW 232 0 min 0,000 mm 0,0 UV-I 96 W/m 9,1 C 13,2 C 12,9 km/h (3 Bft) 100,00 %
14.05.2016 18:04 14,7 C 69 % 1005,8 hPa 0,0 l/m 9,7 km/h (2 Bft) N-NW 332 0 min 0,000 mm 0,0 UV-I 89 W/m 9,1 C 12,9 C 17,7 km/h (3 Bft) 100,00 %
14.05.2016 18:05 14,7 C 69 % 1005,8 hPa 0,0 l/m 6,9 km/h (2 Bft) W 271 0 min 0,000 mm 0,0 UV-I 85 W/m 9,1 C 14,4 C 12,9 km/h (3 Bft) 100,00 %
14.05.2016 18:06 14,6 C 68 % 1005,9 hPa 0,0 l/m 6,0 km/h (2 Bft) W 263 0 min 0,000 mm 0,0 UV-I 83 W/m 8,8 C 14,6 C 9,7 km/h (2 Bft) 100,00 %
14.05.2016 18:07 14,6 C 69 % 1005,9 hPa 0,0 l/m 7,5 km/h (2 Bft) W 263 0 min 0,000 mm 0,0 UV-I 81 W/m 9,0 C 14,0 C 11,3 km/h (2 Bft) 100,00 %
14.05.2016 18:08 14,6 C 69 % 1005,9 hPa 0,0 l/m 4,4 km/h (1 Bft) W 271 0 min 0,000 mm 0,0 UV-I 80 W/m 9,0 C 14,6 C 8,0 km/h (2 Bft) 95,83 %
14.05.2016 18:09 14,5 C 69 % 1005,9 hPa 0,0 l/m 6,8 km/h (2 Bft) W-NW 296 0 min 0,000 mm 0,0 UV-I 75 W/m 8,9 C 14,3 C 14,5 km/h (3 Bft) 100,00 %
14.05.2016 18:10 14,4 C 70 % 1005,9 hPa 0,0 l/m 6,4 km/h (2 Bft) W-NW 286 0 min 0,000 mm 0,0 UV-I 71 W/m 9,0 C 14,4 C 11,3 km/h (2 Bft) 100,00 %
14.05.2016 18:11 14,4 C 70 % 1005,9 hPa 0,0 l/m 5,3 km/h (1 Bft) W 274 0 min 0,000 mm 0,0 UV-I 64 W/m 9,0 C 14,4 C 12,9 km/h (3 Bft) 100,00 %
14.05.2016 18:12 14,4 C 69 % 1005,9 hPa 0,0 l/m 12,0 km/h (2 Bft) W-SW 243 0 min 0,000 mm 0,0 UV-I 58 W/m 8,8 C 11,6 C 17,7 km/h (3 Bft) 100,00 %
14.05.2016 18:13 14,3 C 70 % 1006,0 hPa 0,0 l/m 11,4 km/h (2 Bft) W 268 0 min 0,000 mm 0,0 UV-I 56 W/m 8,9 C 11,7 C 16,1 km/h (3 Bft) 100,00 %
14.05.2016 18:14 14,3 C 68 % 1005,9 hPa 0,0 l/m 6,9 km/h (2 Bft) W-SW 253 0 min 0,000 mm 0,0 UV-I 54 W/m 8,5 C 14,0 C 11,3 km/h (2 Bft) 96,55 %
14.05.2016 18:15 14,3 C 69 % 1005,9 hPa 0,0 l/m 4,4 km/h (1 Bft) W 269 0 min 0,000 mm 0,0 UV-I 53 W/m 8,7 C 14,3 C 6,4 km/h (2 Bft) 100,00 %
14.05.2016 18:16 14,3 C 69 % 1005,9 hPa 0,0 l/m 11,0 km/h (2 Bft) W-SW 257 0 min 0,000 mm 0,0 UV-I 53 W/m 8,7 C 11,9 C 17,7 km/h (3 Bft) 98,52 %
14.05.2016 18:17 14,3 C 68 % 1006,0 hPa 0,0 l/m 7,2 km/h (2 Bft) W-SW 245 0 min 0,000 mm 0,0 UV-I 54 W/m 8,5 C 13,8 C 12,9 km/h (3 Bft) 100,00 %
14.05.2016 18:18 14,3 C 69 % 1006,0 hPa 0,0 l/m 4,1 km/h (1 Bft) W-SW 245 0 min 0,000 mm 0,0 UV-I 58 W/m 8,7 C 14,3 C 6,4 km/h (2 Bft) 100,00 %
14.05.2016 18:19 14,3 C 70 % 1005,9 hPa 0,0 l/m 4,8 km/h (1 Bft) W-SW 238 0 min 0,000 mm 0,0 UV-I 63 W/m 8,9 C 14,3 C 6,4 km/h (2 Bft) 100,00 %
14.05.2016 18:20 14,2 C 70 % 1005,9 hPa 0,0 l/m 9,2 km/h (2 Bft) W 266 0 min 0,000 mm 0,0 UV-I 71 W/m 8,8 C 12,6 C 19,3 km/h (3 Bft) 95,65 %
14.05.2016 18:21 14,2 C 69 % 1005,9 hPa 0,0 l/m 13,4 km/h (3 Bft) W 266 0 min 0,000 mm 0,0 UV-I 80 W/m 8,6 C 10,8 C 17,7 km/h (3 Bft) 100,00 %
14.05.2016 18:22 14,2 C 69 % 1005,9 hPa 0,0 l/m 11,3 km/h (2 Bft) W 281 0 min 0,000 mm 0,0 UV-I 92 W/m 8,6 C 11,6 C 20,9 km/h (4 Bft) 100,00 %
14.05.2016 18:23 14,2 C 70 % 1005,9 hPa 0,0 l/m 9,4 km/h (2 Bft) W 274 0 min 0,000 mm 0,0 UV-I 99 W/m 8,8 C 12,5 C 16,1 km/h (3 Bft) 100,00 %
14.05.2016 18:24 14,2 C 70 % 1005,9 hPa 0,0 l/m 9,8 km/h (2 Bft) W 269 0 min 0,000 mm 0,0 UV-I 108 W/m 8,8 C 12,3 C 14,5 km/h (3 Bft) 100,00 %
14.05.2016 18:25 14,2 C 70 % 1005,9 hPa 0,0 l/m 8,9 km/h (2 Bft) W-SW 252 0 min 0,000 mm 0,0 UV-I 116 W/m 8,8 C 12,8 C 12,9 km/h (3 Bft) 100,00 %
14.05.2016 18:26 14,1 C 71 % 1006,0 hPa 0,0 l/m 6,0 km/h (2 Bft) W 273 0 min 0,000 mm 0,0 UV-I 127 W/m 8,9 C 14,1 C 11,3 km/h (2 Bft) 100,00 %
14.05.2016 18:27 14,2 C 71 % 1005,9 hPa 0,0 l/m 4,9 km/h (1 Bft) SW 235 0 min 0,000 mm 0,0 UV-I 132 W/m 9,0 C 14,2 C 8,0 km/h (2 Bft) 96,30 %
14.05.2016 18:28 14,1 C 69 % 1006,0 hPa 0,0 l/m 8,9 km/h (2 Bft) W 270 0 min 0,000 mm 0,0 UV-I 134 W/m 8,5 C 12,7 C 12,9 km/h (3 Bft) 100,00 %
14.05.2016 18:29 14,2 C 69 % 1006,0 hPa 0,0 l/m 7,1 km/h (2 Bft) W-NW 294 0 min 0,000 mm 0,0 UV-I 132 W/m 8,6 C 13,8 C 14,5 km/h (3 Bft) 100,00 %
14.05.2016 18:30 14,2 C 69 % 1006,0 hPa 0,0 l/m 3,4 km/h (1 Bft) W 272 0 min 0,000 mm 0,0 UV-I 127 W/m 8,6 C 14,2 C 6,4 km/h (2 Bft) 96,30 %
14.05.2016 18:31 14,2 C 69 % 1006,0 hPa 0,0 l/m 2,4 km/h (1 Bft) W-SW 255 0 min 0,000 mm 0,0 UV-I 121 W/m 8,6 C 14,2 C 4,8 km/h (1 Bft) 95,65 %
14.05.2016 18:32 14,2 C 69 % 1006,0 hPa 0,0 l/m 2,7 km/h (1 Bft) NW 324 0 min 0,000 mm 0,0 UV-I 115 W/m 8,6 C 14,2 C 8,0 km/h (2 Bft) 100,00 %
14.05.2016 18:33 14,2 C 70 % 1006,0 hPa 0,0 l/m 3,1 km/h (1 Bft) W-NW 296 0 min 0,000 mm 0,0 UV-I 107 W/m 8,8 C 14,2 C 6,4 km/h (2 Bft) 100,00 %
14.05.2016 18:34 14,2 C 71 % 1006,0 hPa 0,0 l/m 7,4 km/h (2 Bft) W-NW 298 0 min 0,000 mm 0,0 UV-I 99 W/m 9,0 C 13,6 C 12,9 km/h (3 Bft) 95,83 %
14.05.2016 18:35 14,2 C 71 % 1006,0 hPa 0,0 l/m 4,2 km/h (1 Bft) N-NW 347 0 min 0,000 mm 0,0 UV-I 87 W/m 9,0 C 14,2 C 11,3 km/h (2 Bft) 100,00 %
14.05.2016 18:36 14,2 C 72 % 1006,0 hPa 0,0 l/m 3,2 km/h (1 Bft) N 5 0 min 0,000 mm 0,0 UV-I 76 W/m 9,2 C 14,2 C 6,4 km/h (2 Bft) 95,83 %
14.05.2016 18:37 14,1 C 72 % 1006,1 hPa 0,0 l/m 4,0 km/h (1 Bft) NW 317 0 min 0,000 mm 0,0 UV-I 71 W/m 9,1 C 14,1 C 6,4 km/h (2 Bft) 100,00 %
14.05.2016 18:38 14,1 C 72 % 1006,1 hPa 0,0 l/m 4,2 km/h (1 Bft) W-NW 292 0 min 0,000 mm 0,0 UV-I 69 W/m 9,1 C 14,1 C 9,7 km/h (2 Bft) 93,33 %
14.05.2016 18:39 14,1 C 72 % 1006,1 hPa 0,0 l/m 0,8 km/h (0 Bft) W-NW 292 0 min 0,000 mm 0,0 UV-I 70 W/m 9,1 C 14,1 C 3,2 km/h (1 Bft) 100,00 %
14.05.2016 18:40 14,0 C 73 % 1006,1 hPa 0,0 l/m 7,9 km/h (2 Bft) W-NW 299 0 min 0,000 mm 0,0 UV-I 70 W/m 9,2 C 13,1 C 19,3 km/h (3 Bft) 100,00 %
14.05.2016 18:41 14,0 C 71 % 1006,0 hPa 0,0 l/m 10,2 km/h (2 Bft) W-NW 299 0 min 0,000 mm 0,0 UV-I 70 W/m 8,8 C 11,9 C 17,7 km/h (3 Bft) 96,30 %
14.05.2016 18:42 14,0 C 71 % 1006,1 hPa 0,0 l/m 3,7 km/h (1 Bft) NW 326 0 min 0,000 mm 0,0 UV-I 70 W/m 8,8 C 14,0 C 6,4 km/h (2 Bft) 100,00 %
14.05.2016 18:43 14,0 C 73 % 1006,2 hPa 0,0 l/m 3,8 km/h (1 Bft) W-SW 242 0 min 0,000 mm 0,0 UV-I 69 W/m 9,2 C 14,0 C 6,4 km/h (2 Bft) 100,00 %
14.05.2016 18:44 13,9 C 72 % 1006,1 hPa 0,0 l/m 2,6 km/h (1 Bft) NW 312 0 min 0,000 mm 0,0 UV-I 69 W/m 8,9 C 13,9 C 4,8 km/h (1 Bft) 100,00 %
14.05.2016 18:45 13,9 C 73 % 1006,1 hPa 0,0 l/m 3,4 km/h (1 Bft) W-SW 242 0 min 0,000 mm 0,0 UV-I 73 W/m 9,1 C 13,9 C 6,4 km/h (2 Bft) 95,65 %
14.05.2016 18:46 13,9 C 72 % 1006,2 hPa 0,0 l/m 5,5 km/h (1 Bft) W-SW 244 0 min 0,000 mm 0,0 UV-I 76 W/m 8,9 C 13,9 C 9,7 km/h (2 Bft) 100,00 %
14.05.2016 18:47 13,9 C 73 % 1006,2 hPa 0,0 l/m 4,0 km/h (1 Bft) W-NW 294 0 min 0,000 mm 0,0 UV-I 84 W/m 9,1 C 13,9 C 9,7 km/h (2 Bft) 100,00 %
14.05.2016 18:48 13,9 C 73 % 1006,2 hPa 0,0 l/m 3,3 km/h (1 Bft) W-NW 285 0 min 0,000 mm 0,0 UV-I 93 W/m 9,1 C 13,9 C 6,4 km/h (2 Bft) 100,00 %
14.05.2016 18:49 13,9 C 73 % 1006,2 hPa 0,0 l/m 5,4 km/h (1 Bft) W-NW 293 0 min 0,000 mm 0,0 UV-I 100 W/m 9,1 C 13,9 C 9,7 km/h (2 Bft) 95,83 %
14.05.2016 18:50 13,9 C 71 % 1006,2 hPa 0,0 l/m 5,9 km/h (2 Bft) W-NW 290 0 min 0,000 mm 0,0 UV-I 104 W/m 8,7 C 13,9 C 11,3 km/h (2 Bft) 100,00 %
14.05.2016 18:51 13,9 C 71 % 1006,2 hPa 0,0 l/m 2,0 km/h (1 Bft) NW 323 0 min 0,000 mm 0,0 UV-I 111 W/m 8,7 C 13,9 C 4,8 km/h (1 Bft) 96,67 %
14.05.2016 18:52 13,9 C 72 % 1006,2 hPa 0,0 l/m 1,3 km/h (1 Bft) W-NW 292 0 min 0,000 mm 0,0 UV-I 104 W/m 8,9 C 13,9 C 4,8 km/h (1 Bft) 91,30 %
14.05.2016 18:53 14,0 C 72 % 1006,2 hPa 0,0 l/m 3,5 km/h (1 Bft) W 279 0 min 0,000 mm 0,0 UV-I 98 W/m 9,0 C 14,0 C 9,7 km/h (2 Bft) 100,00 %
14.05.2016 18:54 14,0 C 71 % 1006,2 hPa 0,0 l/m 3,0 km/h (1 Bft) W-SW 245 0 min 0,000 mm 0,0 UV-I 96 W/m 8,8 C 14,0 C 4,8 km/h (1 Bft) 91,30 %
14.05.2016 18:55 14,0 C 72 % 1006,2 hPa 0,0 l/m 3,0 km/h (1 Bft) W-SW 248 0 min 0,000 mm 0,0 UV-I 90 W/m 9,0 C 14,0 C 4,8 km/h (1 Bft) 100,00 %
14.05.2016 18:56 13,9 C 73 % 1006,3 hPa 0,0 l/m 2,0 km/h (1 Bft) W 263 0 min 0,000 mm 0,0 UV-I 88 W/m 9,1 C 13,9 C 3,2 km/h (1 Bft) 91,30 %
14.05.2016 18:57 13,9 C 74 % 1006,3 hPa 0,0 l/m 3,5 km/h (1 Bft) W-NW 282 0 min 0,000 mm 0,0 UV-I 84 W/m 9,3 C 13,9 C 6,4 km/h (2 Bft) 100,00 %
14.05.2016 18:58 13,9 C 73 % 1006,3 hPa 0,0 l/m 3,0 km/h (1 Bft) W-NW 289 0 min 0,000 mm 0,0 UV-I 81 W/m 9,1 C 13,9 C 6,4 km/h (2 Bft) 96,55 %
14.05.2016 18:59 13,9 C 73 % 1006,3 hPa 0,0 l/m 2,2 km/h (1 Bft) W 281 0 min 0,000 mm 0,0 UV-I 79 W/m 9,1 C 13,9 C 4,8 km/h (1 Bft) 95,83 %
14.05.2016 19:00 13,8 C 74 % 1006,3 hPa 0,0 l/m 1,8 km/h (1 Bft) W 280 0 min 0,000 mm 0,0 UV-I 78 W/m 9,2 C 13,8 C 4,8 km/h (1 Bft) 100,00 %
14.05.2016 19:01 13,8 C 73 % 1006,3 hPa 0,0 l/m 3,5 km/h (1 Bft) W 279 0 min 0,076 mm 0,0 UV-I 73 W/m 9,0 C 13,8 C 4,8 km/h (1 Bft) 95,83 %
14.05.2016 19:02 13,8 C 74 % 1006,3 hPa 0,0 l/m 1,8 km/h (1 Bft) NW 316 0 min 0,000 mm 0,0 UV-I 71 W/m 9,2 C 13,8 C 3,2 km/h (1 Bft) 100,00 %
14.05.2016 19:03 13,8 C 74 % 1006,4 hPa 0,0 l/m 2,7 km/h (1 Bft) W-SW 237 0 min 0,000 mm 0,0 UV-I 69 W/m 9,2 C 13,8 C 6,4 km/h (2 Bft) 96,15 %
14.05.2016 19:04 13,8 C 73 % 1006,4 hPa 0,0 l/m 2,3 km/h (1 Bft) W-SW 237 0 min 0,000 mm 0,0 UV-I 69 W/m 9,0 C 13,8 C 4,8 km/h (1 Bft) 100,00 %
14.05.2016 19:05 13,8 C 73 % 1006,4 hPa 0,0 l/m 3,1 km/h (1 Bft) W-SW 237 0 min 0,000 mm 0,0 UV-I 69 W/m 9,0 C 13,8 C 4,8 km/h (1 Bft) 96,55 %
14.05.2016 19:06 13,8 C 74 % 1006,3 hPa 0,0 l/m 3,6 km/h (1 Bft) W-SW 237 0 min 0,000 mm 0,0 UV-I 69 W/m 9,2 C 13,8 C 4,8 km/h (1 Bft) 100,00 %
14.05.2016 19:07 13,7 C 73 % 1006,4 hPa 0,0 l/m 3,1 km/h (1 Bft) W-SW 237 0 min 0,000 mm 0,0 UV-I 69 W/m 8,9 C 13,7 C 4,8 km/h (1 Bft) 96,15 %
14.05.2016 19:08 13,7 C 74 % 1006,4 hPa 0,0 l/m 1,9 km/h (1 Bft) W-SW 237 0 min 0,000 mm 0,0 UV-I 70 W/m 9,2 C 13,7 C 3,2 km/h (1 Bft) 95,83 %
14.05.2016 19:09 13,7 C 75 % 1006,4 hPa 0,0 l/m 3,0 km/h (1 Bft) W-SW 237 0 min 0,000 mm 0,0 UV-I 69 W/m 9,3 C 13,7 C 4,8 km/h (1 Bft) 95,65 %
14.05.2016 19:10 13,7 C 73 % 1006,4 hPa 0,0 l/m 5,9 km/h (2 Bft) W 264 0 min 0,000 mm 0,0 UV-I 67 W/m 8,9 C 13,7 C 9,7 km/h (2 Bft) 100,00 %
14.05.2016 19:11 13,7 C 74 % 1006,4 hPa 0,0 l/m 2,6 km/h (1 Bft) W 266 0 min 0,000 mm 0,0 UV-I 65 W/m 9,2 C 13,7 C 4,8 km/h (1 Bft) 93,10 %
14.05.2016 19:12 13,7 C 74 % 1006,4 hPa 0,0 l/m 2,0 km/h (1 Bft) W 266 0 min 0,000 mm 0,0 UV-I 61 W/m 9,2 C 13,7 C 3,2 km/h (1 Bft) 96,30 %
14.05.2016 19:13 13,8 C 73 % 1006,4 hPa 0,0 l/m 1,5 km/h (1 Bft) W 266 0 min 0,000 mm 0,0 UV-I 59 W/m 9,0 C 13,8 C 3,2 km/h (1 Bft) 100,00 %
14.05.2016 19:14 13,8 C 73 % 1006,4 hPa 0,0 l/m 1,2 km/h (1 Bft) W 266 0 min 0,000 mm 0,0 UV-I 55 W/m 9,0 C 13,8 C 1,6 km/h (1 Bft) 95,83 %
14.05.2016 19:15 13,8 C 74 % 1006,4 hPa 0,0 l/m 1,5 km/h (1 Bft) W 266 0 min 0,000 mm 0,0 UV-I 53 W/m 9,2 C 13,8 C 1,6 km/h (1 Bft) 92,86 %
14.05.2016 19:16 13,8 C 73 % 1006,4 hPa 0,0 l/m 1,6 km/h (1 Bft) W 266 0 min 0,000 mm 0,0 UV-I 51 W/m 9,0 C 13,8 C 3,2 km/h (1 Bft) 95,83 %
14.05.2016 19:17 13,7 C 73 % 1006,4 hPa 0,0 l/m 1,5 km/h (1 Bft) W 266 0 min 0,000 mm 0,0 UV-I 51 W/m 8,9 C 13,7 C 3,2 km/h (1 Bft) 96,55 %
14.05.2016 19:18 13,7 C 74 % 1006,4 hPa 0,0 l/m 3,3 km/h (1 Bft) W-NW 290 0 min 0,000 mm 0,0 UV-I 50 W/m 9,2 C 13,7 C 4,8 km/h (1 Bft) 100,00 %
14.05.2016 19:19 13,7 C 75 % 1006,4 hPa 0,0 l/m 1,8 km/h (1 Bft) W-NW 290 0 min 0,000 mm 0,0 UV-I 49 W/m 9,3 C 13,7 C 3,2 km/h (1 Bft) 95,65 %
14.05.2016 19:20 13,7 C 74 % 1006,4 hPa 0,0 l/m 1,9 km/h (1 Bft) W-NW 292 0 min 0,000 mm 0,0 UV-I 49 W/m 9,2 C 13,7 C 3,2 km/h (1 Bft) 100,00 %
14.05.2016 19:21 13,7 C 73 % 1006,4 hPa 0,0 l/m 0,9 km/h (0 Bft) W-NW 292 0 min 0,000 mm 0,0 UV-I 49 W/m 8,9 C 13,7 C 3,2 km/h (1 Bft) 91,30 %
14.05.2016 19:22 13,7 C 74 % 1006,5 hPa 0,0 l/m 2,9 km/h (1 Bft) W-NW 292 0 min 0,000 mm 0,0 UV-I 49 W/m 9,2 C 13,7 C 4,8 km/h (1 Bft) 100,00 %
14.05.2016 19:23 13,7 C 75 % 1006,4 hPa 0,0 l/m 3,3 km/h (1 Bft) W-NW 292 0 min 0,000 mm 0,0 UV-I 46 W/m 9,3 C 13,7 C 4,8 km/h (1 Bft) 100,00 %
14.05.2016 19:24 13,7 C 74 % 1006,5 hPa 0,0 l/m 2,9 km/h (1 Bft) W-NW 292 0 min 0,000 mm 0,0 UV-I 43 W/m 9,2 C 13,7 C 3,2 km/h (1 Bft) 100,00 %
14.05.2016 19:25 13,7 C 75 % 1006,5 hPa 0,0 l/m 3,5 km/h (1 Bft) W-NW 284 0 min 0,000 mm 0,0 UV-I 41 W/m 9,3 C 13,7 C 4,8 km/h (1 Bft) 96,67 %
14.05.2016 19:26 13,7 C 75 % 1006,5 hPa 0,0 l/m 2,9 km/h (1 Bft) W-NW 284 0 min 0,000 mm 0,0 UV-I 39 W/m 9,3 C 13,7 C 4,8 km/h (1 Bft) 100,00 %
14.05.2016 19:27 13,7 C 74 % 1006,5 hPa 0,0 l/m 4,1 km/h (1 Bft) W 278 0 min 0,000 mm 0,0 UV-I 37 W/m 9,2 C 13,7 C 4,8 km/h (1 Bft) 100,00 %
14.05.2016 19:28 13,7 C 74 % 1006,5 hPa 0,0 l/m 3,4 km/h (1 Bft) W 278 0 min 0,000 mm 0,0 UV-I 37 W/m 9,2 C 13,7 C 4,8 km/h (1 Bft) 100,00 %
14.05.2016 19:29 13,7 C 75 % 1006,5 hPa 0,0 l/m 5,1 km/h (1 Bft) W-SW 251 0 min 0,000 mm 0,0 UV-I 35 W/m 9,3 C 13,7 C 6,4 km/h (2 Bft) 100,00 %
14.05.2016 19:30 13,7 C 75 % 1006,5 hPa 0,0 l/m 3,7 km/h (1 Bft) W-SW 251 0 min 0,000 mm 0,0 UV-I 34 W/m 9,3 C 13,7 C 4,8 km/h (1 Bft) 100,00 %
14.05.2016 19:31 13,7 C 74 % 1006,5 hPa 0,0 l/m 4,1 km/h (1 Bft) W-SW 253 0 min 0,000 mm 0,0 UV-I 33 W/m 9,2 C 13,7 C 4,8 km/h (1 Bft) 96,30 %
14.05.2016 19:32 13,7 C 74 % 1006,5 hPa 0,0 l/m 4,3 km/h (1 Bft) W-SW 253 0 min 0,000 mm 0,0 UV-I 33 W/m 9,2 C 13,7 C 4,8 km/h (1 Bft) 100,00 %
14.05.2016 19:33 13,7 C 75 % 1006,5 hPa 0,0 l/m 3,9 km/h (1 Bft) W-SW 253 0 min 0,000 mm 0,0 UV-I 33 W/m 9,3 C 13,7 C 4,8 km/h (1 Bft) 100,00 %
14.05.2016 19:34 13,7 C 74 % 1006,5 hPa 0,0 l/m 4,5 km/h (1 Bft) W-SW 253 0 min 0,000 mm 0,0 UV-I 33 W/m 9,2 C 13,7 C 4,8 km/h (1 Bft) 96,15 %
14.05.2016 19:35 13,7 C 75 % 1006,5 hPa 0,0 l/m 4,7 km/h (1 Bft) W-SW 254 0 min 0,000 mm 0,0 UV-I 27 W/m 9,3 C 13,7 C 6,4 km/h (2 Bft) 100,00 %
14.05.2016 19:36 13,7 C 75 % 1006,5 hPa 0,0 l/m 3,7 km/h (1 Bft) W-SW 254 0 min 0,000 mm 0,0 UV-I 11 W/m 9,3 C 13,7 C 4,8 km/h (1 Bft) 100,00 %
14.05.2016 19:37 13,7 C 74 % 1006,5 hPa 0,0 l/m 3,2 km/h (1 Bft) W-SW 254 0 min 0,000 mm 0,0 UV-I 22 W/m 9,2 C 13,7 C 3,2 km/h (1 Bft) 100,00 %
14.05.2016 19:38 13,7 C 75 % 1006,5 hPa 0,0 l/m 4,2 km/h (1 Bft) W-SW 254 0 min 0,000 mm 0,0 UV-I 27 W/m 9,3 C 13,7 C 4,8 km/h (1 Bft) 100,00 %
14.05.2016 19:39 13,7 C 75 % 1006,5 hPa 0,0 l/m 3,3 km/h (1 Bft) W-SW 254 0 min 0,000 mm 0,0 UV-I 26 W/m 9,3 C 13,7 C 4,8 km/h (1 Bft) 100,00 %
14.05.2016 19:40 13,6 C 75 % 1006,6 hPa 0,0 l/m 3,4 km/h (1 Bft) W-SW 254 0 min 0,000 mm 0,0 UV-I 26 W/m 9,3 C 13,6 C 4,8 km/h (1 Bft) 100,00 %
14.05.2016 19:41 13,6 C 75 % 1006,6 hPa 0,0 l/m 3,3 km/h (1 Bft) W-SW 254 0 min 0,000 mm 0,0 UV-I 27 W/m 9,3 C 13,6 C 4,8 km/h (1 Bft) 100,00 %
14.05.2016 19:42 13,6 C 76 % 1006,5 hPa 0,0 l/m 3,9 km/h (1 Bft) W-SW 254 0 min 0,000 mm 0,0 UV-I 26 W/m 9,4 C 13,6 C 4,8 km/h (1 Bft) 100,00 %
14.05.2016 19:43 13,6 C 75 % 1006,6 hPa 0,0 l/m 3,2 km/h (1 Bft) W-SW 254 0 min 0,000 mm 0,0 UV-I 26 W/m 9,3 C 13,6 C 4,8 km/h (1 Bft) 100,00 %
14.05.2016 19:44 13,6 C 75 % 1006,6 hPa 0,0 l/m 3,9 km/h (1 Bft) W-SW 254 0 min 0,000 mm 0,0 UV-I 26 W/m 9,3 C 13,6 C 4,8 km/h (1 Bft) 100,00 %
14.05.2016 19:45 13,6 C 75 % 1006,6 hPa 0,0 l/m 2,8 km/h (1 Bft) W-SW 254 0 min 0,000 mm 0,0 UV-I 26 W/m 9,3 C 13,6 C 4,8 km/h (1 Bft) 100,00 %
14.05.2016 19:46 13,6 C 75 % 1006,7 hPa 0,0 l/m 3,2 km/h (1 Bft) W-SW 254 0 min 0,000 mm 0,0 UV-I 28 W/m 9,3 C 13,6 C 4,8 km/h (1 Bft) 100,00 %
14.05.2016 19:47 13,6 C 75 % 1006,7 hPa 0,0 l/m 3,2 km/h (1 Bft) W-SW 254 0 min 0,000 mm 0,0 UV-I 30 W/m 9,3 C 13,6 C 4,8 km/h (1 Bft) 100,00 %
14.05.2016 19:48 13,6 C 76 % 1006,7 hPa 0,0 l/m 3,1 km/h (1 Bft) W-SW 254 0 min 0,000 mm 0,0 UV-I 30 W/m 9,4 C 13,6 C 4,8 km/h (1 Bft) 100,00 %
14.05.2016 19:49 13,6 C 76 % 1006,7 hPa 0,0 l/m 3,2 km/h (1 Bft) W-NW 282 0 min 0,000 mm 0,0 UV-I 30 W/m 9,4 C 13,6 C 9,7 km/h (2 Bft) 100,00 %
14.05.2016 19:50 13,6 C 76 % 1006,7 hPa 0,0 l/m 4,0 km/h (1 Bft) W 272 0 min 0,000 mm 0,0 UV-I 30 W/m 9,4 C 13,6 C 6,4 km/h (2 Bft) 100,00 %
14.05.2016 19:51 13,5 C 76 % 1006,7 hPa 0,0 l/m 3,3 km/h (1 Bft) W 272 0 min 0,000 mm 0,0 UV-I 30 W/m 9,4 C 13,5 C 4,8 km/h (1 Bft) 100,00 %
14.05.2016 19:52 13,5 C 76 % 1006,7 hPa 0,0 l/m 1,9 km/h (1 Bft) W 272 0 min 0,000 mm 0,0 UV-I 30 W/m 9,4 C 13,5 C 3,2 km/h (1 Bft) 100,00 %
14.05.2016 19:53 13,5 C 77 % 1006,7 hPa 0,0 l/m 1,4 km/h (1 Bft) W 272 0 min 0,000 mm 0,0 UV-I 32 W/m 9,5 C 13,5 C 3,2 km/h (1 Bft) 96,15 %
14.05.2016 19:54 13,4 C 77 % 1006,7 hPa 0,0 l/m 0,3 km/h (0 Bft) W 272 0 min 0,000 mm 0,0 UV-I 34 W/m 9,5 C 13,4 C 1,6 km/h (1 Bft) 100,00 %
14.05.2016 19:55 13,4 C 78 % 1006,7 hPa 0,0 l/m 0,8 km/h (0 Bft) W 272 0 min 0,000 mm 0,0 UV-I 36 W/m 9,6 C 13,4 C 3,2 km/h (1 Bft) 100,00 %
14.05.2016 19:56 13,4 C 78 % 1006,7 hPa 0,0 l/m 0,5 km/h (0 Bft) W 272 0 min 0,000 mm 0,0 UV-I 37 W/m 9,6 C 13,4 C 1,6 km/h (1 Bft) 100,00 %
14.05.2016 19:57 13,3 C 79 % 1006,7 hPa 0,0 l/m 1,9 km/h (1 Bft) W 272 0 min 0,000 mm 0,0 UV-I 37 W/m 9,7 C 13,3 C 3,2 km/h (1 Bft) 100,00 %
14.05.2016 19:58 13,3 C 78 % 1006,7 hPa 0,0 l/m 1,4 km/h (1 Bft) W 272 0 min 0,000 mm 0,0 UV-I 36 W/m 9,5 C 13,3 C 3,2 km/h (1 Bft) 100,00 %
14.05.2016 19:59 13,3 C 78 % 1006,7 hPa 0,0 l/m 0,6 km/h (0 Bft) W 272 0 min 0,000 mm 0,0 UV-I 34 W/m 9,5 C 13,3 C 1,6 km/h (1 Bft) 100,00 %
14.05.2016 20:00 13,3 C 77 % 1006,8 hPa 0,0 l/m 3,1 km/h (1 Bft) W 272 0 min 0,000 mm 0,0 UV-I 32 W/m 9,4 C 13,3 C 4,8 km/h (1 Bft) 100,00 %
14.05.2016 20:01 13,3 C 77 % 1006,8 hPa 0,0 l/m 2,8 km/h (1 Bft) W 272 0 min 0,025 mm 0,0 UV-I 31 W/m 9,4 C 13,3 C 3,2 km/h (1 Bft) 100,00 %
14.05.2016 20:02 13,3 C 77 % 1006,8 hPa 0,0 l/m 2,2 km/h (1 Bft) W 272 0 min 0,000 mm 0,0 UV-I 28 W/m 9,4 C 13,3 C 3,2 km/h (1 Bft) 100,00 %
14.05.2016 20:03 13,3 C 77 % 1006,8 hPa 0,0 l/m 1,9 km/h (1 Bft) W 272 0 min 0,000 mm 0,0 UV-I 28 W/m 9,4 C 13,3 C 3,2 km/h (1 Bft) 100,00 %
14.05.2016 20:04 13,3 C 77 % 1006,8 hPa 0,0 l/m 1,7 km/h (1 Bft) W 272 0 min 0,000 mm 0,0 UV-I 26 W/m 9,4 C 13,3 C 3,2 km/h (1 Bft) 100,00 %
14.05.2016 20:05 13,2 C 78 % 1006,9 hPa 0,0 l/m 2,4 km/h (1 Bft) W 272 0 min 0,000 mm 0,0 UV-I 26 W/m 9,4 C 13,2 C 3,2 km/h (1 Bft) 100,00 %
14.05.2016 20:06 13,2 C 78 % 1006,9 hPa 0,0 l/m 3,1 km/h (1 Bft) W 272 0 min 0,000 mm 0,0 UV-I 24 W/m 9,4 C 13,2 C 4,8 km/h (1 Bft) 100,00 %
14.05.2016 20:07 13,2 C 78 % 1006,9 hPa 0,0 l/m 2,5 km/h (1 Bft) W 272 0 min 0,000 mm 0,0 UV-I 23 W/m 9,4 C 13,2 C 4,8 km/h (1 Bft) 100,00 %
14.05.2016 20:08 13,2 C 78 % 1006,9 hPa 0,0 l/m 1,5 km/h (1 Bft) W 272 0 min 0,000 mm 0,0 UV-I 21 W/m 9,4 C 13,2 C 3,2 km/h (1 Bft) 100,00 %
14.05.2016 20:09 13,2 C 77 % 1006,9 hPa 0,0 l/m 3,1 km/h (1 Bft) W 272 0 min 0,000 mm 0,0 UV-I 21 W/m 9,3 C 13,2 C 4,8 km/h (1 Bft) 100,00 %
14.05.2016 20:10 13,1 C 78 % 1006,9 hPa 0,0 l/m 3,2 km/h (1 Bft) W 272 0 min 0,000 mm 0,0 UV-I 21 W/m 9,4 C 13,1 C 4,8 km/h (1 Bft) 100,00 %
14.05.2016 20:11 13,1 C 78 % 1006,8 hPa 0,0 l/m 3,5 km/h (1 Bft) W 272 0 min 0,000 mm 0,0 UV-I 19 W/m 9,4 C 13,1 C 4,8 km/h (1 Bft) 100,00 %
14.05.2016 20:12 13,1 C 79 % 1006,9 hPa 0,0 l/m 3,2 km/h (1 Bft) W 272 0 min 0,000 mm 0,0 UV-I 19 W/m 9,5 C 13,1 C 3,2 km/h (1 Bft) 100,00 %
14.05.2016 20:13 13,1 C 78 % 1006,8 hPa 0,0 l/m 4,1 km/h (1 Bft) W 271 0 min 0,000 mm 0,0 UV-I 18 W/m 9,4 C 13,1 C 4,8 km/h (1 Bft) 100,00 %
14.05.2016 20:14 13,1 C 78 % 1006,8 hPa 0,0 l/m 3,9 km/h (1 Bft) W 271 0 min 0,000 mm 0,0 UV-I 16 W/m 9,4 C 13,1 C 4,8 km/h (1 Bft) 100,00 %
14.05.2016 20:15 13,0 C 79 % 1006,8 hPa 0,0 l/m 4,2 km/h (1 Bft) W 272 0 min 0,000 mm 0,0 UV-I 16 W/m 9,4 C 13,0 C 4,8 km/h (1 Bft) 100,00 %
14.05.2016 20:16 13,0 C 79 % 1006,9 hPa 0,0 l/m 4,5 km/h (1 Bft) W 274 0 min 0,000 mm 0,0 UV-I 16 W/m 9,4 C 13,0 C 4,8 km/h (1 Bft) 100,00 %
14.05.2016 20:17 13,0 C 78 % 1006,9 hPa 0,0 l/m 3,3 km/h (1 Bft) W 274 0 min 0,000 mm 0,0 UV-I 14 W/m 9,3 C 13,0 C 4,8 km/h (1 Bft) 100,00 %
14.05.2016 20:18 13,0 C 78 % 1006,9 hPa 0,0 l/m 3,3 km/h (1 Bft) W 274 0 min 0,000 mm 0,0 UV-I 13 W/m 9,3 C 13,0 C 4,8 km/h (1 Bft) 100,00 %
14.05.2016 20:19 13,0 C 78 % 1006,9 hPa 0,0 l/m 3,4 km/h (1 Bft) W-NW 290 0 min 0,000 mm 0,0 UV-I 12 W/m 9,3 C 13,0 C 6,4 km/h (2 Bft) 100,00 %
14.05.2016 20:20 12,9 C 79 % 1006,9 hPa 0,0 l/m 3,0 km/h (1 Bft) W-NW 289 0 min 0,000 mm 0,0 UV-I 11 W/m 9,3 C 12,9 C 4,8 km/h (1 Bft) 100,00 %
14.05.2016 20:21 12,9 C 78 % 1006,9 hPa 0,0 l/m 3,2 km/h (1 Bft) W 271 0 min 0,000 mm 0,0 UV-I 9 W/m 9,2 C 12,9 C 4,8 km/h (1 Bft) 100,00 %
14.05.2016 20:22 12,9 C 78 % 1006,9 hPa 0,0 l/m 4,6 km/h (1 Bft) W 270 0 min 0,000 mm 0,0 UV-I 9 W/m 9,2 C 12,9 C 6,4 km/h (2 Bft) 100,00 %
14.05.2016 20:23 12,9 C 78 % 1006,9 hPa 0,0 l/m 5,0 km/h (1 Bft) W 261 0 min 0,000 mm 0,0 UV-I 7 W/m 9,2 C 12,9 C 6,4 km/h (2 Bft) 100,00 %
14.05.2016 20:24 12,9 C 78 % 1007,0 hPa 0,0 l/m 4,5 km/h (1 Bft) W 261 0 min 0,000 mm 0,0 UV-I 7 W/m 9,2 C 12,9 C 6,4 km/h (2 Bft) 100,00 %
14.05.2016 20:25 12,9 C 78 % 1006,9 hPa 0,0 l/m 6,1 km/h (2 Bft) W 277 0 min 0,000 mm 0,0 UV-I 6 W/m 9,2 C 12,9 C 11,3 km/h (2 Bft) 100,00 %
14.05.2016 20:26 12,9 C 77 % 1006,9 hPa 0,0 l/m 8,3 km/h (2 Bft) W-SW 250 0 min 0,000 mm 0,0 UV-I 5 W/m 9,0 C 11,7 C 12,9 km/h (3 Bft) 100,00 %
14.05.2016 20:27 12,9 C 76 % 1006,9 hPa 0,0 l/m 7,2 km/h (2 Bft) W-SW 239 0 min 0,000 mm 0,0 UV-I 5 W/m 8,8 C 12,4 C 11,3 km/h (2 Bft) 100,00 %
14.05.2016 20:28 13,0 C 76 % 1006,9 hPa 0,0 l/m 7,5 km/h (2 Bft) W-SW 257 0 min 0,000 mm 0,0 UV-I 3 W/m 8,9 C 12,3 C 9,7 km/h (2 Bft) 100,00 %
14.05.2016 20:29 13,0 C 76 % 1006,9 hPa 0,0 l/m 7,2 km/h (2 Bft) W-SW 257 0 min 0,000 mm 0,0 UV-I 0 W/m 8,9 C 12,5 C 11,3 km/h (2 Bft) 100,00 %
14.05.2016 20:30 13,1 C 76 % 1007,0 hPa 0,0 l/m 5,8 km/h (2 Bft) W-SW 255 0 min 0,000 mm 0,0 UV-I 0 W/m 9,0 C 13,1 C 6,4 km/h (2 Bft) 100,00 %
14.05.2016 20:31 13,1 C 76 % 1007,0 hPa 0,0 l/m 6,5 km/h (2 Bft) W-NW 288 0 min 0,000 mm 0,0 UV-I 0 W/m 9,0 C 13,1 C 8,0 km/h (2 Bft) 100,00 %
14.05.2016 20:32 13,1 C 76 % 1007,0 hPa 0,0 l/m 8,4 km/h (2 Bft) W 267 0 min 0,000 mm 0,0 UV-I 0 W/m 9,0 C 11,9 C 12,9 km/h (3 Bft) 95,83 %
14.05.2016 20:33 13,1 C 76 % 1007,0 hPa 0,0 l/m 8,6 km/h (2 Bft) W-NW 292 0 min 0,000 mm 0,0 UV-I 1 W/m 9,0 C 11,8 C 12,9 km/h (3 Bft) 100,00 %
14.05.2016 20:34 13,1 C 76 % 1007,0 hPa 0,0 l/m 7,6 km/h (2 Bft) W-SW 247 0 min 0,000 mm 0,0 UV-I 5 W/m 9,0 C 12,3 C 9,7 km/h (2 Bft) 100,00 %
14.05.2016 20:35 13,1 C 76 % 1007,0 hPa 0,0 l/m 8,9 km/h (2 Bft) W 271 0 min 0,000 mm 0,0 UV-I 3 W/m 9,0 C 11,6 C 16,1 km/h (3 Bft) 100,00 %
14.05.2016 20:36 13,1 C 76 % 1007,0 hPa 0,0 l/m 10,3 km/h (2 Bft) W 273 0 min 0,000 mm 0,0 UV-I 0 W/m 9,0 C 10,9 C 19,3 km/h (3 Bft) 100,00 %
14.05.2016 20:37 13,1 C 75 % 1007,0 hPa 0,0 l/m 15,8 km/h (3 Bft) W-SW 252 0 min 0,000 mm 0,0 UV-I 0 W/m 8,8 C 8,6 C 24,1 km/h (4 Bft) 100,00 %
14.05.2016 20:38 13,1 C 74 % 1007,0 hPa 0,0 l/m 14,5 km/h (3 Bft) W 259 0 min 0,000 mm 0,0 UV-I 0 W/m 8,6 C 9,1 C 19,3 km/h (3 Bft) 100,00 %
14.05.2016 20:39 13,1 C 74 % 1007,0 hPa 0,0 l/m 9,3 km/h (2 Bft) W 266 0 min 0,000 mm 0,0 UV-I 0 W/m 8,6 C 11,4 C 12,9 km/h (3 Bft) 100,00 %
14.05.2016 20:40 13,1 C 75 % 1007,0 hPa 0,0 l/m 9,2 km/h (2 Bft) W-SW 250 0 min 0,000 mm 0,0 UV-I 0 W/m 8,8 C 11,4 C 14,5 km/h (3 Bft) 100,00 %
14.05.2016 20:41 13,1 C 74 % 1007,1 hPa 0,0 l/m 11,8 km/h (2 Bft) W-SW 250 0 min 0,000 mm 0,0 UV-I 0 W/m 8,6 C 10,2 C 16,1 km/h (3 Bft) 100,00 %
14.05.2016 20:42 13,1 C 74 % 1007,0 hPa 0,0 l/m 10,5 km/h (2 Bft) W 265 0 min 0,000 mm 0,0 UV-I 0 W/m 8,6 C 10,8 C 14,5 km/h (3 Bft) 100,00 %
14.05.2016 20:43 13,1 C 74 % 1007,1 hPa 0,0 l/m 8,7 km/h (2 Bft) W 260 0 min 0,000 mm 0,0 UV-I 0 W/m 8,6 C 11,7 C 14,5 km/h (3 Bft) 100,00 %
14.05.2016 20:44 13,1 C 74 % 1007,1 hPa 0,0 l/m 7,6 km/h (2 Bft) W-SW 246 0 min 0,000 mm 0,0 UV-I 0 W/m 8,6 C 12,3 C 12,9 km/h (3 Bft) 90,91 %
14.05.2016 20:45 13,1 C 74 % 1007,1 hPa 0,0 l/m 9,5 km/h (2 Bft) W 277 0 min 0,000 mm 0,0 UV-I 0 W/m 8,6 C 11,3 C 14,5 km/h (3 Bft) 96,30 %
14.05.2016 20:46 13,1 C 74 % 1007,1 hPa 0,0 l/m 7,3 km/h (2 Bft) W-SW 237 0 min 0,000 mm 0,0 UV-I 0 W/m 8,6 C 12,5 C 11,3 km/h (2 Bft) 96,15 %
14.05.2016 20:47 13,1 C 74 % 1007,1 hPa 0,0 l/m 10,2 km/h (2 Bft) W-SW 257 0 min 0,000 mm 0,0 UV-I 0 W/m 8,6 C 10,9 C 16,1 km/h (3 Bft) 100,00 %
14.05.2016 20:48 13,0 C 74 % 1007,2 hPa 0,0 l/m 15,2 km/h (3 Bft) W-SW 250 0 min 0,000 mm 0,0 UV-I 0 W/m 8,5 C 8,7 C 19,3 km/h (3 Bft) 100,00 %
14.05.2016 20:49 13,0 C 74 % 1007,2 hPa 0,0 l/m 12,5 km/h (3 Bft) W 274 0 min 0,000 mm 0,0 UV-I 0 W/m 8,5 C 9,8 C 17,7 km/h (3 Bft) 100,00 %
14.05.2016 20:50 13,0 C 74 % 1007,2 hPa 0,0 l/m 9,9 km/h (2 Bft) SW 229 0 min 0,000 mm 0,0 UV-I 0 W/m 8,5 C 11,0 C 12,9 km/h (3 Bft) 96,15 %
14.05.2016 20:51 13,0 C 74 % 1007,2 hPa 0,0 l/m 10,8 km/h (2 Bft) W-SW 240 0 min 0,000 mm 0,0 UV-I 0 W/m 8,5 C 10,5 C 16,1 km/h (3 Bft) 96,30 %
14.05.2016 20:52 13,0 C 74 % 1007,2 hPa 0,0 l/m 11,3 km/h (2 Bft) W 267 0 min 0,000 mm 0,0 UV-I 0 W/m 8,5 C 10,3 C 20,9 km/h (4 Bft) 100,00 %
14.05.2016 20:53 13,0 C 75 % 1007,2 hPa 0,0 l/m 11,6 km/h (2 Bft) S-SW 211 0 min 0,000 mm 0,0 UV-I 0 W/m 8,7 C 10,1 C 16,1 km/h (3 Bft) 96,67 %
14.05.2016 20:54 13,0 C 75 % 1007,2 hPa 0,0 l/m 11,3 km/h (2 Bft) W 277 0 min 0,000 mm 0,0 UV-I 0 W/m 8,7 C 10,3 C 16,1 km/h (3 Bft) 96,15 %
14.05.2016 20:55 12,9 C 75 % 1007,2 hPa 0,0 l/m 7,8 km/h (2 Bft) W 259 0 min 0,000 mm 0,0 UV-I 0 W/m 8,6 C 12,0 C 12,9 km/h (3 Bft) 100,00 %
14.05.2016 20:56 12,9 C 75 % 1007,3 hPa 0,0 l/m 8,0 km/h (2 Bft) W-SW 258 0 min 0,000 mm 0,0 UV-I 0 W/m 8,6 C 11,9 C 12,9 km/h (3 Bft) 95,65 %
14.05.2016 20:57 12,9 C 75 % 1007,3 hPa 0,0 l/m 5,6 km/h (1 Bft) SW 221 0 min 0,000 mm 0,0 UV-I 0 W/m 8,6 C 12,9 C 9,7 km/h (2 Bft) 100,00 %
14.05.2016 20:58 12,9 C 75 % 1007,3 hPa 0,0 l/m 8,8 km/h (2 Bft) W 270 0 min 0,000 mm 0,0 UV-I 0 W/m 8,6 C 11,4 C 12,9 km/h (3 Bft) 92,31 %
14.05.2016 20:59 12,9 C 75 % 1007,4 hPa 0,0 l/m 14,5 km/h (3 Bft) W-SW 257 0 min 0,000 mm 0,0 UV-I 0 W/m 8,6 C 8,8 C 20,9 km/h (4 Bft) 100,00 %
14.05.2016 21:00 12,8 C 76 % 1007,3 hPa 0,0 l/m 10,8 km/h (2 Bft) W-SW 249 0 min 0,026 mm 0,0 UV-I 0 W/m 8,7 C 10,3 C 16,1 km/h (3 Bft) 95,65 %
14.05.2016 21:01 12,8 C 75 % 1007,4 hPa 0,0 l/m 12,2 km/h (2 Bft) W 269 0 min 0,000 mm 0,0 UV-I 0 W/m 8,5 C 9,7 C 17,7 km/h (3 Bft) 95,83 %
14.05.2016 21:02 12,8 C 75 % 1007,4 hPa 0,0 l/m 6,8 km/h (2 Bft) W 274 0 min 0,000 mm 0,0 UV-I 0 W/m 8,5 C 12,6 C 12,9 km/h (3 Bft) 100,00 %
14.05.2016 21:03 12,8 C 75 % 1007,4 hPa 0,0 l/m 11,8 km/h (2 Bft) W-SW 250 0 min 0,000 mm 0,0 UV-I 0 W/m 8,5 C 9,8 C 17,7 km/h (3 Bft) 95,83 %
14.05.2016 21:04 12,8 C 76 % 1007,5 hPa 0,0 l/m 11,1 km/h (2 Bft) W 261 0 min 0,000 mm 0,0 UV-I 0 W/m 8,7 C 10,1 C 16,1 km/h (3 Bft) 100,00 %
14.05.2016 21:05 12,8 C 75 % 1007,5 hPa 0,0 l/m 8,4 km/h (2 Bft) W-SW 251 0 min 0,000 mm 0,0 UV-I 0 W/m 8,5 C 11,6 C 12,9 km/h (3 Bft) 85,71 %
14.05.2016 21:06 12,8 C 75 % 1007,5 hPa 0,0 l/m 14,6 km/h (3 Bft) W-SW 254 0 min 0,000 mm 0,0 UV-I 0 W/m 8,5 C 8,7 C 20,9 km/h (4 Bft) 100,00 %
14.05.2016 21:07 12,8 C 75 % 1007,5 hPa 0,0 l/m 11,5 km/h (2 Bft) W 275 0 min 0,000 mm 0,0 UV-I 0 W/m 8,5 C 10,0 C 16,1 km/h (3 Bft) 95,65 %
14.05.2016 21:08 12,8 C 75 % 1007,6 hPa 0,0 l/m 11,7 km/h (2 Bft) W-SW 251 0 min 0,000 mm 0,0 UV-I 0 W/m 8,5 C 9,9 C 17,7 km/h (3 Bft) 100,00 %
14.05.2016 21:09 12,8 C 76 % 1007,6 hPa 0,0 l/m 9,4 km/h (2 Bft) W-SW 249 0 min 0,000 mm 0,0 UV-I 0 W/m 8,7 C 11,0 C 14,5 km/h (3 Bft) 95,65 %
14.05.2016 21:10 12,8 C 75 % 1007,6 hPa 0,0 l/m 11,0 km/h (2 Bft) W-SW 254 0 min 0,000 mm 0,0 UV-I 0 W/m 8,5 C 10,2 C 16,1 km/h (3 Bft) 95,83 %
14.05.2016 21:11 12,7 C 75 % 1007,6 hPa 0,0 l/m 11,7 km/h (2 Bft) W-SW 244 0 min 0,000 mm 0,0 UV-I 0 W/m 8,4 C 9,8 C 17,7 km/h (3 Bft) 96,15 %
14.05.2016 21:12 12,7 C 76 % 1007,6 hPa 0,0 l/m 10,2 km/h (2 Bft) W-SW 250 0 min 0,000 mm 0,0 UV-I 0 W/m 8,6 C 10,5 C 14,5 km/h (3 Bft) 100,00 %
14.05.2016 21:13 12,7 C 76 % 1007,8 hPa 0,0 l/m 12,0 km/h (2 Bft) W-NW 300 0 min 0,000 mm 0,0 UV-I 0 W/m 8,6 C 9,6 C 16,1 km/h (3 Bft) 96,15 %
14.05.2016 21:14 12,7 C 76 % 1007,8 hPa 0,0 l/m 8,3 km/h (2 Bft) W 277 0 min 0,000 mm 0,0 UV-I 0 W/m 8,6 C 11,5 C 14,5 km/h (3 Bft) 96,30 %
14.05.2016 21:15 12,7 C 76 % 1007,8 hPa 0,0 l/m 12,6 km/h (3 Bft) W-SW 244 0 min 0,000 mm 0,0 UV-I 0 W/m 8,6 C 9,4 C 19,3 km/h (3 Bft) 100,00 %
14.05.2016 21:16 12,7 C 77 % 1007,8 hPa 0,0 l/m 13,7 km/h (3 Bft) W 275 0 min 0,000 mm 0,0 UV-I 0 W/m 8,8 C 8,9 C 17,7 km/h (3 Bft) 91,67 %
14.05.2016 21:17 12,6 C 77 % 1007,9 hPa 0,0 l/m 7,2 km/h (2 Bft) W 261 0 min 0,000 mm 0,0 UV-I 0 W/m 8,7 C 12,1 C 11,3 km/h (2 Bft) 100,00 %
14.05.2016 21:18 12,6 C 77 % 1007,8 hPa 0,0 l/m 15,8 km/h (3 Bft) W-SW 240 0 min 0,000 mm 0,0 UV-I 0 W/m 8,7 C 8,0 C 20,9 km/h (4 Bft) 87,50 %
14.05.2016 21:19 12,6 C 77 % 1007,9 hPa 0,0 l/m 13,0 km/h (3 Bft) SW 232 0 min 0,000 mm 0,0 UV-I 0 W/m 8,7 C 9,1 C 20,9 km/h (4 Bft) 100,00 %
14.05.2016 21:20 12,6 C 77 % 1007,9 hPa 0,0 l/m 18,3 km/h (3 Bft) W-NW 284 0 min 0,000 mm 0,0 UV-I 0 W/m 8,7 C 7,2 C 29,0 km/h (5 Bft) 96,15 %
14.05.2016 21:21 12,5 C 77 % 1007,9 hPa 0,0 l/m 10,8 km/h (2 Bft) W-SW 242 0 min 0,000 mm 0,0 UV-I 0 W/m 8,6 C 10,0 C 14,5 km/h (3 Bft) 96,15 %
14.05.2016 21:22 12,5 C 77 % 1007,9 hPa 0,0 l/m 10,7 km/h (2 Bft) W 267 0 min 0,000 mm 0,0 UV-I 0 W/m 8,6 C 10,0 C 19,3 km/h (3 Bft) 100,00 %
14.05.2016 21:23 12,4 C 77 % 1008,0 hPa 0,0 l/m 11,9 km/h (2 Bft) W-NW 297 0 min 0,000 mm 0,0 UV-I 0 W/m 8,5 C 9,3 C 16,1 km/h (3 Bft) 96,97 %
14.05.2016 21:24 12,4 C 78 % 1008,0 hPa 0,0 l/m 13,8 km/h (3 Bft) W-NW 284 0 min 0,000 mm 0,0 UV-I 0 W/m 8,7 C 8,5 C 20,9 km/h (4 Bft) 96,15 %
14.05.2016 21:25 12,4 C 77 % 1008,0 hPa 0,0 l/m 15,0 km/h (3 Bft) W-SW 243 0 min 0,000 mm 0,0 UV-I 0 W/m 8,5 C 8,0 C 29,0 km/h (5 Bft) 98,50 %
14.05.2016 21:26 12,3 C 77 % 1008,1 hPa 0,0 l/m 10,5 km/h (2 Bft) NW 309 0 min 0,000 mm 0,0 UV-I 0 W/m 8,4 C 9,9 C 17,7 km/h (3 Bft) 100,00 %
14.05.2016 21:27 12,3 C 77 % 1008,1 hPa 0,0 l/m 16,8 km/h (3 Bft) W-SW 243 0 min 0,000 mm 0,0 UV-I 0 W/m 8,4 C 7,3 C 29,0 km/h (5 Bft) 100,00 %
14.05.2016 21:28 12,3 C 78 % 1008,1 hPa 0,0 l/m 13,6 km/h (3 Bft) W-SW 252 0 min 0,000 mm 0,0 UV-I 0 W/m 8,6 C 8,5 C 19,3 km/h (3 Bft) 92,86 %
14.05.2016 21:29 12,2 C 78 % 1008,1 hPa 0,0 l/m 10,2 km/h (2 Bft) W-SW 257 0 min 0,000 mm 0,0 UV-I 0 W/m 8,5 C 9,9 C 17,7 km/h (3 Bft) 100,00 %
14.05.2016 21:30 12,2 C 79 % 1008,1 hPa 0,0 l/m 9,8 km/h (2 Bft) W-SW 247 0 min 0,000 mm 0,0 UV-I 0 W/m 8,7 C 10,1 C 19,3 km/h (3 Bft) 91,30 %
14.05.2016 21:31 12,1 C 79 % 1008,1 hPa 0,0 l/m 14,1 km/h (3 Bft) NW 311 0 min 0,000 mm 0,0 UV-I 0 W/m 8,6 C 8,0 C 25,7 km/h (4 Bft) 95,83 %
14.05.2016 21:32 12,1 C 79 % 1008,2 hPa 0,0 l/m 12,2 km/h (2 Bft) W-NW 283 0 min 0,000 mm 0,0 UV-I 0 W/m 8,6 C 8,8 C 19,3 km/h (3 Bft) 100,00 %
14.05.2016 21:33 12,1 C 79 % 1008,1 hPa 0,0 l/m 11,1 km/h (2 Bft) W-SW 243 0 min 0,000 mm 0,0 UV-I 0 W/m 8,6 C 9,4 C 14,5 km/h (3 Bft) 100,00 %
14.05.2016 21:34 12,0 C 79 % 1008,2 hPa 0,0 l/m 12,2 km/h (2 Bft) W-SW 238 0 min 0,000 mm 0,0 UV-I 0 W/m 8,5 C 8,7 C 16,1 km/h (3 Bft) 100,00 %
14.05.2016 21:35 12,0 C 79 % 1008,2 hPa 0,0 l/m 8,6 km/h (2 Bft) W 275 0 min 0,000 mm 0,0 UV-I 0 W/m 8,5 C 10,6 C 12,9 km/h (3 Bft) 100,00 %
14.05.2016 21:36 11,9 C 79 % 1008,2 hPa 0,0 l/m 10,4 km/h (2 Bft) W-SW 246 0 min 0,000 mm 0,0 UV-I 0 W/m 8,4 C 9,5 C 17,7 km/h (3 Bft) 96,15 %
14.05.2016 21:37 11,9 C 79 % 1008,2 hPa 0,0 l/m 13,0 km/h (3 Bft) W 269 0 min 0,000 mm 0,0 UV-I 0 W/m 8,4 C 8,3 C 19,3 km/h (3 Bft) 100,00 %
14.05.2016 21:38 11,9 C 79 % 1008,2 hPa 0,0 l/m 10,5 km/h (2 Bft) W-SW 250 0 min 0,000 mm 0,0 UV-I 0 W/m 8,4 C 9,4 C 16,1 km/h (3 Bft) 100,00 %
14.05.2016 21:39 11,8 C 79 % 1008,2 hPa 0,0 l/m 16,4 km/h (3 Bft) W-NW 282 0 min 0,000 mm 0,0 UV-I 0 W/m 8,3 C 6,8 C 25,7 km/h (4 Bft) 100,00 %
14.05.2016 21:40 11,8 C 79 % 1008,2 hPa 0,0 l/m 8,2 km/h (2 Bft) W 271 0 min 0,000 mm 0,0 UV-I 0 W/m 8,3 C 10,6 C 16,1 km/h (3 Bft) 100,00 %
14.05.2016 21:41 11,8 C 80 % 1008,3 hPa 0,0 l/m 12,0 km/h (2 Bft) W-SW 242 0 min 0,000 mm 0,0 UV-I 0 W/m 8,5 C 8,6 C 17,7 km/h (3 Bft) 100,00 %
14.05.2016 21:42 11,8 C 80 % 1008,2 hPa 0,0 l/m 9,6 km/h (2 Bft) W-SW 242 0 min 0,000 mm 0,0 UV-I 0 W/m 8,5 C 9,8 C 12,9 km/h (3 Bft) 100,00 %
14.05.2016 21:43 11,8 C 80 % 1008,2 hPa 0,0 l/m 12,2 km/h (2 Bft) W-SW 255 0 min 0,000 mm 0,0 UV-I 0 W/m 8,5 C 8,5 C 22,5 km/h (4 Bft) 100,00 %
14.05.2016 21:44 11,7 C 80 % 1008,2 hPa 0,0 l/m 9,2 km/h (2 Bft) SW 228 0 min 0,000 mm 0,0 UV-I 0 W/m 8,4 C 9,9 C 22,5 km/h (4 Bft) 96,30 %
14.05.2016 21:45 11,7 C 80 % 1008,3 hPa 0,0 l/m 11,9 km/h (2 Bft) SW 234 0 min 0,000 mm 0,0 UV-I 0 W/m 8,4 C 8,5 C 22,5 km/h (4 Bft) 100,00 %
14.05.2016 21:46 11,7 C 81 % 1008,2 hPa 0,0 l/m 11,0 km/h (2 Bft) W 275 0 min 0,000 mm 0,0 UV-I 0 W/m 8,5 C 9,0 C 17,7 km/h (3 Bft) 100,00 %
14.05.2016 21:47 11,6 C 81 % 1008,3 hPa 0,0 l/m 9,6 km/h (2 Bft) W-NW 287 0 min 0,000 mm 0,0 UV-I 0 W/m 8,5 C 9,6 C 14,5 km/h (3 Bft) 100,00 %
14.05.2016 21:48 11,6 C 81 % 1008,3 hPa 0,0 l/m 8,5 km/h (2 Bft) W 263 0 min 0,000 mm 0,0 UV-I 0 W/m 8,5 C 10,2 C 14,5 km/h (3 Bft) 100,00 %
14.05.2016 21:49 11,6 C 81 % 1008,3 hPa 0,0 l/m 5,8 km/h (2 Bft) W-SW 254 0 min 0,000 mm 0,0 UV-I 0 W/m 8,5 C 11,6 C 11,3 km/h (2 Bft) 100,00 %
14.05.2016 21:50 11,6 C 81 % 1008,3 hPa 0,0 l/m 10,2 km/h (2 Bft) W 265 0 min 0,000 mm 0,0 UV-I 0 W/m 8,5 C 9,3 C 17,7 km/h (3 Bft) 100,00 %
14.05.2016 21:51 11,5 C 81 % 1008,3 hPa 0,0 l/m 4,3 km/h (1 Bft) W 275 0 min 0,000 mm 0,0 UV-I 0 W/m 8,4 C 11,5 C 9,7 km/h (2 Bft) 100,00 %
14.05.2016 21:52 11,5 C 82 % 1008,3 hPa 0,0 l/m 6,8 km/h (2 Bft) NW 315 0 min 0,000 mm 0,0 UV-I 0 W/m 8,5 C 11,2 C 11,3 km/h (2 Bft) 100,00 %
14.05.2016 21:53 11,4 C 82 % 1008,3 hPa 0,0 l/m 8,0 km/h (2 Bft) W-SW 254 0 min 0,000 mm 0,0 UV-I 0 W/m 8,4 C 10,3 C 12,9 km/h (3 Bft) 93,33 %
14.05.2016 21:54 11,4 C 82 % 1008,3 hPa 0,0 l/m 8,0 km/h (2 Bft) W-NW 296 0 min 0,000 mm 0,0 UV-I 0 W/m 8,4 C 10,3 C 12,9 km/h (3 Bft) 97,56 %
14.05.2016 21:55 11,4 C 82 % 1008,4 hPa 0,0 l/m 10,5 km/h (2 Bft) W-SW 248 0 min 0,000 mm 0,0 UV-I 0 W/m 8,4 C 8,9 C 17,7 km/h (3 Bft) 100,00 %
14.05.2016 21:56 11,4 C 82 % 1008,4 hPa 0,0 l/m 5,3 km/h (1 Bft) W 264 0 min 0,000 mm 0,0 UV-I 0 W/m 8,4 C 11,4 C 9,7 km/h (2 Bft) 98,51 %
14.05.2016 21:57 11,3 C 82 % 1008,4 hPa 0,0 l/m 9,1 km/h (2 Bft) W 261 0 min 0,000 mm 0,0 UV-I 0 W/m 8,3 C 9,5 C 17,7 km/h (3 Bft) 100,00 %
14.05.2016 21:58 11,3 C 83 % 1008,5 hPa 0,0 l/m 9,7 km/h (2 Bft) W 267 0 min 0,000 mm 0,0 UV-I 0 W/m 8,5 C 9,2 C 14,5 km/h (3 Bft) 100,00 %
14.05.2016 21:59 11,3 C 83 % 1008,5 hPa 0,0 l/m 11,5 km/h (2 Bft) W-NW 286 0 min 0,000 mm 0,0 UV-I 0 W/m 8,5 C 8,3 C 17,7 km/h (3 Bft) 91,30 %
14.05.2016 22:00 11,3 C 83 % 1008,5 hPa 0,0 l/m 11,6 km/h (2 Bft) W-SW 252 0 min 0,000 mm 0,0 UV-I 0 W/m 8,5 C 8,2 C 14,5 km/h (3 Bft) 100,00 %
14.05.2016 22:02 11,3 C 84 % 1008,5 hPa 0,0 l/m 8,2 km/h (2 Bft) W 270 0 min 0,025 mm 0,0 UV-I 0 W/m 8,7 C 10,1 C 12,9 km/h (3 Bft) 100,00 %
14.05.2016 22:03 11,3 C 83 % 1008,5 hPa 0,0 l/m 6,2 km/h (2 Bft) W-NW 283 0 min 0,000 mm 0,0 UV-I 0 W/m 8,5 C 11,3 C 9,7 km/h (2 Bft) 100,00 %
14.05.2016 22:04 11,3 C 84 % 1008,5 hPa 0,0 l/m 7,4 km/h (2 Bft) W 281 0 min 0,000 mm 0,0 UV-I 0 W/m 8,7 C 10,6 C 11,3 km/h (2 Bft) 95,65 %
14.05.2016 22:05 11,2 C 84 % 1008,5 hPa 0,0 l/m 8,7 km/h (2 Bft) W 267 0 min 0,000 mm 0,0 UV-I 0 W/m 8,6 C 9,7 C 11,3 km/h (2 Bft) 100,00 %
14.05.2016 22:06 11,2 C 84 % 1008,5 hPa 0,0 l/m 7,8 km/h (2 Bft) W-SW 252 0 min 0,000 mm 0,0 UV-I 0 W/m 8,6 C 10,2 C 12,9 km/h (3 Bft) 100,00 %
14.05.2016 22:07 11,2 C 84 % 1008,5 hPa 0,0 l/m 7,4 km/h (2 Bft) W-SW 258 0 min 0,000 mm 0,0 UV-I 0 W/m 8,6 C 10,5 C 9,7 km/h (2 Bft) 100,00 %
14.05.2016 22:08 11,2 C 84 % 1008,5 hPa 0,0 l/m 6,2 km/h (2 Bft) W-SW 252 0 min 0,000 mm 0,0 UV-I 0 W/m 8,6 C 11,2 C 9,7 km/h (2 Bft) 100,00 %
14.05.2016 22:09 11,2 C 84 % 1008,5 hPa 0,0 l/m 7,8 km/h (2 Bft) W-SW 257 0 min 0,000 mm 0,0 UV-I 0 W/m 8,6 C 10,2 C 12,9 km/h (3 Bft) 100,00 %
14.05.2016 22:10 11,2 C 84 % 1008,5 hPa 0,0 l/m 9,3 km/h (2 Bft) W 267 0 min 0,000 mm 0,0 UV-I 0 W/m 8,6 C 9,3 C 11,3 km/h (2 Bft) 100,00 %
14.05.2016 22:11 11,2 C 85 % 1008,5 hPa 0,0 l/m 9,9 km/h (2 Bft) W-SW 246 0 min 0,000 mm 0,0 UV-I 0 W/m 8,8 C 9,0 C 14,5 km/h (3 Bft) 100,00 %
14.05.2016 22:12 11,2 C 85 % 1008,5 hPa 0,0 l/m 8,9 km/h (2 Bft) W 261 0 min 0,000 mm 0,0 UV-I 0 W/m 8,8 C 9,6 C 12,9 km/h (3 Bft) 96,15 %
14.05.2016 22:13 11,2 C 84 % 1008,5 hPa 0,0 l/m 9,4 km/h (2 Bft) W-SW 248 0 min 0,000 mm 0,0 UV-I 0 W/m 8,6 C 9,3 C 12,9 km/h (3 Bft) 100,00 %
14.05.2016 22:14 11,1 C 84 % 1008,5 hPa 0,0 l/m 7,6 km/h (2 Bft) W-SW 242 0 min 0,000 mm 0,0 UV-I 0 W/m 8,5 C 10,3 C 12,9 km/h (3 Bft) 100,00 %
14.05.2016 22:15 11,1 C 84 % 1008,6 hPa 0,0 l/m 10,6 km/h (2 Bft) W 259 0 min 0,000 mm 0,0 UV-I 0 W/m 8,5 C 8,5 C 16,1 km/h (3 Bft) 100,00 %
14.05.2016 22:16 11,1 C 84 % 1008,5 hPa 0,0 l/m 11,3 km/h (2 Bft) W-SW 258 0 min 0,000 mm 0,0 UV-I 0 W/m 8,5 C 8,1 C 20,9 km/h (4 Bft) 100,00 %
14.05.2016 22:17 11,1 C 84 % 1008,6 hPa 0,0 l/m 13,1 km/h (3 Bft) SW 229 0 min 0,000 mm 0,0 UV-I 0 W/m 8,5 C 7,3 C 20,9 km/h (4 Bft) 100,00 %
14.05.2016 22:18 11,2 C 83 % 1008,6 hPa 0,0 l/m 14,1 km/h (3 Bft) NW 319 0 min 0,000 mm 0,0 UV-I 0 W/m 8,4 C 7,0 C 19,3 km/h (3 Bft) 93,10 %
14.05.2016 22:19 11,2 C 83 % 1008,6 hPa 0,0 l/m 15,1 km/h (3 Bft) W-SW 258 0 min 0,000 mm 0,0 UV-I 0 W/m 8,4 C 6,5 C 20,9 km/h (4 Bft) 95,83 %
14.05.2016 22:20 11,2 C 83 % 1008,6 hPa 0,0 l/m 10,1 km/h (2 Bft) W-SW 252 0 min 0,000 mm 0,0 UV-I 0 W/m 8,4 C 8,9 C 12,9 km/h (3 Bft) 96,55 %
14.05.2016 22:21 11,2 C 83 % 1008,6 hPa 0,0 l/m 8,6 km/h (2 Bft) W-SW 246 0 min 0,000 mm 0,0 UV-I 0 W/m 8,4 C 9,7 C 11,3 km/h (2 Bft) 100,00 %
14.05.2016 22:22 11,2 C 84 % 1008,7 hPa 0,0 l/m 10,2 km/h (2 Bft) W-SW 242 0 min 0,000 mm 0,0 UV-I 0 W/m 8,6 C 8,8 C 14,5 km/h (3 Bft) 100,00 %
14.05.2016 22:23 11,2 C 84 % 1008,6 hPa 0,0 l/m 10,6 km/h (2 Bft) W 267 0 min 0,000 mm 0,0 UV-I 0 W/m 8,6 C 8,6 C 14,5 km/h (3 Bft) 100,00 %
14.05.2016 22:24 11,2 C 83 % 1008,6 hPa 0,0 l/m 11,0 km/h (2 Bft) W 271 0 min 0,000 mm 0,0 UV-I 0 W/m 8,4 C 8,4 C 14,5 km/h (3 Bft) 100,00 %
14.05.2016 22:25 11,2 C 83 % 1008,7 hPa 0,0 l/m 13,4 km/h (3 Bft) W 265 0 min 0,000 mm 0,0 UV-I 0 W/m 8,4 C 7,3 C 16,1 km/h (3 Bft) 100,00 %
14.05.2016 22:26 11,2 C 83 % 1008,7 hPa 0,0 l/m 15,8 km/h (3 Bft) W-NW 290 0 min 0,000 mm 0,0 UV-I 0 W/m 8,4 C 6,3 C 22,5 km/h (4 Bft) 100,00 %
14.05.2016 22:27 11,2 C 83 % 1008,7 hPa 0,0 l/m 15,0 km/h (3 Bft) S-SW 204 0 min 0,000 mm 0,0 UV-I 0 W/m 8,4 C 6,6 C 24,1 km/h (4 Bft) 100,00 %
14.05.2016 22:28 11,2 C 83 % 1008,7 hPa 0,0 l/m 10,4 km/h (2 Bft) W-SW 257 0 min 0,000 mm 0,0 UV-I 0 W/m 8,4 C 8,7 C 16,1 km/h (3 Bft) 100,00 %
14.05.2016 22:29 11,2 C 83 % 1008,7 hPa 0,0 l/m 11,2 km/h (2 Bft) W 265 0 min 0,000 mm 0,0 UV-I 0 W/m 8,4 C 8,3 C 16,1 km/h (3 Bft) 92,31 %
14.05.2016 22:30 11,2 C 84 % 1008,7 hPa 0,0 l/m 14,5 km/h (3 Bft) SW 236 0 min 0,000 mm 0,0 UV-I 0 W/m 8,6 C 6,8 C 20,9 km/h (4 Bft) 100,00 %
14.05.2016 22:31 11,2 C 83 % 1008,7 hPa 0,0 l/m 16,6 km/h (3 Bft) W 271 0 min 0,000 mm 0,0 UV-I 0 W/m 8,4 C 6,0 C 22,5 km/h (4 Bft) 100,00 %
14.05.2016 22:32 11,2 C 83 % 1008,7 hPa 0,0 l/m 18,2 km/h (3 Bft) W-SW 257 0 min 0,000 mm 0,0 UV-I 0 W/m 8,4 C 5,4 C 22,5 km/h (4 Bft) 100,00 %
14.05.2016 22:33 11,2 C 83 % 1008,8 hPa 0,0 l/m 10,8 km/h (2 Bft) SW 232 0 min 0,000 mm 0,0 UV-I 0 W/m 8,4 C 8,5 C 16,1 km/h (3 Bft) 100,00 %
14.05.2016 22:34 11,2 C 83 % 1008,8 hPa 0,0 l/m 11,3 km/h (2 Bft) SW 234 0 min 0,000 mm 0,0 UV-I 0 W/m 8,4 C 8,2 C 14,5 km/h (3 Bft) 100,00 %
14.05.2016 22:35 11,2 C 84 % 1008,8 hPa 0,0 l/m 16,2 km/h (3 Bft) SW 234 0 min 0,000 mm 0,0 UV-I 0 W/m 8,6 C 6,1 C 24,1 km/h (4 Bft) 100,00 %
14.05.2016 22:36 11,2 C 84 % 1008,8 hPa 0,0 l/m 19,2 km/h (3 Bft) W-SW 252 0 min 0,000 mm 0,0 UV-I 0 W/m 8,6 C 5,1 C 24,1 km/h (4 Bft) 100,00 %
14.05.2016 22:37 11,2 C 83 % 1008,9 hPa 0,0 l/m 16,0 km/h (3 Bft) W 267 0 min 0,000 mm 0,0 UV-I 0 W/m 8,4 C 6,2 C 22,5 km/h (4 Bft) 100,00 %
14.05.2016 22:38 11,2 C 83 % 1008,9 hPa 0,0 l/m 13,9 km/h (3 Bft) W-SW 244 0 min 0,000 mm 0,0 UV-I 0 W/m 8,4 C 7,0 C 17,7 km/h (3 Bft) 96,30 %
14.05.2016 22:39 11,2 C 84 % 1008,9 hPa 0,0 l/m 15,4 km/h (3 Bft) W 271 0 min 0,000 mm 0,0 UV-I 0 W/m 8,6 C 6,4 C 20,9 km/h (4 Bft) 100,00 %
14.05.2016 22:40 11,2 C 84 % 1008,9 hPa 0,0 l/m 16,1 km/h (3 Bft) W-SW 255 0 min 0,000 mm 0,0 UV-I 0 W/m 8,6 C 6,2 C 20,9 km/h (4 Bft) 100,00 %
14.05.2016 22:41 11,2 C 84 % 1008,9 hPa 0,0 l/m 13,4 km/h (3 Bft) W 261 0 min 0,000 mm 0,0 UV-I 0 W/m 8,6 C 7,3 C 17,7 km/h (3 Bft) 100,00 %
14.05.2016 22:42 11,2 C 84 % 1008,9 hPa 0,0 l/m 12,3 km/h (3 Bft) SW 221 0 min 0,000 mm 0,0 UV-I 0 W/m 8,6 C 7,8 C 22,5 km/h (4 Bft) 100,00 %
14.05.2016 22:43 11,2 C 84 % 1009,0 hPa 0,0 l/m 11,2 km/h (2 Bft) W-SW 242 0 min 0,000 mm 0,0 UV-I 0 W/m 8,6 C 8,3 C 19,3 km/h (3 Bft) 100,00 %
14.05.2016 22:44 11,2 C 84 % 1009,0 hPa 0,0 l/m 19,3 km/h (3 Bft) W-NW 286 0 min 0,000 mm 0,0 UV-I 0 W/m 8,6 C 5,1 C 25,7 km/h (4 Bft) 96,55 %
14.05.2016 22:45 11,2 C 84 % 1008,9 hPa 0,0 l/m 18,1 km/h (3 Bft) W 264 0 min 0,000 mm 0,0 UV-I 0 W/m 8,6 C 5,5 C 25,7 km/h (4 Bft) 100,00 %
14.05.2016 22:46 11,2 C 84 % 1009,0 hPa 0,0 l/m 14,9 km/h (3 Bft) W-SW 256 0 min 0,000 mm 0,0 UV-I 0 W/m 8,6 C 6,6 C 20,9 km/h (4 Bft) 96,15 %
14.05.2016 22:47 11,2 C 84 % 1009,0 hPa 0,0 l/m 17,0 km/h (3 Bft) W 263 0 min 0,000 mm 0,0 UV-I 0 W/m 8,6 C 5,8 C 22,5 km/h (4 Bft) 100,00 %
14.05.2016 22:48 11,2 C 84 % 1009,0 hPa 0,0 l/m 14,4 km/h (3 Bft) W-SW 254 0 min 0,000 mm 0,0 UV-I 0 W/m 8,6 C 6,8 C 17,7 km/h (3 Bft) 100,00 %
14.05.2016 22:49 11,2 C 84 % 1009,0 hPa 0,0 l/m 19,8 km/h (3 Bft) W-NW 283 0 min 0,000 mm 0,0 UV-I 0 W/m 8,6 C 4,9 C 25,7 km/h (4 Bft) 96,30 %
14.05.2016 22:50 11,2 C 84 % 1009,0 hPa 0,0 l/m 17,5 km/h (3 Bft) W-SW 241 0 min 0,000 mm 0,0 UV-I 0 W/m 8,6 C 5,7 C 24,1 km/h (4 Bft) 100,00 %
14.05.2016 22:51 11,2 C 84 % 1009,0 hPa 0,0 l/m 15,9 km/h (3 Bft) W-SW 248 0 min 0,000 mm 0,0 UV-I 0 W/m 8,6 C 6,2 C 22,5 km/h (4 Bft) 91,67 %
14.05.2016 22:52 11,2 C 84 % 1009,0 hPa 0,0 l/m 16,7 km/h (3 Bft) W-SW 257 0 min 0,000 mm 0,0 UV-I 0 W/m 8,6 C 5,9 C 22,5 km/h (4 Bft) 100,00 %
14.05.2016 22:53 11,2 C 84 % 1009,0 hPa 0,0 l/m 19,1 km/h (3 Bft) W-SW 237 0 min 0,000 mm 0,0 UV-I 0 W/m 8,6 C 5,1 C 30,6 km/h (5 Bft) 96,67 %
14.05.2016 22:54 11,2 C 84 % 1009,1 hPa 0,0 l/m 14,6 km/h (3 Bft) SW 228 0 min 0,000 mm 0,0 UV-I 0 W/m 8,6 C 6,7 C 17,7 km/h (3 Bft) 95,65 %
14.05.2016 22:55 11,2 C 84 % 1009,1 hPa 0,0 l/m 15,1 km/h (3 Bft) W 265 0 min 0,000 mm 0,0 UV-I 0 W/m 8,6 C 6,5 C 20,9 km/h (4 Bft) 100,00 %
14.05.2016 22:56 11,2 C 84 % 1009,1 hPa 0,0 l/m 17,0 km/h (3 Bft) W 259 0 min 0,000 mm 0,0 UV-I 0 W/m 8,6 C 5,8 C 25,7 km/h (4 Bft) 100,00 %
14.05.2016 22:57 11,2 C 84 % 1009,1 hPa 0,0 l/m 18,2 km/h (3 Bft) W 273 0 min 0,000 mm 0,0 UV-I 0 W/m 8,6 C 5,4 C 35,4 km/h (5 Bft) 90,91 %
14.05.2016 22:58 11,2 C 84 % 1009,0 hPa 0,0 l/m 20,5 km/h (4 Bft) W-SW 246 0 min 0,000 mm 0,0 UV-I 0 W/m 8,6 C 4,7 C 27,4 km/h (4 Bft) 94,87 %
14.05.2016 22:59 11,2 C 84 % 1009,1 hPa 0,0 l/m 20,0 km/h (4 Bft) W 264 0 min 0,000 mm 0,0 UV-I 0 W/m 8,6 C 4,8 C 30,6 km/h (5 Bft) 100,00 %
14.05.2016 23:00 11,2 C 84 % 1009,1 hPa 0,0 l/m 16,1 km/h (3 Bft) W 264 0 min 0,026 mm 0,0 UV-I 0 W/m 8,6 C 6,2 C 22,5 km/h (4 Bft) 91,67 %
14.05.2016 23:01 11,2 C 85 % 1009,2 hPa 0,0 l/m 16,8 km/h (3 Bft) W 272 0 min 0,000 mm 0,0 UV-I 0 W/m 8,8 C 5,9 C 27,4 km/h (4 Bft) 100,00 %
14.05.2016 23:02 11,2 C 85 % 1009,2 hPa 0,0 l/m 17,4 km/h (3 Bft) W-NW 297 0 min 0,000 mm 0,0 UV-I 0 W/m 8,8 C 5,7 C 20,9 km/h (4 Bft) 96,30 %
14.05.2016 23:03 11,2 C 85 % 1009,2 hPa 0,0 l/m 10,8 km/h (2 Bft) W-SW 240 0 min 0,000 mm 0,0 UV-I 0 W/m 8,8 C 8,5 C 17,7 km/h (3 Bft) 98,51 %
14.05.2016 23:04 11,2 C 85 % 1009,2 hPa 0,0 l/m 17,3 km/h (3 Bft) W-SW 246 0 min 0,000 mm 0,0 UV-I 0 W/m 8,8 C 5,7 C 27,4 km/h (4 Bft) 95,74 %
14.05.2016 23:05 11,1 C 85 % 1009,2 hPa 0,0 l/m 16,7 km/h (3 Bft) W 259 0 min 0,000 mm 0,0 UV-I 0 W/m 8,7 C 5,8 C 22,5 km/h (4 Bft) 94,12 %
14.05.2016 23:06 11,1 C 85 % 1009,2 hPa 0,0 l/m 16,6 km/h (3 Bft) W-SW 257 0 min 0,000 mm 0,0 UV-I 0 W/m 8,7 C 5,9 C 22,5 km/h (4 Bft) 100,00 %
14.05.2016 23:07 11,1 C 85 % 1009,3 hPa 0,0 l/m 14,8 km/h (3 Bft) W 262 0 min 0,000 mm 0,0 UV-I 0 W/m 8,7 C 6,5 C 20,9 km/h (4 Bft) 95,65 %
14.05.2016 23:08 11,1 C 85 % 1009,2 hPa 0,0 l/m 15,9 km/h (3 Bft) W-SW 248 0 min 0,000 mm 0,0 UV-I 0 W/m 8,7 C 6,1 C 25,7 km/h (4 Bft) 100,00 %
14.05.2016 23:09 11,1 C 85 % 1009,3 hPa 0,0 l/m 14,7 km/h (3 Bft) W-SW 253 0 min 0,000 mm 0,0 UV-I 0 W/m 8,7 C 6,6 C 20,9 km/h (4 Bft) 94,12 %
14.05.2016 23:10 11,1 C 85 % 1009,3 hPa 0,0 l/m 20,2 km/h (4 Bft) W-SW 257 0 min 0,000 mm 0,0 UV-I 0 W/m 8,7 C 4,6 C 25,7 km/h (4 Bft) 100,00 %
14.05.2016 23:11 11,1 C 85 % 1009,3 hPa 0,0 l/m 14,9 km/h (3 Bft) W 264 0 min 0,000 mm 0,0 UV-I 0 W/m 8,7 C 6,5 C 24,1 km/h (4 Bft) 96,15 %
14.05.2016 23:12 11,1 C 85 % 1009,3 hPa 0,0 l/m 15,5 km/h (3 Bft) W 266 0 min 0,000 mm 0,0 UV-I 0 W/m 8,7 C 6,3 C 25,7 km/h (4 Bft) 96,30 %
14.05.2016 23:13 11,0 C 85 % 1009,3 hPa 0,0 l/m 18,2 km/h (3 Bft) W-SW 257 0 min 0,000 mm 0,0 UV-I 0 W/m 8,6 C 5,2 C 27,4 km/h (4 Bft) 100,00 %
14.05.2016 23:14 11,0 C 85 % 1009,3 hPa 0,0 l/m 16,0 km/h (3 Bft) SW 229 0 min 0,000 mm 0,0 UV-I 0 W/m 8,6 C 6,0 C 22,5 km/h (4 Bft) 95,83 %
14.05.2016 23:15 11,0 C 85 % 1009,3 hPa 0,0 l/m 15,1 km/h (3 Bft) W 267 0 min 0,000 mm 0,0 UV-I 0 W/m 8,6 C 6,3 C 20,9 km/h (4 Bft) 100,00 %
14.05.2016 23:16 11,0 C 85 % 1009,4 hPa 0,0 l/m 13,9 km/h (3 Bft) W-SW 246 0 min 0,000 mm 0,0 UV-I 0 W/m 8,6 C 6,8 C 19,3 km/h (3 Bft) 95,83 %
14.05.2016 23:17 11,0 C 85 % 1009,4 hPa 0,0 l/m 14,1 km/h (3 Bft) W-SW 249 0 min 0,000 mm 0,0 UV-I 0 W/m 8,6 C 6,7 C 20,9 km/h (4 Bft) 100,00 %
14.05.2016 23:18 11,0 C 85 % 1009,4 hPa 0,0 l/m 13,0 km/h (3 Bft) W-SW 244 0 min 0,000 mm 0,0 UV-I 0 W/m 8,6 C 7,2 C 16,1 km/h (3 Bft) 96,30 %
14.05.2016 23:19 11,0 C 85 % 1009,5 hPa 0,0 l/m 16,5 km/h (3 Bft) W-SW 258 0 min 0,000 mm 0,0 UV-I 0 W/m 8,6 C 5,8 C 19,3 km/h (3 Bft) 100,00 %
14.05.2016 23:20 11,0 C 85 % 1009,5 hPa 0,0 l/m 14,9 km/h (3 Bft) W-SW 245 0 min 0,000 mm 0,0 UV-I 0 W/m 8,6 C 6,4 C 19,3 km/h (3 Bft) 91,67 %
14.05.2016 23:21 10,9 C 85 % 1009,5 hPa 0,0 l/m 16,0 km/h (3 Bft) W-SW 249 0 min 0,000 mm 0,0 UV-I 0 W/m 8,5 C 5,8 C 20,9 km/h (4 Bft) 100,00 %
14.05.2016 23:22 10,9 C 85 % 1009,5 hPa 0,0 l/m 19,0 km/h (3 Bft) W-SW 252 0 min 0,000 mm 0,0 UV-I 0 W/m 8,5 C 4,8 C 25,7 km/h (4 Bft) 96,15 %
14.05.2016 23:23 10,9 C 85 % 1009,5 hPa 0,0 l/m 17,2 km/h (3 Bft) W-SW 242 0 min 0,000 mm 0,0 UV-I 0 W/m 8,5 C 5,4 C 24,1 km/h (4 Bft) 96,67 %
14.05.2016 23:24 10,9 C 85 % 1009,5 hPa 0,0 l/m 16,1 km/h (3 Bft) W-SW 239 0 min 0,000 mm 0,0 UV-I 0 W/m 8,5 C 5,8 C 20,9 km/h (4 Bft) 100,00 %
14.05.2016 23:25 10,9 C 85 % 1009,5 hPa 0,0 l/m 20,4 km/h (4 Bft) W-SW 238 0 min 0,000 mm 0,0 UV-I 0 W/m 8,5 C 4,3 C 27,4 km/h (4 Bft) 100,00 %
14.05.2016 23:26 10,9 C 85 % 1009,5 hPa 0,0 l/m 18,1 km/h (3 Bft) W 264 0 min 0,000 mm 0,0 UV-I 0 W/m 8,5 C 5,1 C 22,5 km/h (4 Bft) 100,00 %
14.05.2016 23:27 10,9 C 85 % 1009,5 hPa 0,0 l/m 14,3 km/h (3 Bft) W-SW 250 0 min 0,000 mm 0,0 UV-I 0 W/m 8,5 C 6,5 C 22,5 km/h (4 Bft) 96,30 %
14.05.2016 23:28 10,9 C 85 % 1009,6 hPa 0,0 l/m 13,0 km/h (3 Bft) W 272 0 min 0,000 mm 0,0 UV-I 0 W/m 8,5 C 7,1 C 14,5 km/h (3 Bft) 100,00 %
14.05.2016 23:29 10,8 C 86 % 1009,6 hPa 0,0 l/m 14,5 km/h (3 Bft) W-SW 250 0 min 0,000 mm 0,0 UV-I 0 W/m 8,6 C 6,3 C 20,9 km/h (4 Bft) 100,00 %
14.05.2016 23:30 10,8 C 86 % 1009,6 hPa 0,0 l/m 15,8 km/h (3 Bft) W 260 0 min 0,000 mm 0,0 UV-I 0 W/m 8,6 C 5,8 C 20,9 km/h (4 Bft) 100,00 %
14.05.2016 23:31 10,8 C 86 % 1009,6 hPa 0,0 l/m 12,2 km/h (2 Bft) SW 234 0 min 0,000 mm 0,0 UV-I 0 W/m 8,6 C 7,3 C 16,1 km/h (3 Bft) 100,00 %
14.05.2016 23:32 10,8 C 86 % 1009,6 hPa 0,0 l/m 14,1 km/h (3 Bft) SW 233 0 min 0,000 mm 0,0 UV-I 0 W/m 8,6 C 6,5 C 22,5 km/h (4 Bft) 100,00 %
14.05.2016 23:33 10,8 C 86 % 1009,7 hPa 0,0 l/m 9,7 km/h (2 Bft) W-SW 246 0 min 0,000 mm 0,0 UV-I 0 W/m 8,6 C 8,6 C 14,5 km/h (3 Bft) 100,00 %
14.05.2016 23:34 10,8 C 86 % 1009,7 hPa 0,0 l/m 14,2 km/h (3 Bft) W-SW 257 0 min 0,000 mm 0,0 UV-I 0 W/m 8,6 C 6,4 C 16,1 km/h (3 Bft) 96,55 %
14.05.2016 23:35 10,7 C 87 % 1009,7 hPa 0,0 l/m 12,5 km/h (3 Bft) W-SW 250 0 min 0,000 mm 0,0 UV-I 0 W/m 8,6 C 7,1 C 17,7 km/h (3 Bft) 100,00 %
14.05.2016 23:36 10,7 C 87 % 1009,7 hPa 0,0 l/m 16,8 km/h (3 Bft) W 272 0 min 0,000 mm 0,0 UV-I 0 W/m 8,6 C 5,3 C 20,9 km/h (4 Bft) 93,10 %
14.05.2016 23:37 10,7 C 87 % 1009,7 hPa 0,0 l/m 14,7 km/h (3 Bft) W-SW 257 0 min 0,000 mm 0,0 UV-I 0 W/m 8,6 C 6,1 C 20,9 km/h (4 Bft) 100,00 %
14.05.2016 23:38 10,7 C 87 % 1009,7 hPa 0,0 l/m 14,4 km/h (3 Bft) W 264 0 min 0,000 mm 0,0 UV-I 0 W/m 8,6 C 6,2 C 19,3 km/h (3 Bft) 100,00 %
14.05.2016 23:39 10,7 C 87 % 1009,7 hPa 0,0 l/m 15,1 km/h (3 Bft) W-SW 250 0 min 0,000 mm 0,0 UV-I 0 W/m 8,6 C 5,9 C 17,7 km/h (3 Bft) 100,00 %
14.05.2016 23:40 10,7 C 87 % 1009,7 hPa 0,0 l/m 16,4 km/h (3 Bft) W-SW 248 0 min 0,000 mm 0,0 UV-I 0 W/m 8,6 C 5,4 C 22,5 km/h (4 Bft) 100,00 %
14.05.2016 23:41 10,6 C 87 % 1009,8 hPa 0,0 l/m 15,5 km/h (3 Bft) W-SW 257 0 min 0,000 mm 0,0 UV-I 0 W/m 8,5 C 5,7 C 22,5 km/h (4 Bft) 100,00 %
14.05.2016 23:42 10,6 C 87 % 1009,8 hPa 0,0 l/m 17,3 km/h (3 Bft) W-SW 246 0 min 0,000 mm 0,0 UV-I 0 W/m 8,5 C 5,0 C 22,5 km/h (4 Bft) 100,00 %
14.05.2016 23:43 10,6 C 87 % 1009,8 hPa 0,0 l/m 19,2 km/h (3 Bft) W-SW 238 0 min 0,000 mm 0,0 UV-I 0 W/m 8,5 C 4,3 C 24,1 km/h (4 Bft) 100,00 %
14.05.2016 23:44 10,6 C 87 % 1009,8 hPa 0,0 l/m 18,0 km/h (3 Bft) W-SW 244 0 min 0,000 mm 0,0 UV-I 0 W/m 8,5 C 4,7 C 24,1 km/h (4 Bft) 95,83 %
14.05.2016 23:45 10,6 C 87 % 1009,9 hPa 0,0 l/m 15,3 km/h (3 Bft) W-SW 255 0 min 0,000 mm 0,0 UV-I 0 W/m 8,5 C 5,7 C 24,1 km/h (4 Bft) 100,00 %
14.05.2016 23:46 10,5 C 87 % 1009,8 hPa 0,0 l/m 15,7 km/h (3 Bft) W-SW 257 0 min 0,000 mm 0,0 UV-I 0 W/m 8,4 C 5,5 C 24,1 km/h (4 Bft) 100,00 %
14.05.2016 23:47 10,5 C 87 % 1009,9 hPa 0,0 l/m 16,7 km/h (3 Bft) W-SW 252 0 min 0,000 mm 0,0 UV-I 0 W/m 8,4 C 5,1 C 24,1 km/h (4 Bft) 100,00 %
14.05.2016 23:48 10,5 C 87 % 1009,9 hPa 0,2 l/m 17,3 km/h (3 Bft) W 268 0 min 0,000 mm 0,0 UV-I 0 W/m 8,4 C 4,9 C 22,5 km/h (4 Bft) 100,00 %
14.05.2016 23:49 10,5 C 87 % 1009,9 hPa 0,0 l/m 14,3 km/h (3 Bft) W-SW 252 0 min 0,000 mm 0,0 UV-I 0 W/m 8,4 C 6,0 C 19,3 km/h (3 Bft) 100,00 %
14.05.2016 23:50 10,4 C 87 % 1009,9 hPa 0,0 l/m 15,2 km/h (3 Bft) W 275 0 min 0,000 mm 0,0 UV-I 0 W/m 8,3 C 5,5 C 17,7 km/h (3 Bft) 100,00 %
14.05.2016 23:51 10,4 C 87 % 1009,9 hPa 0,0 l/m 15,3 km/h (3 Bft) W-SW 250 0 min 0,000 mm 0,0 UV-I 0 W/m 8,3 C 5,5 C 24,1 km/h (4 Bft) 100,00 %
14.05.2016 23:52 10,4 C 87 % 1009,9 hPa 0,0 l/m 17,7 km/h (3 Bft) W 263 0 min 0,000 mm 0,0 UV-I 0 W/m 8,3 C 4,6 C 25,7 km/h (4 Bft) 96,30 %
14.05.2016 23:53 10,4 C 87 % 1009,9 hPa 0,0 l/m 15,7 km/h (3 Bft) W 259 0 min 0,000 mm 0,0 UV-I 0 W/m 8,3 C 5,3 C 22,5 km/h (4 Bft) 100,00 %
14.05.2016 23:54 10,4 C 87 % 1009,9 hPa 0,0 l/m 16,8 km/h (3 Bft) W-SW 258 0 min 0,000 mm 0,0 UV-I 0 W/m 8,3 C 4,9 C 20,9 km/h (4 Bft) 100,00 %
14.05.2016 23:55 10,4 C 87 % 1009,9 hPa 0,0 l/m 12,7 km/h (3 Bft) W 264 0 min 0,000 mm 0,0 UV-I 0 W/m 8,3 C 6,6 C 17,7 km/h (3 Bft) 100,00 %
14.05.2016 23:56 10,4 C 87 % 1009,9 hPa 0,0 l/m 15,0 km/h (3 Bft) W-SW 242 0 min 0,000 mm 0,0 UV-I 0 W/m 8,3 C 5,6 C 27,4 km/h (4 Bft) 100,00 %
14.05.2016 23:57 10,3 C 87 % 1009,9 hPa 0,0 l/m 18,8 km/h (3 Bft) W 265 0 min 0,000 mm 0,0 UV-I 0 W/m 8,2 C 4,1 C 27,4 km/h (4 Bft) 100,00 %
14.05.2016 23:58 10,3 C 87 % 1009,9 hPa 0,0 l/m 14,6 km/h (3 Bft) W-SW 248 0 min 0,000 mm 0,0 UV-I 0 W/m 8,2 C 5,7 C 17,7 km/h (3 Bft) 96,15 %
14.05.2016 23:59 10,3 C 87 % 1010,0 hPa 0,0 l/m 14,8 km/h (3 Bft) W 264 0 min 0,000 mm 0,0 UV-I 0 W/m 8,2 C 5,6 C 22,5 km/h (4 Bft) 100,00 %
_ Min-Zeit 23:56 16:26 01:14 - 19:54 - - - - - - 23:57 23:57 19:14 05:24
Minimum _ 10,3 C 63 % 999,2 hPa - 0,3 km/h (0 Bft) - - - - - - 8,2 C 4,1 C 1,6 km/h (1 Bft) 80,00 %
_ Max-Zeit 13:22 00:00 23:59 00:13 16:22 - - 12:27 17:01 13:10 12:45 10:55 17:48 16:41 00:03
Maximum _ 16,2 C 97 % 1010,0 hPa 0,2 l/m 31,5 km/h
W-SW (5 Bft)
- - 1 min 0,381 mm 5,0 UV-I 870 W/m 13,1 C 14,9 C 45,1 km/h
SW (6 Bft)
100,00 %
Durchschnitt _ 12,9 C 87 % 1003,5 hPa #4,8 l/m 11,2 km/h (2 Bft) W-SW - #2:18 h #2,134 mm 1,7 UV-I 212 W/m 10,6 C 10,5 C 16,2 km/h (3 Bft) 98,51 %